GFSGL_850_rhum_000.txt.gz
RH
54 59 58 51 44 47 53 53 51 52 67 81 68 64 55 48 49 54 55 58 58 58 58 57 55 55 54 53 54 55 56 57 63 69 66 67 67 64 63 55 56 56 55
68 65 61 50 50 54 56 55 53 55 56 59 49 46 45 53 55 60 60 53 46 43 41 42 46 49 57 58 57 57 57 56 58 68 64 61 64 64 64 61 61 62 55
75 58 55 52 52 50 49 48 49 54 61 45 42 43 48 56 52 47 49 45 51 54 56 59 60 60 58 60 61 64 66 70 70 79 84 77 70 67 69 70 67 65 65
73 68 54 51 49 48 52 56 60 69 72 48 52 54 57 56 54 46 49 54 55 61 64 66 66 66 68 70 72 73 74 77 78 81 83 92 96 89 88 88 77 67 65
74 77 51 49 54 61 74 76 85 87 56 57 59 60 60 51 47 52 55 63 66 67 65 64 66 68 71 73 77 76 77 74 71 76 78 82 82 85 88 84 84 82 67
97 95 83 74 80 81 96 96 74 69 61 60 62 58 46 47 49 58 67 71 74 74 74 71 68 64 63 66 65 58 65 70 73 82 92 98 94 99 94 87 85 86 84
98 100 99 98 94 79 79 75 73 65 63 59 49 47 44 53 65 71 73 69 67 64 69 76 80 80 82 82 78 75 76 77 84 89 100 100 100 100 95 91 88 86 87
85 95 100 99 96 74 66 61 57 54 48 45 45 50 56 63 66 68 76 69 68 77 85 87 86 82 78 78 79 90 84 76 81 84 94 94 95 94 94 91 92 92 88
69 68 68 77 86 78 72 61 50 46 44 51 54 56 63 69 77 72 69 74 87 86 84 84 86 96 92 98 92 95 90 82 77 77 80 85 96 97 92 96 98 98 96
79 64 72 67 55 51 48 47 47 52 54 52 59 69 76 73 63 65 77 100 95 89 88 85 85 90 88 89 94 96 96 91 88 87 92 91 88 94 93 96 98 98 100
92 75 52 41 41 43 48 55 57 53 56 69 71 73 75 68 69 77 88 100 96 97 93 93 93 92 98 98 98 97 93 86 91 97 95 97 93 87 95 93 91 94 99
60 51 38 40 47 55 62 62 56 68 75 79 81 74 68 71 73 82 90 94 95 98 99 98 98 97 96 97 96 96 95 96 99 98 97 94 95 88 79 84 89 90 92
50 37 41 45 50 64 65 65 74 84 89 84 80 76 77 75 76 88 90 90 93 98 98 98 97 94 91 94 85 94 97 95 96 98 97 90 89 83 83 85 84 92 97
37 37 39 44 54 62 68 70 85 89 80 94 83 85 91 82 82 88 95 95 96 98 91 89 94 90 98 95 96 96 94 97 97 98 98 94 96 96 98 94 92 87 90
42 46 49 57 65 74 78 76 84 85 89 96 88 98 95 89 91 97 98 96 98 98 93 90 86 88 92 94 93 98 97 96 97 97 98 98 98 97 96 98 93 92 99
53 57 68 77 81 85 86 81 89 88 90 88 89 97 93 98 97 95 95 96 97 94 94 90 91 94 96 95 95 95 96 92 95 98 94 93 90 88 87 91 94 96 98
64 69 85 100 99 95 91 87 90 92 88 83 88 89 96 100 96 95 95 96 96 96 95 94 94 100 96 96 96 97 97 99 97 97 98 100 100 99 98 95 96 97 97
76 78 95 95 97 96 94 91 96 88 91 82 86 92 95 96 96 95 95 96 95 95 95 95 95 96 99 99 98 95 95 96 98 100 100 97 94 97 97 95 96 98 98
90 92 99 97 97 96 96 96 92 95 91 85 86 89 95 96 95 95 95 95 95 96 95 95 96 96 96 96 95 92 88 93 96 96 97 96 97 95 98 100 100 100 100
93 96 99 100 96 99 98 91 98 92 88 88 93 92 94 95 95 94 94 95 96 96 96 95 96 96 93 93 89 88 88 88 90 91 94 95 98 99 97 95 91 94 99
82 98 100 99 95 100 94 95 92 95 86 92 97 95 95 96 96 95 95 95 95 96 96 96 96 96 94 92 89 86 88 90 90 91 90 94 99 99 100 98 100 100 96
92 100 100 98 96 96 96 97 95 96 92 96 95 96 96 96 96 96 96 95 96 96 97 98 98 96 96 94 91 88 86 85 90 91 90 87 89 93 97 98 99 99 98
100 98 99 99 99 96 97 92 95 96 96 98 93 95 95 96 96 96 96 96 96 95 91 96 99 99 100 97 93 89 88 92 92 92 91 89 88 88 90 92 95 98 100
100 100 100 100 98 98 100 96 98 95 98 100 96 94 95 96 96 96 96 96 86 48 50 55 63 73 82 82 81 77 74 80 85 88 92 91 91 91 89 88 90 92 95
100 100 100 100 97 99 96 95 95 96 96 100 95 95 96 97 97 97 97 73 22 18 17 16 17 27 40 50 53 61 71 69 62 59 64 83 90 93 90 87 90 93 94
100 100 100 99 97 96 96 94 93 96 97 97 96 95 97 97 96 96 66 26 20 17 15 14 14 14 13 13 17 29 41 49 49 55 55 52 56 78 92 94 94 89 90

GFSGL_850_rhum_003.txt.gz
RH
53 58 61 50 49 56 55 53 53 55 53 62 72 74 61 49 52 55 56 57 62 62 58 49 42 38 36 37 40 46 54 57 62 69 65 60 61 59 55 54 60 59 58
68 74 63 54 52 59 57 54 51 55 74 72 53 45 38 43 44 50 54 46 42 44 39 43 45 44 46 51 57 57 56 57 63 73 79 68 64 64 61 60 59 59 60
73 69 62 56 60 61 55 56 59 62 68 72 65 49 50 47 48 50 50 47 41 46 52 54 58 63 63 63 65 66 66 69 76 84 86 86 79 75 74 71 69 58 52
67 61 63 75 57 55 60 65 69 71 91 81 61 57 56 56 55 54 44 40 45 50 59 66 69 70 70 68 68 68 68 69 70 71 75 85 86 76 73 73 69 60 49
60 67 97 72 56 62 74 77 84 92 92 80 68 60 60 58 46 44 45 53 65 69 69 68 69 69 69 68 68 69 75 82 92 95 91 88 82 84 82 73 71 60 48
70 80 99 100 98 97 97 97 91 88 93 96 73 58 51 47 46 59 67 72 71 70 63 54 53 56 62 67 70 72 77 90 92 94 92 94 92 94 90 85 77 76 83
81 81 96 99 99 97 90 83 76 75 70 58 54 49 43 49 60 67 68 66 65 60 57 61 68 76 82 83 80 80 82 82 87 95 100 100 97 94 92 94 91 90 89
98 96 80 79 82 79 77 79 70 57 56 51 48 52 56 59 66 71 72 64 57 62 70 80 85 81 79 81 94 99 97 88 79 81 92 87 90 85 86 92 95 94 89
89 91 89 74 65 60 56 54 51 51 54 56 56 59 68 71 72 71 58 61 67 78 84 83 86 86 85 94 100 98 95 89 85 92 90 79 82 86 94 98 97 98 98
77 81 82 58 52 46 45 50 59 60 58 60 68 73 75 75 62 61 70 76 100 95 85 82 85 92 92 97 100 99 98 89 90 91 94 91 88 88 94 97 99 99 96
82 69 57 43 42 48 54 64 62 61 65 72 73 74 66 64 67 72 76 100 100 95 92 89 94 98 95 94 96 96 97 94 97 98 96 94 91 93 90 90 92 97 98
62 53 41 42 44 50 60 64 66 67 69 68 65 61 59 59 72 75 85 96 97 98 93 98 94 99 96 92 92 98 94 99 97 98 98 94 94 93 88 83 86 95 95
44 42 41 44 48 58 66 71 69 69 70 71 80 76 65 65 75 80 88 88 92 95 97 95 93 95 90 89 94 91 91 91 93 96 94 94 94 89 92 95 93 95 96
44 49 51 52 57 66 76 81 78 78 80 86 88 84 93 83 82 86 96 94 94 97 96 99 95 94 97 98 96 97 97 97 98 96 96 96 97 96 96 96 96 96 97
48 58 62 69 83 89 87 88 88 89 88 94 88 96 100 94 93 98 97 95 97 96 96 96 92 93 91 90 94 97 97 97 96 97 98 96 96 97 96 96 96 97 96
57 66 74 82 97 100 94 89 89 84 87 89 82 100 100 100 100 97 95 96 96 96 96 94 92 96 95 96 94 91 94 95 96 97 98 98 98 96 92 96 97 98 97
70 76 82 82 92 93 93 91 94 88 87 88 80 87 92 100 98 96 95 96 96 96 96 95 96 98 95 96 97 96 96 98 99 99 100 100 100 98 97 96 97 97 96
84 90 90 90 94 94 94 100 97 93 92 82 79 87 94 96 96 96 95 96 96 95 95 95 97 99 99 97 97 96 90 93 97 100 98 98 97 98 97 97 97 97 98
96 97 92 93 93 94 95 99 92 92 92 84 83 83 93 95 96 96 96 95 95 95 95 96 97 97 98 94 94 94 96 97 96 96 95 96 95 94 96 97 97 97 97
98 92 94 100 99 94 97 92 94 92 93 88 88 90 92 94 94 95 95 96 96 95 95 96 96 96 97 96 93 92 90 89 88 89 93 94 95 95 94 93 94 94 98
93 93 100 100 100 91 89 91 93 96 95 94 92 93 96 97 95 95 95 96 95 96 96 96 96 96 96 96 95 93 91 91 89 90 89 92 95 94 93 94 94 91 93
95 97 100 98 95 93 92 97 98 99 98 96 94 93 96 97 96 96 96 96 95 95 95 96 97 97 97 96 94 90 90 91 91 91 92 92 90 92 95 93 93 94 97
100 99 100 100 95 94 95 96 95 96 98 98 96 95 96 96 96 96 96 96 95 80 55 65 81 89 89 88 82 73 71 78 88 93 92 88 88 88 92 92 94 95 96
100 100 100 99 94 93 94 94 94 96 96 97 95 95 97 96 96 96 96 87 27 19 18 18 30 43 51 55 59 65 72 72 65 62 82 88 84 86 87 89 91 94 95
100 100 100 98 94 93 93 88 86 90 96 96 95 92 95 96 97 96 94 37 19 16 15 15 14 14 18 23 32 42 55 57 52 51 45 51 70 83 89 88 90 92 93
100 100 100 100 95 96 97 97 94 89 94 95 88 68 78 90 96 94 55 23 19 16 14 14 13 13 13 13 14 17 19 17 21 30 36 39 37 48 72 84 89 88 89

GFSGL_850_rhum_006.txt.gz
RH
44 58 70 61 51 42 48 59 62 66 68 67 70 79 90 72 49 51 58 62 60 55 49 44 39 35 36 39 40 43 50 56 65 60 62 62 55 60 58 56 52 53 56
70 73 61 57 50 63 62 62 71 68 64 69 82 94 63 59 49 41 46 51 51 49 45 34 34 39 40 44 53 58 61 65 72 72 70 76 73 71 72 71 71 53 46
72 63 61 52 67 65 66 65 68 66 78 85 95 92 72 62 58 58 57 54 47 36 34 37 43 54 62 67 70 72 72 70 70 73 74 74 74 73 74 74 71 68 58
62 64 59 71 86 63 69 69 70 78 94 97 97 96 90 71 59 60 52 42 39 39 49 57 68 73 73 70 67 63 63 65 66 68 68 73 79 71 69 68 64 61 56
69 70 74 97 96 82 73 74 79 88 94 97 97 95 91 76 60 48 45 48 52 52 52 58 60 54 46 49 57 59 70 82 98 100 100 100 100 99 87 68 64 50 45
82 90 98 95 97 99 94 92 92 91 93 84 72 71 61 53 50 59 64 69 69 68 63 58 50 50 56 63 71 78 89 96 98 99 92 96 98 100 91 82 75 80 84
89 98 88 84 85 80 71 70 78 74 63 57 57 54 54 59 66 71 73 72 66 61 58 57 65 71 78 82 80 80 88 90 95 95 99 96 97 94 95 97 89 84 80
86 83 74 73 67 64 58 52 50 50 51 54 56 57 58 62 69 68 66 59 55 61 69 74 84 79 79 88 100 100 99 96 97 95 90 91 96 95 95 92 94 95 92
74 76 70 69 60 55 41 44 53 59 61 60 62 68 73 72 68 58 58 64 70 75 83 84 82 84 92 91 100 100 96 92 86 90 94 95 93 92 94 91 100 100 98
74 82 68 58 46 38 43 50 59 62 65 68 66 69 68 62 62 56 72 79 84 96 90 85 90 99 97 96 97 98 97 95 96 95 94 94 88 93 95 99 98 100 99
78 67 55 38 38 41 46 56 62 66 66 65 64 64 66 68 58 67 79 99 100 97 96 93 97 100 96 100 98 94 92 92 96 97 97 98 93 90 89 95 95 98 96
69 54 41 45 48 50 56 62 70 74 73 73 74 66 63 60 62 75 85 96 96 99 96 98 99 96 94 93 92 96 97 96 91 88 95 97 96 93 88 94 95 96 95
58 45 48 54 61 66 71 77 80 81 82 83 81 79 69 67 70 84 91 96 97 96 98 97 97 96 89 89 96 97 96 96 96 95 94 92 96 96 96 97 96 96 98
48 48 55 66 73 76 84 93 92 88 85 85 86 84 82 88 83 92 96 93 94 96 95 95 96 95 95 98 96 97 96 96 97 96 97 96 96 97 96 96 96 96 96
53 54 66 76 83 78 90 98 97 92 91 93 89 88 98 99 97 99 97 95 97 95 96 96 93 92 90 92 95 96 96 96 96 96 96 97 98 97 97 97 96 96 96
60 61 79 86 89 79 86 90 92 93 92 93 84 82 100 100 100 100 96 96 96 95 95 95 95 95 95 96 96 90 96 96 96 96 97 96 97 97 98 95 95 95 95
64 79 92 95 85 85 88 89 86 86 87 82 78 83 88 100 100 96 95 96 96 96 95 95 95 95 95 98 100 99 97 97 97 97 96 96 97 97 96 96 98 97 96
69 94 99 91 89 88 89 89 94 91 88 77 77 86 88 96 97 96 95 96 95 96 95 95 95 96 96 98 99 99 97 96 95 96 96 96 97 97 98 97 96 99 98
100 99 91 89 90 91 93 91 90 88 90 88 83 76 85 94 97 97 97 96 95 96 95 95 96 96 96 97 98 99 99 99 98 97 96 96 95 94 96 98 94 95 96
100 94 87 88 93 95 92 82 85 89 92 92 90 87 87 89 89 94 96 96 96 96 96 96 96 96 96 96 96 96 95 95 93 95 94 97 96 99 94 93 92 92 96
96 92 88 95 94 94 92 87 92 92 94 93 94 92 95 97 96 98 96 96 96 96 96 96 96 96 94 90 80 78 88 96 96 95 95 93 92 90 93 93 89 90 93
99 97 92 92 92 93 89 84 88 89 91 94 91 91 94 96 96 97 97 97 96 91 58 61 73 76 76 71 68 70 64 69 88 93 95 95 92 91 92 93 94 94 93
100 100 100 96 91 89 87 89 89 91 89 93 92 88 95 96 96 97 97 90 52 21 18 18 30 42 51 58 64 67 65 60 59 75 91 96 90 90 89 90 92 93 93
100 100 100 99 93 91 90 92 88 82 86 87 86 85 92 96 97 97 94 28 18 16 16 16 16 17 21 28 37 42 50 56 50 43 54 83 91 90 89 88 89 91 91
100 100 100 100 96 94 93 94 95 94 87 91 83 56 71 95 96 96 69 25 20 17 15 14 14 14 14 16 16 18 20 25 26 34 39 40 48 65 78 84 86 86 88
100 100 100 100 100 95 94 94 97 95 88 87 73 44 44 29 53 90 96 95 37 18 16 14 14 15 15 15 16 16 15 15 15 16 20 23 19 19 22 30 49 64 76

GFSGL_850_rhum_009.txt.gz
RH
66 74 71 58 47 46 48 62 60 77 86 68 73 74 92 98 96 82 63 52 52 53 52 49 47 42 38 42 64 68 68 68 66 57 62 68 74 70 67 68 72 69 66
74 70 60 58 61 60 66 66 78 78 62 73 83 87 98 95 91 68 69 61 58 53 41 33 31 37 42 43 55 73 85 81 78 72 68 72 80 79 80 83 81 82 83
67 58 61 69 74 85 73 75 78 76 79 86 94 98 98 96 89 77 58 57 52 43 38 38 47 55 63 75 73 82 82 79 78 75 71 71 74 79 78 79 81 83 80
55 56 76 90 90 91 90 81 84 87 92 93 96 96 83 84 86 82 69 55 45 43 49 54 61 66 69 73 77 79 78 79 79 79 76 73 73 73 80 80 78 84 82
66 80 88 92 97 98 93 90 81 76 70 69 68 66 69 65 59 54 50 49 55 58 58 58 59 58 53 47 65 91 93 92 90 89 88 87 86 88 93 86 86 89 90
83 84 94 89 82 71 64 62 60 57 55 55 57 56 54 53 55 59 65 73 69 72 87 72 63 46 46 59 70 78 92 100 100 97 93 88 83 81 84 87 85 86 82
78 85 74 70 66 64 59 54 44 41 45 49 52 53 54 56 62 67 70 72 78 80 90 92 92 91 92 100 100 90 92 100 100 100 100 99 95 94 94 96 96 96 89
71 73 80 74 61 55 44 37 42 46 50 52 53 59 64 65 65 61 60 59 83 96 93 89 100 100 100 93 100 100 100 100 100 99 100 100 100 100 96 97 98 95 96
68 77 80 67 54 35 35 40 45 49 52 56 64 68 66 62 64 65 61 89 100 98 86 100 100 100 100 97 96 96 100 100 98 88 88 94 93 93 93 99 98 100 97
84 77 74 57 39 42 47 49 53 59 66 72 73 74 73 71 64 60 78 100 100 100 100 100 100 95 95 96 95 94 100 100 100 99 99 100 100 96 96 96 98 99 96
71 77 70 45 45 53 60 62 67 76 79 79 79 76 70 65 56 59 76 100 100 100 100 100 99 97 97 96 97 100 99 100 100 98 100 100 100 98 100 100 94 96 100
75 73 57 46 53 66 74 73 84 90 90 86 79 93 100 93 88 73 90 95 100 96 100 97 95 97 97 94 92 95 96 95 96 96 98 100 100 100 100 100 100 100 99
66 67 52 53 60 76 82 85 96 99 99 99 100 100 100 100 100 96 94 100 100 100 97 95 95 95 95 93 95 96 94 97 97 98 100 98 97 100 97 95 96 96 96
66 62 60 63 73 86 89 89 99 100 100 100 100 100 100 100 100 100 100 100 100 95 96 96 96 95 95 98 96 94 95 97 97 98 97 97 97 100 100 96 94 94 95
67 65 68 74 87 95 87 89 95 97 100 99 100 100 100 100 100 98 98 100 96 95 96 96 95 95 93 94 99 97 97 96 98 98 98 98 100 98 99 100 98 95 96
71 70 73 86 96 94 87 85 86 91 88 84 81 84 100 100 100 100 95 96 95 95 96 95 95 95 92 97 100 100 98 96 95 97 97 97 98 99 100 97 97 98 98
66 72 85 98 95 91 86 86 87 75 71 82 78 77 82 100 100 96 95 96 96 96 96 96 96 95 94 99 99 100 100 99 97 96 96 96 97 98 99 98 100 100 100
88 100 98 94 90 88 89 86 77 79 77 76 79 76 80 90 95 94 95 96 96 96 96 96 96 95 96 97 96 94 95 92 91 94 95 96 97 97 97 97 98 99 100
100 92 94 89 89 92 89 86 82 83 80 85 81 73 75 92 95 96 96 95 96 96 96 96 96 96 96 96 95 96 96 94 91 90 94 95 95 96 97 97 96 97 97
100 100 94 90 92 92 91 83 78 72 73 84 84 82 83 90 90 92 95 96 96 96 96 96 96 95 89 81 75 76 90 92 90 90 91 94 93 94 97 97 95 96 98
100 100 98 94 93 91 90 84 74 70 74 80 80 80 91 96 97 99 97 96 95 82 51 61 70 73 70 71 73 66 63 80 92 91 92 91 91 90 96 98 97 96 96
100 100 100 97 94 91 90 86 76 61 66 63 62 71 90 95 96 98 96 76 38 23 21 25 40 54 57 60 65 62 58 50 58 84 91 91 88 89 93 96 95 95 96
100 100 100 100 98 96 95 90 86 74 65 63 54 58 86 94 96 97 80 38 22 20 19 20 23 29 39 44 48 46 43 43 47 52 70 86 87 86 89 91 90 91 90
100 100 100 100 99 98 96 94 90 86 72 66 62 47 68 91 94 96 87 46 24 21 18 18 18 18 19 21 24 27 29 31 34 34 35 41 59 76 82 84 87 88 88
100 100 98 98 98 97 95 95 92 90 78 66 59 36 37 35 72 95 96 96 82 22 18 17 17 18 18 19 19 18 17 17 18 20 22 20 20 25 37 56 66 76 79
100 100 98 98 98 98 97 94 94 92 86 66 58 28 20 21 24 32 43 64 74 42 16 15 16 16 17 17 17 18 19 19 19 18 18 19 19 18 19 23 35 48 61

GFSGL_850_rhum_012.txt.gz
RH
78 81 84 80 73 79 83 87 93 94 88 86 87 98 99 98 98 95 96 96 91 84 79 71 61 58 59 56 57 63 62 58 52 45 45 45 50 56 60 63 62 62 62
78 82 82 83 85 87 95 97 100 100 97 98 98 97 94 97 98 98 98 94 81 77 76 69 61 53 61 61 62 62 59 59 58 55 51 51 53 55 60 65 65 59 58
76 73 78 87 90 98 99 100 100 98 98 99 98 97 96 97 98 98 96 88 80 75 71 67 65 70 71 68 69 68 64 60 58 57 54 52 52 54 56 60 64 64 65
76 78 78 97 100 100 95 91 90 93 94 96 94 92 88 80 74 73 74 76 77 72 77 83 83 84 82 79 72 68 64 62 59 58 55 54 54 54 56 57 57 60 62
83 81 85 89 85 79 76 74 73 74 67 65 65 70 73 74 70 61 75 83 78 78 80 81 80 82 85 70 79 78 71 67 62 59 57 57 58 59 60 62 66 71 70
80 82 82 80 78 74 75 68 62 57 60 63 66 69 74 74 77 62 61 81 79 74 72 74 77 80 80 86 93 98 100 100 90 87 86 84 76 74 76 80 86 88 83
80 79 79 82 77 72 64 52 55 61 68 71 73 79 81 80 81 63 54 55 84 84 84 81 77 71 79 86 95 96 98 100 100 100 100 95 90 88 89 91 94 92 87
77 78 84 77 75 66 55 57 63 66 69 71 77 81 83 80 85 67 59 71 94 92 88 84 80 80 89 98 100 100 99 100 100 100 99 98 95 96 97 92 90 93 94
76 81 83 78 74 57 57 64 69 71 73 76 84 87 88 93 100 73 62 100 98 97 97 98 100 100 98 96 99 96 100 98 96 96 92 87 85 85 86 97 98 97 93
70 77 76 77 71 60 66 72 77 74 75 87 100 100 100 100 100 100 100 100 100 97 100 100 95 98 94 95 95 96 100 100 97 99 97 97 97 98 90 96 99 97 93
70 76 78 77 66 66 71 75 79 79 92 100 100 99 100 100 100 100 100 100 99 100 100 99 99 97 97 95 96 98 100 99 100 100 100 98 98 100 99 97 97 93 97
85 85 81 75 71 72 77 78 81 84 93 94 93 95 97 97 95 97 97 98 96 99 100 100 97 94 94 94 94 99 93 93 97 98 97 97 96 98 99 98 99 100 98
96 88 78 79 79 82 84 84 88 90 96 98 100 97 89 92 91 94 94 93 97 99 97 95 94 94 94 97 97 95 95 99 100 100 100 99 98 98 96 95 95 99 99
90 79 79 81 83 85 86 92 88 99 97 100 97 92 92 94 97 100 100 100 99 95 95 96 95 95 95 96 98 96 100 100 98 100 100 100 99 94 96 95 95 95 95
78 77 84 94 96 94 92 89 98 100 98 99 98 100 100 100 100 100 100 100 98 96 95 95 97 95 96 97 96 100 100 100 100 100 100 100 100 100 98 99 98 100 99
71 88 93 92 100 100 92 94 94 96 92 76 78 84 100 100 100 100 96 96 95 95 98 97 96 96 98 99 100 100 97 100 100 100 100 100 100 100 96 98 100 99 97
67 79 100 100 100 100 100 100 100 100 96 94 94 85 88 100 100 99 94 95 95 95 96 96 96 96 97 100 100 100 100 100 100 100 100 100 100 100 97 94 98 95 97
78 95 97 100 100 100 100 100 100 100 100 100 99 95 92 98 97 92 92 96 96 95 95 96 96 96 98 100 100 100 100 100 100 100 100 100 97 100 100 100 97 95 95
100 100 94 94 99 96 100 100 100 100 100 100 99 97 100 100 100 98 95 100 100 96 96 96 96 99 100 100 100 100 100 100 100 100 100 100 100 100 100 100 100 97 95
100 100 95 100 100 100 100 100 100 100 100 100 99 100 100 100 100 100 100 100 100 100 96 100 100 100 100 100 100 100 100 100 100 100 100 100 100 100 100 100 100 100 99
100 100 100 100 100 100 100 100 100 100 100 100 100 97 83 100 100 100 100 92 61 51 52 80 94 93 87 93 99 100 100 100 100 100 100 100 100 100 100 100 100 100 100
100 100 100 100 100 100 100 100 100 100 100 100 100 100 96 100 100 100 100 73 28 23 25 30 44 48 49 51 53 64 99 96 95 82 100 100 100 100 100 100 100 100 100
100 100 100 100 100 100 100 100 100 100 100 100 100 100 100 100 100 100 95 67 28 20 19 20 22 22 24 27 31 33 34 35 36 38 45 100 100 100 100 100 100 100 100
100 100 100 100 100 100 100 100 100 100 100 100 100 100 100 100 100 100 95 94 84 27 18 18 19 20 21 20 20 19 20 19 21 23 22 27 46 78 100 100 100 100 100
100 100 100 100 100 100 100 100 100 100 100 100 100 100 100 83 64 56 70 91 92 73 19 17 17 18 18 18 19 19 20 20 19 19 19 21 20 22 28 80 88 100 100
100 100 100 100 100 100 100 100 100 100 100 100 100 100 98 74 30 34 39 40 35 32 27 20 18 18 18 19 20 21 21 20 18 18 17 18 18 18 19 21 23 82 94

GFSGL_850_rhum_015.txt.gz
RH
64 66 68 70 75 73 72 76 84 90 85 91 93 96 98 87 93 92 98 99 98 99 96 89 85 79 69 58 56 60 69 65 61 55 48 46 46 48 50 51 57 61 61
64 62 60 62 67 69 82 84 95 89 95 97 92 86 98 96 94 96 97 99 99 98 98 95 86 72 64 59 60 58 56 53 52 51 50 51 51 51 52 54 57 55 56
61 56 56 58 69 84 87 80 80 80 78 80 88 91 89 82 73 64 63 73 72 76 76 74 69 67 66 64 65 64 61 57 54 52 50 48 49 49 50 52 53 56 58
55 59 58 64 72 78 81 80 73 66 61 55 52 56 58 59 60 59 72 73 72 66 66 67 67 69 70 70 70 69 66 63 58 55 53 50 48 48 48 50 51 52 54
57 59 59 64 69 80 78 70 64 57 53 51 53 56 59 60 59 63 72 78 79 74 70 67 64 67 72 74 78 80 80 77 68 61 58 53 49 48 49 50 54 58 60
56 56 58 66 81 81 72 66 49 50 52 57 60 60 62 61 64 71 73 74 79 77 73 70 69 69 70 72 75 75 84 90 85 81 74 70 69 72 72 77 81 83 84
52 52 57 77 83 74 69 51 49 52 56 60 60 62 65 68 77 80 76 76 87 88 82 77 73 65 68 71 78 96 98 95 94 98 99 93 90 90 90 92 88 92 90
54 61 74 74 76 69 64 50 54 55 59 60 62 68 78 80 96 93 86 93 96 91 86 84 82 77 77 89 99 91 98 96 98 98 99 99 94 93 93 92 95 96 96
53 47 59 75 83 68 60 56 58 59 61 61 68 85 94 98 95 93 90 100 98 96 94 94 94 92 95 94 98 97 99 96 95 96 92 87 84 80 79 85 93 97 94
57 50 57 66 73 72 61 59 60 59 61 74 90 96 97 99 98 94 98 97 98 100 99 96 93 97 94 94 94 96 96 99 99 98 99 98 96 92 79 88 85 91 86
62 60 73 95 92 74 64 62 60 61 72 96 86 91 98 99 95 98 99 100 97 100 99 98 94 97 96 96 95 94 98 97 98 98 100 99 100 98 95 95 94 93 85
86 91 96 97 88 73 66 62 68 66 85 94 94 91 95 91 97 97 98 84 93 98 99 96 96 93 89 92 94 96 95 94 93 98 95 95 94 94 99 99 97 93 94
99 91 98 89 87 66 71 64 67 77 95 92 96 94 92 93 95 98 92 93 96 93 95 95 94 96 94 94 94 93 94 96 96 94 95 95 95 95 94 93 89 92 95
96 92 90 80 73 72 65 63 72 86 93 99 93 90 92 97 91 99 96 98 97 95 95 94 96 96 96 95 95 95 95 94 95 95 94 95 94 94 94 96 94 95 94
89 81 78 74 73 78 74 78 83 97 94 95 95 100 100 100 100 100 99 100 100 95 94 96 95 97 96 95 94 95 95 95 95 96 95 94 94 96 96 96 95 95 95
95 87 86 93 94 92 83 86 90 90 90 88 90 93 82 100 100 100 100 100 95 95 95 95 95 97 95 95 95 95 95 94 100 96 95 96 97 94 95 95 87 100 100
84 100 100 98 96 100 100 100 100 100 94 96 98 90 82 90 100 100 100 96 98 94 100 100 98 98 97 95 94 94 95 97 97 96 96 98 100 95 96 96 95 95 99
98 100 100 98 99 100 100 100 100 97 99 98 98 96 93 93 100 100 100 100 100 99 96 100 99 98 100 100 100 98 96 94 96 96 96 96 99 96 95 96 94 100 99
100 100 100 100 100 100 100 100 100 96 98 97 97 94 96 100 98 99 100 100 100 100 100 100 98 100 100 100 100 98 100 96 98 97 95 95 97 95 96 98 99 99 99
93 100 100 100 100 100 100 100 100 98 99 96 100 100 100 100 100 100 100 100 100 100 100 100 100 100 100 100 100 100 100 100 100 100 98 95 96 98 94 95 97 99 96
100 100 100 100 100 100 100 100 100 100 100 98 100 99 90 96 100 100 99 100 100 100 100 100 100 100 100 100 100 100 100 100 100 100 100 98 96 96 96 95 95 96 96
100 100 100 99 100 100 100 100 100 100 99 100 100 100 93 96 100 100 100 100 100 74 37 58 98 78 65 82 85 91 100 94 96 100 100 99 100 100 96 94 99 95 95
100 100 100 99 99 100 100 100 100 100 100 100 100 100 98 100 100 100 100 100 100 67 21 18 22 20 20 21 22 23 22 22 23 28 72 100 100 100 100 99 97 100 99
100 100 100 98 97 98 100 100 100 100 100 100 100 96 98 100 100 100 100 100 100 100 36 18 17 18 18 18 19 20 20 20 19 19 29 100 100 100 100 100 100 99 100
99 100 99 95 94 94 99 100 100 100 99 99 97 99 100 100 100 100 100 100 100 100 64 39 23 18 19 19 20 21 21 20 18 18 17 45 28 29 66 99 52 100 100
99 100 99 98 96 96 97 100 100 100 100 100 100 100 100 100 100 100 100 100 92 58 41 27 24 23 22 22 23 24 25 23 20 18 17 17 17 18 18 41 25 98 97

GFSGL_850_rhum_018.txt.gz
RH
59 63 63 59 58 61 71 76 76 66 71 73 81 84 78 76 79 79 78 72 74 76 78 90 97 97 98 96 86 74 71 80 89 78 69 58 52 53 61 65 79 70 59
61 61 57 55 56 64 72 70 70 76 82 81 75 74 76 77 80 78 70 65 70 80 78 78 78 70 73 72 67 67 67 66 62 62 61 58 55 51 50 50 53 56 58
60 53 53 56 60 65 71 74 85 81 69 65 59 54 53 54 56 57 59 65 68 68 54 69 69 71 69 69 68 66 67 65 65 67 65 60 56 53 49 47 49 51 55
54 56 55 56 57 66 70 70 79 72 63 54 52 53 54 57 58 61 64 65 64 61 54 61 69 69 68 69 78 80 76 77 75 69 65 62 59 55 54 52 49 48 47
53 52 52 53 58 67 72 80 75 64 50 51 54 58 59 60 61 61 63 68 70 69 65 63 74 74 70 69 70 73 73 69 66 80 84 82 75 67 65 69 73 75 75
62 64 60 61 80 77 70 74 71 52 53 54 58 60 62 68 69 70 78 80 82 84 77 70 87 87 78 82 95 85 73 72 78 86 85 85 83 79 77 76 78 80 81
59 58 57 84 88 76 76 73 75 55 58 57 60 62 66 74 80 82 91 96 90 81 88 93 91 93 91 95 95 93 91 96 97 95 88 80 82 79 79 78 74 80 86
41 42 60 64 79 74 74 75 69 60 58 59 63 64 70 68 75 88 86 85 78 79 86 85 84 84 86 82 81 79 74 75 80 83 95 95 99 94 97 93 93 93 88
43 58 64 69 79 87 80 95 69 61 61 64 77 74 80 82 81 92 97 93 91 86 77 86 90 82 83 88 93 90 81 79 82 90 97 97 94 93 95 94 91 89 82
55 78 78 93 90 80 78 92 61 63 67 69 71 74 77 82 87 94 98 98 97 96 82 83 81 87 97 95 98 97 97 94 85 79 74 73 77 81 82 85 94 98 93
62 77 82 91 98 88 86 74 67 69 78 72 73 77 79 78 94 98 95 99 99 91 88 91 88 96 97 98 92 89 88 96 95 89 86 84 87 88 90 94 93 95 97
74 75 84 89 98 88 82 80 69 70 70 73 77 81 85 98 97 87 100 99 89 92 96 95 96 92 95 93 94 95 94 95 93 94 94 95 95 96 97 96 96 97 97
79 86 89 89 87 86 86 65 63 69 81 79 83 90 87 82 82 94 92 84 92 95 98 95 96 97 95 94 96 95 96 95 97 97 95 95 96 93 92 95 94 96 95
84 86 87 78 77 74 72 70 73 79 78 84 92 86 82 84 79 86 91 94 96 94 95 95 97 96 95 96 97 95 96 96 96 96 95 96 96 96 96 95 96 94 94
88 86 85 89 86 83 81 81 87 86 87 92 84 88 90 82 86 100 100 99 99 97 95 96 95 94 94 94 94 94 96 94 96 96 96 97 96 96 94 95 94 87 92
83 78 79 86 87 86 94 89 89 91 94 86 91 91 86 86 95 100 100 100 99 96 98 97 95 95 95 96 96 95 95 97 96 97 96 96 94 95 95 96 96 93 97
97 78 95 93 90 97 100 100 99 95 94 93 96 90 95 97 100 100 100 100 98 96 96 97 96 96 96 95 97 96 96 98 96 97 96 97 93 95 97 94 97 94 96
88 84 96 95 96 100 100 100 100 96 91 92 96 95 100 98 81 98 99 99 97 99 97 99 97 98 96 96 96 97 98 98 93 95 95 97 96 96 97 93 92 93 99
95 92 100 100 100 100 100 100 100 97 94 91 92 94 97 85 85 96 98 97 99 100 95 99 98 98 99 99 97 94 100 100 99 94 97 99 99 96 94 94 93 93 94
92 93 100 100 100 100 100 100 100 96 94 90 90 93 93 89 85 95 96 97 98 90 83 90 100 97 94 93 96 95 95 97 96 95 95 97 99 98 96 95 94 95 93
98 96 100 100 100 100 100 100 100 100 97 94 91 92 95 92 93 94 98 97 100 71 48 44 81 60 44 51 56 66 68 56 63 70 92 95 98 95 97 95 96 95 95
94 100 100 97 98 98 99 100 100 97 97 96 96 94 91 96 99 92 97 100 100 95 51 23 26 25 23 24 26 25 22 21 22 27 67 88 94 94 97 98 95 93 95
100 100 100 98 94 92 93 98 99 98 96 97 96 93 94 94 95 94 98 100 100 99 83 31 20 19 19 19 20 21 20 20 19 19 40 64 91 77 96 96 100 99 93
100 100 100 97 95 91 92 93 94 100 96 96 94 94 94 95 95 95 94 99 99 86 81 65 38 23 20 20 21 22 23 22 20 18 22 39 48 45 68 77 91 100 96
91 93 96 93 93 90 90 92 94 100 98 94 94 95 97 97 97 99 96 98 94 71 51 38 28 26 25 25 23 24 26 25 22 19 18 19 21 22 29 43 44 80 82
92 92 98 95 94 92 92 93 96 100 100 100 98 99 98 96 97 100 99 90 83 66 46 46 40 36 35 31 26 26 28 28 24 20 19 17 16 16 16 18 23 31 38

GFSGL_850_rhum_021.txt.gz
RH
56 59 56 59 48 53 57 60 62 64 44 71 73 68 64 58 55 55 58 60 62 76 89 84 78 80 85 88 91 88 87 94 90 82 73 66 63 62 69 60 58 89 91
51 55 60 53 52 55 57 58 60 56 52 67 68 65 56 52 54 56 60 60 62 72 74 71 60 47 60 73 75 72 70 65 68 71 78 71 63 59 57 55 52 52 68
49 56 54 56 54 57 57 57 63 58 63 68 64 52 52 55 57 59 61 64 67 65 63 62 59 55 49 62 70 69 69 78 80 78 75 67 62 61 58 52 49 47 46
44 54 59 63 74 68 70 67 80 62 72 62 51 51 52 57 60 64 67 65 63 65 73 75 73 68 62 72 79 75 74 73 74 77 68 59 58 61 52 60 61 61 60
50 52 55 63 68 79 81 74 78 65 66 53 53 53 58 61 62 63 66 69 70 73 80 79 67 65 96 92 94 95 94 93 84 79 71 70 73 65 66 74 82 79 75
40 41 48 64 75 80 80 96 97 78 62 56 56 57 62 64 65 69 75 74 76 76 73 64 63 86 97 96 98 94 98 97 94 87 88 86 84 71 69 68 68 73 74
40 42 53 54 60 77 92 99 97 88 62 61 59 63 67 69 75 85 84 75 82 86 78 73 71 77 82 82 85 92 90 89 91 92 96 88 82 68 84 87 84 86 82
40 42 48 56 70 66 64 98 96 92 70 62 66 70 74 80 81 74 86 92 90 96 92 85 77 79 86 87 88 82 80 83 84 81 80 78 93 82 89 95 92 91 97
44 50 56 60 62 76 89 86 93 87 76 77 74 74 72 76 71 80 87 92 92 88 86 82 89 92 85 88 88 94 84 83 80 87 94 96 93 96 95 96 92 96 91
52 58 67 64 81 86 90 74 70 78 77 71 70 72 78 69 79 97 93 97 97 92 87 79 82 90 96 97 98 94 82 73 78 76 76 72 77 74 72 77 83 92 94
59 64 64 73 76 84 92 93 92 85 72 70 73 76 68 68 88 93 92 100 99 99 91 89 91 95 91 93 95 98 95 96 98 92 89 90 95 96 96 96 95 96 98
68 63 68 75 82 89 95 84 70 68 68 72 75 69 70 70 71 57 74 84 98 100 94 93 97 98 96 93 95 96 97 94 96 96 97 95 95 96 96 98 97 97 96
64 71 73 79 78 82 79 74 73 74 76 77 74 78 72 77 68 70 86 89 88 96 96 98 97 96 95 96 96 97 96 97 97 97 97 96 96 96 96 96 95 94 94
74 78 76 80 91 90 86 84 78 77 81 80 83 78 83 82 76 89 95 94 90 92 94 94 97 96 96 96 95 95 95 94 95 95 96 96 96 95 97 97 97 93 89
84 75 63 65 84 86 87 86 93 88 82 86 87 92 86 85 84 100 100 99 98 98 94 95 94 94 94 95 95 96 95 94 95 96 96 94 95 96 96 98 98 98 98
96 68 60 54 81 91 92 93 91 87 89 89 93 94 89 86 96 100 100 100 99 97 92 95 96 96 95 95 95 95 95 96 96 98 97 95 94 97 95 94 96 97 99
90 86 73 80 96 96 96 100 100 92 92 89 91 97 93 92 100 97 99 99 93 98 90 95 96 97 95 94 96 99 99 99 96 96 96 96 97 98 94 92 92 90 96
100 82 96 95 98 100 99 100 100 95 94 90 92 96 94 99 96 76 100 89 82 63 73 92 100 99 94 92 93 97 98 96 93 96 96 97 98 98 93 89 90 93 96
95 96 98 100 100 100 100 100 100 99 97 96 93 96 99 100 90 73 86 90 94 73 43 61 84 86 82 79 80 86 91 90 88 94 98 97 96 98 99 98 92 95 93
95 94 100 100 100 100 98 98 100 98 98 98 95 94 95 96 92 90 83 88 93 86 36 26 48 44 40 45 46 50 43 31 48 78 96 96 93 98 100 100 98 100 92
94 100 98 100 100 98 97 97 99 98 99 95 94 95 95 94 92 94 96 87 88 89 80 29 21 20 21 23 26 24 22 21 22 48 82 91 89 94 99 97 96 99 96
93 96 98 98 97 95 93 92 94 94 92 91 98 94 94 92 95 98 97 92 89 78 84 66 28 20 19 19 20 21 21 20 19 22 50 67 64 90 97 95 100 92 93
63 73 95 100 100 96 94 90 91 93 94 94 94 93 93 94 94 97 99 93 88 86 63 70 57 37 24 21 22 22 24 24 22 19 22 41 38 46 77 79 98 96 86
92 94 93 98 99 92 91 90 94 92 93 93 93 100 99 98 96 96 97 96 91 74 58 44 41 28 26 26 25 24 26 27 25 21 20 23 23 25 32 48 81 90 66
100 100 98 97 95 93 94 92 90 92 96 96 95 94 95 95 95 96 96 95 95 78 58 42 48 43 38 40 31 26 28 30 27 23 21 20 18 20 18 24 26 36 34
100 100 100 91 95 95 94 94 90 95 98 100 99 98 99 98 96 96 97 96 96 90 69 56 52 70 87 92 86 56 41 40 35 24 19 17 16 16 18 19 20 21 22

GFSGL_850_rhum_027.txt.gz
RH
44 42 43 52 57 57 58 61 68 69 73 80 83 94 97 82 65 52 53 50 48 53 63 70 68 67 64 58 54 56 60 57 59 65 78 76 77 76 66 57 56 65 62
42 41 41 51 56 42 39 49 72 74 72 77 81 89 95 74 64 54 52 57 58 64 69 71 71 73 70 65 64 62 63 60 64 69 68 82 84 81 78 70 68 62 55
39 40 45 43 37 30 33 32 35 54 67 68 61 98 77 66 73 62 58 60 68 73 79 82 79 70 70 67 60 55 72 88 95 100 86 84 81 78 76 66 60 56 48
41 41 38 35 32 38 42 45 48 48 66 79 87 98 87 88 88 63 66 71 78 86 85 74 77 82 81 78 70 64 91 100 100 99 99 98 93 84 80 73 65 58 53
36 33 35 38 44 46 50 53 40 54 98 96 98 95 89 85 76 74 77 83 82 70 73 81 85 89 97 92 84 91 89 90 94 95 96 97 95 95 87 82 77 68 58
33 37 42 47 50 56 57 46 51 70 99 98 98 85 85 80 77 79 76 67 71 78 87 88 88 84 76 80 70 94 100 95 89 90 90 96 86 84 87 85 83 77 71
41 44 50 55 60 62 50 60 58 84 95 94 81 87 86 86 79 73 65 65 63 72 78 87 90 82 78 80 81 81 87 97 96 97 98 96 93 82 80 81 76 76 74
47 54 59 62 62 56 59 73 67 74 83 83 85 83 85 78 74 66 60 56 48 57 69 72 81 84 88 100 96 97 88 86 92 94 95 95 98 93 94 88 85 91 88
55 57 62 62 61 65 80 92 88 87 92 89 93 85 80 77 69 62 55 51 56 63 68 78 96 96 97 99 98 97 94 81 78 82 85 82 83 97 95 98 99 100 96
56 64 66 68 72 69 82 91 90 89 94 99 88 83 82 73 65 57 47 57 66 71 75 82 90 94 99 97 95 93 94 90 92 88 91 96 92 80 76 89 95 93 81
69 71 72 77 76 70 76 84 84 83 92 84 87 85 78 73 64 55 49 65 90 89 89 89 93 100 100 95 96 96 99 94 91 96 94 96 96 97 94 87 83 84 82
78 80 85 88 83 81 85 87 85 87 91 92 88 82 80 75 71 64 54 75 96 94 91 90 100 100 100 96 95 98 94 95 96 96 95 94 95 96 96 97 97 98 97
85 93 98 97 87 79 86 95 97 95 95 92 81 82 79 78 77 71 58 74 83 92 93 91 94 94 94 94 96 96 94 95 96 95 95 95 96 96 95 96 95 93 94
99 100 100 99 85 64 70 91 97 99 95 86 87 85 84 81 79 71 74 81 75 76 77 83 92 93 92 93 95 95 95 96 97 97 96 96 96 96 96 96 97 95 97
96 99 97 98 90 71 92 100 100 100 95 91 90 87 86 84 85 91 100 75 77 60 37 52 77 77 54 60 73 89 89 93 92 95 94 95 96 96 96 96 96 95 95
98 100 96 98 96 95 99 100 100 100 98 97 94 89 88 88 86 94 89 70 75 67 22 28 45 54 56 61 67 72 80 83 94 96 97 97 96 95 96 96 97 97 98
98 100 96 94 98 99 99 100 100 98 98 96 94 90 89 92 93 92 90 78 70 75 28 18 35 37 36 50 56 65 60 64 87 97 96 96 97 96 96 95 96 97 96
99 99 99 98 97 97 100 100 99 98 95 94 94 91 89 91 94 93 92 90 67 67 76 28 19 21 21 32 35 32 23 28 56 94 96 96 98 96 96 96 95 95 95
100 99 98 100 97 97 100 96 95 93 93 95 95 92 94 96 94 93 94 94 86 67 73 71 29 18 18 20 23 23 22 21 32 78 94 93 95 96 96 97 98 98 94
99 99 100 100 96 94 100 96 95 89 93 94 93 98 92 97 92 94 95 93 91 79 70 68 73 42 23 20 20 22 23 22 19 30 57 70 78 92 96 94 93 90 90
100 100 100 100 100 96 99 99 100 98 95 94 92 97 95 94 94 96 97 95 92 88 78 60 50 54 50 37 30 26 25 26 24 20 23 42 46 51 87 93 96 95 86
99 98 99 81 78 78 94 97 98 96 93 95 91 94 94 94 95 96 94 92 92 86 81 62 42 40 36 29 28 29 33 28 29 25 21 23 28 30 40 63 65 87 73
99 98 98 96 94 94 94 94 97 96 95 92 90 94 97 96 95 95 91 92 90 89 87 74 51 48 50 52 49 44 32 28 32 31 23 21 20 20 20 23 29 38 39
98 98 98 98 100 98 94 94 93 93 93 96 97 94 98 98 93 94 90 90 87 87 86 85 77 66 58 70 85 87 82 52 44 47 40 22 17 16 16 17 20 20 20
96 97 99 100 100 98 97 94 97 95 92 91 94 95 97 90 90 90 89 89 84 82 82 84 86 84 77 78 86 88 90 82 80 82 78 54 29 17 16 19 25 27 24
90 92 92 96 96 96 97 96 96 97 94 92 92 92 93 96 99 94 82 82 80 79 81 85 88 87 87 86 88 89 88 86 86 83 74 61 34 19 20 24 27 29 29

GFSGL_850_rhum_030.txt.gz
RH
45 44 41 44 53 53 35 31 32 34 33 38 59 72 74 82 93 96 75 65 59 59 65 68 71 73 74 79 79 70 65 63 70 63 59 53 55 62 78 79 74 60 44
40 41 45 45 38 33 36 41 44 47 45 46 71 82 90 90 89 79 84 86 64 67 70 73 76 81 85 76 76 76 69 62 69 88 68 62 68 68 97 86 71 62 54
41 42 39 33 35 38 45 49 50 45 35 42 86 97 100 100 91 90 87 78 71 74 78 85 84 74 79 84 88 88 80 73 89 95 89 87 90 89 87 86 81 71 63
40 33 33 36 42 46 51 50 48 38 44 58 88 89 98 98 91 82 80 76 78 83 76 64 68 83 92 95 96 96 98 97 94 90 84 94 94 87 98 95 88 81 69
33 33 40 45 49 54 52 49 43 46 58 90 98 94 99 84 82 81 81 82 75 64 54 54 69 84 100 100 100 99 100 97 95 92 89 88 90 84 96 98 96 90 76
35 42 45 49 55 53 52 53 52 56 87 97 91 82 82 83 85 86 74 70 61 50 44 50 62 66 69 89 85 94 100 99 96 96 93 96 88 85 82 90 96 96 86
40 44 51 57 56 54 61 60 73 67 76 79 82 81 84 88 82 77 68 55 44 43 56 64 70 74 82 86 85 89 90 91 96 96 97 96 97 96 93 92 94 96 84
45 53 57 59 57 59 65 66 92 94 81 85 83 88 92 85 82 70 56 44 43 53 61 73 81 84 89 98 97 98 96 90 95 95 89 84 84 80 93 98 95 98 93
55 57 62 64 59 65 68 70 84 94 99 95 90 96 89 86 74 64 53 43 50 56 66 77 88 92 94 96 96 98 93 94 96 96 96 95 94 93 77 95 98 99 99
55 60 63 68 73 77 69 70 84 92 89 95 100 93 91 80 73 64 59 51 55 60 70 78 82 90 100 97 96 96 95 95 88 85 93 96 97 93 92 81 82 98 100
51 52 65 85 90 88 82 76 82 85 84 95 92 94 86 77 74 69 67 65 68 69 81 80 82 99 100 100 98 96 96 96 94 95 96 96 96 96 97 97 91 80 77
46 53 81 96 95 93 86 90 93 96 96 97 96 91 82 82 79 74 72 59 68 68 69 74 82 100 100 95 96 100 95 95 96 94 93 93 94 95 96 97 97 95 95
46 63 87 93 96 94 85 74 90 98 99 99 96 88 87 89 83 83 74 48 56 63 48 38 63 83 80 68 90 98 94 93 95 93 93 93 95 94 95 94 96 96 94
72 85 90 92 94 96 83 74 93 100 99 97 93 94 92 90 85 85 73 59 49 62 47 18 32 71 50 49 59 76 86 91 96 96 95 96 97 96 96 96 96 96 96
80 90 92 97 96 97 92 91 100 100 98 98 99 97 95 90 88 84 93 79 52 56 58 16 19 22 25 33 39 55 66 76 92 94 94 95 96 96 96 96 96 96 97
83 92 97 95 99 97 95 94 100 99 97 99 100 98 96 91 90 88 88 80 65 47 64 37 17 18 19 27 28 29 24 45 81 94 96 96 96 94 93 95 97 97 96
90 90 96 94 93 95 95 98 94 95 98 99 98 97 93 95 93 93 89 84 77 52 60 67 30 18 18 21 23 23 20 22 48 95 96 95 95 97 93 92 96 97 96
91 90 91 93 98 96 94 98 96 92 92 95 93 98 94 95 98 94 92 89 88 63 43 64 64 32 19 19 20 21 21 20 26 67 92 94 95 94 92 92 93 92 92
93 88 95 94 97 99 97 95 98 96 90 93 92 94 96 96 98 96 93 91 88 81 54 42 60 68 44 26 21 22 24 25 22 21 46 62 75 87 94 95 95 95 91
97 93 95 98 97 100 99 100 100 100 95 94 92 91 94 98 96 98 94 92 89 83 77 55 42 45 52 50 43 44 42 31 27 24 22 35 45 49 78 88 88 87 84
98 96 91 98 96 91 85 93 90 98 98 98 99 98 98 95 92 95 93 94 89 82 79 74 54 40 40 36 31 30 31 34 34 30 24 22 26 28 36 63 61 79 81
96 96 94 98 98 95 84 85 86 94 95 95 90 90 96 95 91 93 95 94 91 86 82 78 72 54 52 52 57 54 47 34 31 34 27 23 22 21 21 27 35 50 42
92 92 92 97 97 97 95 95 94 94 92 90 91 92 91 92 97 93 92 92 90 88 85 80 79 74 71 62 69 81 84 78 56 45 49 33 20 17 17 17 19 22 22
93 90 90 92 97 95 96 95 96 97 96 95 91 90 93 93 92 94 91 88 89 90 85 79 78 78 79 77 76 84 87 88 81 78 81 76 54 26 16 18 24 25 24
97 95 90 98 98 98 97 95 95 96 96 96 96 94 91 89 91 94 89 91 89 88 81 78 78 81 82 82 81 86 88 87 84 83 84 78 63 40 39 26 27 28 28
100 100 100 99 99 98 98 97 97 97 97 97 96 95 92 90 92 92 94 97 90 82 81 79 80 83 86 84 83 85 89 90 87 79 70 61 42 29 22 24 26 28 28

GFSGL_850_rhum_033.txt.gz
RH
51 43 42 46 44 38 32 32 38 39 42 41 34 42 67 83 92 99 92 81 75 74 74 68 72 74 86 98 99 92 87 86 82 71 73 77 86 89 89 86 82 82 77
42 41 41 39 32 29 30 38 49 50 41 37 38 49 84 91 97 94 97 82 84 81 82 75 80 96 96 97 96 94 92 91 92 83 77 80 84 89 93 93 92 83 78
42 41 35 32 30 39 48 54 49 38 39 42 55 80 93 89 97 99 97 86 78 78 80 84 80 96 98 96 98 98 97 98 96 92 90 81 79 89 96 92 89 88 84
38 33 32 34 43 49 56 50 36 42 46 50 87 99 95 99 93 83 77 78 82 82 74 64 54 80 96 98 100 100 98 99 96 93 87 85 84 87 96 91 90 85 83
34 32 37 45 50 55 53 37 43 48 57 58 80 90 83 85 80 78 83 79 74 64 50 40 42 51 58 78 100 100 100 99 100 95 89 85 80 81 85 89 94 100 98
34 36 44 51 55 54 43 45 53 62 73 70 77 81 80 77 82 85 78 76 57 45 37 43 54 59 95 79 75 80 88 100 100 97 90 94 86 89 86 92 92 95 92
35 41 51 57 53 47 49 57 61 66 85 86 83 81 83 86 87 81 79 59 47 39 45 54 81 100 97 100 99 95 100 95 95 94 100 98 92 91 90 96 96 95 85
40 52 56 50 50 56 61 65 62 71 89 93 100 91 90 92 85 84 66 54 46 43 52 72 100 100 100 100 98 100 100 100 98 95 97 99 100 96 99 98 99 98 98
45 47 47 51 58 66 72 72 64 74 87 89 86 92 98 92 89 75 64 52 48 47 59 100 100 100 100 99 100 100 100 99 97 98 88 93 92 92 95 98 100 99 95
38 42 46 49 62 82 85 80 71 74 88 94 99 100 96 94 84 71 63 58 55 66 89 99 100 94 100 100 100 100 100 100 100 100 100 100 97 94 96 97 99 100 91
39 40 40 44 68 91 90 84 78 82 86 87 97 96 96 90 77 72 67 66 82 92 97 73 57 54 100 100 100 100 97 92 95 100 100 100 100 100 98 96 97 98 100
39 39 41 46 72 88 89 87 82 82 94 97 98 97 93 85 78 76 73 72 53 63 75 46 25 39 75 54 56 72 78 84 93 98 100 100 100 98 97 95 96 97 96
39 42 48 60 80 90 93 91 81 74 96 99 96 93 88 86 84 81 77 74 64 52 62 46 19 21 35 38 43 53 65 70 90 99 99 98 97 96 96 96 96 95 94
40 49 68 79 87 91 95 96 88 88 96 98 94 97 100 90 88 85 84 73 70 57 52 54 23 21 23 29 30 39 41 59 89 96 96 96 97 96 96 96 96 96 99
49 61 75 86 87 91 97 98 94 91 98 100 100 100 99 96 91 90 88 84 82 73 47 60 44 21 19 21 23 21 20 35 72 90 94 94 94 93 95 96 96 99 97
61 74 82 87 87 88 94 97 95 92 92 97 95 99 94 95 94 94 90 84 84 79 53 51 60 43 23 20 21 22 21 20 36 81 91 94 94 94 92 97 95 95 98
78 84 84 86 92 89 90 95 98 97 93 85 90 93 94 95 95 97 92 91 90 84 69 46 57 60 43 25 21 22 24 23 22 52 75 85 91 95 97 100 98 98 100
84 87 93 93 94 100 93 93 97 100 100 90 84 93 91 94 94 96 98 95 91 86 81 64 46 55 63 52 42 34 29 27 26 22 29 45 59 76 91 96 100 89 96
82 89 92 90 92 100 98 97 98 99 99 96 96 90 89 95 95 96 100 99 93 88 85 79 63 48 47 49 48 47 52 50 39 30 24 28 36 39 62 86 88 88 83
88 87 92 94 91 95 99 96 88 77 96 100 100 99 90 96 93 92 96 96 93 91 85 79 74 63 49 47 43 37 35 35 36 36 30 25 27 29 33 55 62 70 86
88 89 89 90 91 94 99 97 88 75 73 88 94 92 96 99 99 91 93 93 93 93 86 80 76 72 61 56 56 57 57 52 42 37 35 28 26 22 23 31 38 55 50
93 93 92 86 90 94 98 98 97 90 85 84 84 84 91 94 94 92 89 91 91 93 91 84 78 76 72 68 64 67 76 76 68 55 47 45 30 20 19 20 24 27 27
86 99 98 86 88 89 96 95 96 95 94 93 92 91 90 88 91 91 87 89 94 90 88 86 79 78 76 73 73 71 78 83 83 76 75 75 63 39 19 20 23 23 23
82 86 100 94 98 93 97 98 97 95 96 96 95 96 96 95 92 86 91 92 93 90 88 89 83 77 76 76 77 75 78 84 84 79 79 80 70 52 44 31 28 29 29
100 100 100 100 97 97 95 95 96 97 98 97 96 97 97 96 96 94 86 89 93 91 85 88 85 77 76 78 79 80 80 84 86 82 81 74 64 47 35 32 34 34 31
100 100 99 100 99 98 96 98 98 98 97 96 96 96 96 97 96 96 92 92 93 93 92 84 81 82 82 82 83 83 82 84 87 85 76 65 56 42 32 29 30 31 31

GFSGL_850_rhum_039.txt.gz
RH
65 52 46 61 56 54 53 55 55 59 58 57 61 69 71 69 86 76 90 91 89 95 94 92 89 86 79 73 62 59 56 54 57 58 55 60 72 74 72 72 72 74 69
60 72 69 55 48 51 54 54 57 62 61 62 69 74 78 87 90 95 90 80 90 95 84 77 65 61 66 64 61 58 57 56 57 61 66 76 81 79 73 73 73 70 76
71 60 48 48 52 50 49 56 62 64 64 70 71 76 86 93 94 93 94 94 87 80 74 69 68 69 69 66 69 70 68 64 65 79 86 85 83 78 75 73 73 73 73
55 43 38 46 52 51 54 63 66 67 74 75 76 80 88 92 85 85 74 83 77 65 70 71 71 69 70 84 81 82 76 77 81 88 88 86 76 82 82 82 81 79 75
47 39 40 47 55 57 65 70 68 73 79 78 76 82 92 83 75 78 76 80 72 68 69 68 64 67 70 78 92 92 95 92 92 91 86 92 93 91 86 76 82 72 83
42 45 45 48 56 61 67 71 68 71 74 71 78 86 93 83 89 74 76 78 81 69 69 69 69 70 71 80 96 97 91 99 96 97 96 92 83 85 94 97 92 85 80
45 45 47 56 60 59 59 63 65 70 76 79 86 89 94 97 88 85 85 80 84 78 78 78 75 68 78 85 92 90 97 96 98 100 99 98 97 96 92 95 86 96 93
46 44 47 57 58 57 59 63 70 77 80 76 89 87 94 96 92 85 84 79 85 84 84 82 78 80 82 84 71 100 100 97 95 96 96 96 93 91 92 93 98 90 85
47 44 48 51 56 57 60 64 76 77 77 80 92 88 99 99 96 86 86 82 94 93 91 83 88 87 89 58 37 100 98 88 92 88 86 95 86 82 85 96 87 94 87
42 46 50 54 58 58 64 70 78 77 75 79 93 93 99 100 91 93 88 82 98 99 92 87 88 91 82 34 24 94 100 95 88 91 96 96 96 95 96 97 96 95 96
43 57 60 59 59 66 74 80 80 76 81 88 82 90 94 97 97 96 93 80 93 99 99 93 91 92 56 28 21 39 89 39 74 100 96 100 96 97 99 97 97 96 98
61 66 63 63 69 74 79 81 77 76 83 96 97 88 89 87 95 95 94 84 76 73 99 100 100 51 50 33 31 44 36 68 99 95 99 99 96 97 100 97 96 96 95
44 38 63 70 73 76 80 74 75 82 86 98 99 99 90 95 96 97 91 90 87 75 97 96 62 48 55 63 85 77 74 98 96 98 98 100 100 99 100 93 94 98 96
43 68 74 76 77 80 80 72 75 92 97 99 98 92 94 96 96 99 97 90 93 97 100 100 73 87 93 94 88 94 96 97 94 95 98 100 100 100 99 94 91 92 94
61 76 79 84 89 83 77 75 81 93 96 99 94 95 93 95 98 98 94 97 96 98 90 75 100 97 98 96 93 93 94 93 90 92 99 97 94 97 96 97 96 92 96
44 62 92 90 94 90 86 90 95 93 94 93 93 90 82 73 76 91 91 90 88 89 85 100 100 100 100 100 96 94 96 96 98 98 99 98 98 97 96 100 100 100 99
44 50 59 71 76 86 100 98 94 91 97 90 93 97 92 85 74 91 90 92 94 100 95 100 100 100 100 99 94 93 94 99 90 100 100 100 100 100 97 97 99 96 100
58 67 83 99 100 100 99 100 92 98 92 99 90 97 97 96 92 86 90 94 97 96 99 100 99 99 100 97 93 95 100 100 100 100 100 100 100 100 100 95 94 96 97
76 96 95 97 97 100 100 100 99 98 91 97 99 99 95 95 95 96 94 97 99 96 94 95 96 98 100 98 98 98 100 100 99 97 100 100 100 100 100 99 99 93 92
83 85 94 96 93 91 93 95 100 95 90 90 96 98 94 94 94 92 93 95 88 88 90 93 94 98 100 99 100 100 100 97 98 100 100 100 100 100 100 100 100 99 93
84 88 96 95 97 98 99 97 100 98 85 87 94 94 94 97 98 98 98 97 92 92 91 90 94 96 97 100 100 100 100 100 100 100 100 100 100 100 100 100 100 99 96
85 95 100 99 96 96 96 96 99 98 93 90 90 94 96 95 95 100 100 99 93 91 92 93 91 93 98 100 100 100 100 100 100 100 100 91 98 100 97 100 100 100 99
98 100 100 100 100 98 95 92 92 97 94 88 90 94 95 95 98 98 96 96 97 96 96 92 91 94 100 100 100 92 100 100 100 98 80 75 99 100 100 100 100 100 100
96 86 100 100 96 96 94 92 94 96 96 94 90 92 94 95 95 96 98 98 98 96 96 96 99 95 96 100 100 86 76 77 73 69 70 73 77 100 100 100 100 100 100
98 97 98 97 96 94 89 89 91 93 95 95 94 92 91 92 93 95 96 96 98 97 96 96 96 95 93 100 100 93 83 70 73 73 72 75 74 69 62 56 79 82 100
97 97 97 97 96 93 94 99 96 96 96 96 95 95 92 90 86 87 90 94 96 96 98 97 96 96 95 96 95 100 95 77 87 82 78 78 77 80 100 100 84 59 100

GFSGL_850_rhum_042.txt.gz
RH
69 70 62 65 61 60 62 54 58 57 57 58 56 58 70 72 75 76 83 79 81 89 89 84 82 78 79 79 75 70 66 65 67 66 63 63 68 67 55 68 68 61 61
70 65 63 58 61 58 54 56 55 58 61 58 58 67 73 79 76 68 74 82 74 74 83 81 79 78 70 70 68 66 67 65 68 70 72 75 83 71 74 72 76 74 65
66 67 64 59 52 54 52 51 55 62 61 57 64 73 75 82 78 86 74 90 93 85 75 74 73 70 69 70 70 73 63 75 81 84 82 77 77 72 76 77 73 85 83
65 59 53 57 49 52 52 52 60 62 58 69 76 76 78 81 79 83 88 91 83 73 67 68 69 69 67 68 67 64 76 80 80 84 82 76 76 78 82 84 88 77 76
60 51 54 43 47 54 54 58 62 68 66 73 76 73 78 78 85 81 78 68 64 65 65 69 69 67 69 69 72 82 90 91 84 86 87 91 88 75 84 95 88 93 73
53 48 44 51 49 57 58 63 66 64 68 70 73 76 84 76 92 89 82 78 76 69 73 75 76 75 67 71 85 93 95 89 90 95 90 89 74 97 96 87 91 83 92
47 54 55 52 54 58 60 60 59 63 68 76 74 80 84 79 84 90 89 86 74 67 83 83 83 78 78 82 77 74 46 67 91 93 98 98 94 90 82 77 76 82 80
57 53 53 49 54 58 56 57 60 64 72 75 78 81 93 87 91 97 94 85 84 72 89 91 86 84 86 76 72 61 24 62 89 90 97 97 89 76 80 91 92 86 78
51 67 47 49 51 52 59 58 60 67 75 77 76 81 88 89 100 100 96 96 88 72 83 83 92 89 85 84 78 40 22 29 77 85 63 68 84 88 96 98 89 96 84
48 46 63 50 53 57 59 60 69 74 79 76 76 80 80 81 92 100 97 84 86 78 84 94 89 91 90 84 61 34 23 33 30 45 75 86 85 95 96 97 94 93 93
69 77 59 57 64 65 70 78 76 73 77 78 81 85 86 80 86 95 98 86 84 81 74 71 96 98 87 57 48 39 37 47 63 74 86 83 92 90 89 88 93 99 97
75 54 38 65 76 80 80 77 77 78 78 82 85 97 95 80 81 81 81 86 84 83 77 70 80 77 61 54 56 59 78 76 87 82 82 90 86 90 90 94 91 92 97
50 31 24 34 74 75 76 79 80 74 76 77 83 90 86 84 88 100 98 97 86 83 84 79 81 72 74 81 80 88 95 89 95 78 85 87 87 89 92 93 89 86 83
32 28 49 74 73 73 70 76 78 75 79 85 79 86 84 87 84 92 92 89 99 90 86 92 91 81 93 96 95 96 92 90 96 95 87 79 88 89 89 92 93 88 86
38 42 51 49 49 64 86 84 81 80 84 92 91 86 94 96 94 97 89 90 98 99 98 93 88 83 100 89 87 90 89 88 93 94 80 93 94 88 82 91 95 90 90
38 38 39 46 53 57 62 59 66 81 86 85 86 92 91 92 94 91 81 77 98 96 94 90 87 91 97 92 86 88 93 90 94 86 94 96 97 95 83 92 97 92 91
42 44 50 57 71 81 91 100 93 70 80 80 94 98 98 93 96 93 87 82 95 96 97 91 92 92 91 90 88 90 95 94 90 95 95 94 96 96 94 88 89 96 84
56 54 61 72 83 92 98 98 100 94 87 88 81 86 98 94 93 95 95 98 93 94 92 92 89 89 88 91 88 98 98 89 92 96 85 96 98 98 95 98 83 93 92
66 73 78 84 94 96 91 87 93 89 87 81 84 86 91 94 88 94 100 99 95 93 92 95 95 92 95 97 89 90 91 94 92 87 92 97 97 100 94 97 96 83 93
75 80 85 86 89 91 93 93 100 96 98 99 91 82 88 98 95 87 89 94 96 92 90 84 88 86 88 95 98 94 95 100 98 97 98 92 94 93 95 97 96 99 89
99 98 91 83 88 95 99 100 100 99 98 100 100 94 93 95 97 96 96 95 96 96 97 95 93 89 85 87 91 95 100 100 100 100 100 85 84 78 98 98 96 98 96
97 96 94 98 99 99 98 99 97 92 88 86 97 97 95 95 96 96 95 95 95 96 96 98 98 96 96 90 89 94 98 100 100 98 89 81 72 77 99 98 96 97 96
88 96 100 100 100 100 99 97 95 96 95 92 92 94 94 94 96 96 96 96 96 95 95 96 97 97 96 94 95 92 98 100 100 95 82 72 70 71 93 87 96 98 95
80 68 80 81 96 98 96 96 99 90 93 92 91 92 96 97 96 96 96 96 97 97 98 97 96 96 97 96 95 96 95 100 98 81 78 70 70 70 76 72 70 97 96
77 84 93 89 93 98 96 98 100 98 97 96 96 97 97 97 94 90 81 81 85 92 95 97 97 96 97 96 96 95 95 100 96 81 72 72 71 71 70 64 58 65 89
99 99 98 99 98 98 98 96 95 100 100 96 95 95 95 95 94 98 97 95 92 95 97 96 97 96 96 97 96 95 97 99 98 90 84 87 77 73 72 74 82 68 75

GFSGL_850_rhum_045.txt.gz
RH
67 73 72 72 64 62 60 63 66 68 56 49 43 41 49 66 64 66 62 55 68 76 69 72 83 82 84 79 75 73 70 69 69 66 62 59 59 69 68 65 63 64 66
70 72 71 68 63 64 64 68 74 65 55 52 51 51 55 71 73 70 56 59 79 81 82 80 76 76 76 72 66 62 63 65 64 50 50 58 66 69 67 66 64 66 70
70 70 71 65 63 64 63 72 61 55 55 56 57 44 61 70 75 75 62 90 92 89 82 72 69 69 69 66 68 68 68 58 59 72 66 59 70 68 72 70 68 70 79
68 69 68 61 63 57 67 59 55 55 56 55 40 54 72 76 77 79 70 90 86 81 72 62 53 71 70 68 68 67 70 70 78 77 62 73 78 75 76 83 93 85 69
65 63 55 58 62 60 65 79 60 56 57 53 53 71 74 79 81 82 75 84 88 83 75 62 65 74 73 70 70 71 78 86 86 69 69 86 80 89 96 95 83 68 58
61 57 53 54 52 62 87 61 60 57 56 64 66 70 74 75 83 86 76 90 94 87 82 58 76 77 80 76 76 82 84 78 50 52 92 95 90 98 97 86 75 73 80
58 52 48 52 67 84 63 50 53 58 60 62 68 77 69 80 84 86 81 84 92 87 83 72 76 90 87 82 81 80 64 55 26 70 96 99 100 99 88 80 83 91 89
52 52 56 64 77 61 61 67 58 59 66 68 72 73 73 79 82 80 80 97 96 95 87 76 73 93 86 88 81 72 64 42 24 49 93 87 81 81 95 97 98 97 91
52 59 70 76 68 76 57 52 44 66 71 75 79 78 76 78 81 82 88 88 98 94 79 75 70 89 94 86 82 72 45 39 30 32 52 74 82 90 98 98 96 95 86
62 71 87 86 74 52 52 37 55 76 74 76 80 79 80 81 82 79 78 97 95 95 84 75 76 88 83 84 75 52 48 46 48 50 42 55 80 88 88 92 97 97 97
89 92 87 84 69 44 46 65 51 69 73 70 79 82 84 84 89 82 84 80 87 88 81 73 80 74 76 82 71 55 60 66 71 74 70 66 74 81 83 87 93 98 98
88 82 74 55 45 44 42 64 75 76 75 78 78 78 77 75 87 82 88 86 91 96 86 81 80 77 75 69 69 69 79 86 87 84 91 75 68 79 82 87 88 89 93
76 74 59 49 33 39 68 74 77 76 78 78 80 81 85 82 84 88 85 91 95 96 88 95 85 78 80 75 79 88 92 95 89 92 93 90 80 80 77 76 83 87 81
69 53 37 37 48 60 60 58 70 88 84 82 84 86 89 93 89 92 94 87 86 84 84 98 90 87 87 82 90 88 96 95 87 96 90 90 81 88 73 85 94 88 86
47 36 38 43 41 41 46 57 68 84 89 86 86 86 86 92 91 95 94 98 98 96 91 95 99 99 89 83 91 97 85 93 94 87 92 81 78 89 77 82 91 96 87
49 48 44 42 45 49 55 60 64 66 67 72 78 85 82 87 96 99 94 99 98 94 89 99 97 93 90 82 98 95 86 98 98 91 87 79 82 89 89 81 81 88 84
63 60 54 50 50 56 69 80 81 69 81 80 83 77 79 76 84 96 96 95 99 93 89 92 94 89 86 87 94 96 87 99 96 90 79 77 82 87 94 93 88 83 86
69 68 64 59 65 75 82 88 90 91 86 73 72 83 79 77 77 84 97 97 97 97 95 92 87 85 88 87 88 91 91 90 94 93 78 74 82 90 90 94 93 90 85
69 74 84 90 92 94 96 95 97 96 93 94 69 83 77 86 85 82 97 96 94 93 93 92 89 86 90 94 94 97 99 92 90 90 75 81 84 92 83 93 95 93 89
94 94 94 94 96 96 96 94 98 96 91 96 93 94 89 89 95 90 96 98 96 94 95 95 94 88 85 91 89 93 99 97 95 90 80 83 91 79 82 94 95 94 94
39 48 66 82 84 86 90 89 95 98 89 97 96 87 83 90 99 96 94 94 97 96 96 95 95 95 93 90 92 94 91 92 95 88 78 84 83 72 79 89 96 95 94
71 89 90 74 69 64 74 80 88 98 95 96 89 84 77 82 91 94 96 96 96 96 96 94 93 92 94 98 97 96 94 91 93 90 80 84 75 72 72 78 93 94 91
47 56 76 79 82 89 100 91 90 97 96 98 91 94 92 87 86 95 96 90 95 96 96 96 96 94 90 89 94 97 96 95 88 90 88 77 74 72 70 72 79 86 83
98 100 98 100 100 100 100 98 93 98 97 96 95 97 91 95 98 98 96 95 94 93 94 96 96 97 96 97 98 97 96 95 98 96 97 87 76 74 69 68 70 68 76
89 100 100 96 96 96 96 95 95 97 97 96 95 89 89 89 89 95 95 96 97 96 90 91 91 89 94 96 96 97 96 97 96 98 98 93 77 72 68 70 66 62 65
90 94 90 90 94 96 97 97 96 96 96 97 89 76 81 81 85 89 85 90 92 91 96 98 96 96 95 96 96 96 98 97 95 97 97 93 80 88 76 72 71 71 64

GFSGL_850_rhum_048.txt.gz
RH
82 70 71 75 78 73 67 65 70 75 78 78 77 60 44 32 25 32 57 73 55 56 68 70 74 80 78 77 76 75 71 65 65 62 55 42 40 37 37 46 58 64 64
69 70 73 75 73 70 73 82 79 74 84 70 66 54 54 31 41 54 72 76 72 66 72 76 73 72 71 71 70 67 64 68 67 60 48 47 42 37 61 67 66 64 63
65 68 74 76 76 83 79 73 75 83 72 60 58 59 38 35 56 71 76 78 74 71 88 89 81 72 57 63 70 70 70 67 63 66 66 56 33 59 67 68 72 76 76
70 74 77 77 80 70 69 76 75 63 66 62 62 40 40 54 71 77 81 82 78 84 91 93 92 79 51 71 74 75 69 68 72 77 67 41 52 68 76 83 87 68 58
76 77 76 76 64 67 72 68 72 73 67 57 48 42 50 69 75 76 79 86 90 86 96 96 91 72 57 76 77 75 73 74 83 68 57 34 71 80 89 92 87 75 63
78 77 65 64 67 64 69 80 81 79 63 55 48 50 67 70 74 73 85 89 82 83 89 96 86 78 66 80 88 82 77 87 77 67 32 40 78 88 87 92 85 88 95
67 65 62 62 60 61 71 78 88 66 76 63 51 68 70 72 75 71 82 82 80 80 96 99 94 85 82 88 88 81 85 82 74 44 28 46 65 72 79 88 89 93 99
63 52 52 59 68 77 85 85 90 76 54 52 66 72 76 79 78 77 81 89 85 99 97 100 90 76 78 80 79 81 77 72 51 39 37 45 65 86 95 99 99 98 86
55 56 64 75 82 89 96 89 67 59 59 57 64 71 78 79 78 82 86 88 82 79 100 96 95 83 78 75 75 75 71 52 49 53 57 57 60 83 93 97 93 91 83
62 72 82 90 96 85 78 65 61 54 48 51 53 63 70 75 78 82 79 88 81 81 95 98 89 76 76 73 69 75 58 54 61 61 60 61 59 62 74 88 98 100 100
74 81 95 90 79 76 64 57 52 48 61 71 73 68 72 77 80 81 81 87 83 87 90 88 97 81 75 70 72 62 65 70 74 77 76 79 80 79 68 72 82 94 98
97 91 84 73 60 57 50 34 47 58 67 76 77 75 80 81 84 89 90 88 86 92 94 95 98 90 81 71 70 73 78 85 87 93 87 83 88 83 74 68 65 89 96
76 68 56 50 48 35 35 38 48 58 65 65 77 81 81 85 89 92 91 92 95 97 87 90 94 92 92 79 83 82 83 85 90 94 86 87 92 81 78 69 77 91 81
53 49 43 29 28 32 36 40 44 46 50 56 70 76 78 75 80 84 89 96 98 98 97 96 92 94 99 90 90 86 87 93 91 93 93 94 95 79 72 78 79 77 79
32 31 34 36 35 36 38 42 47 51 57 62 60 66 68 67 62 76 87 98 99 96 98 99 100 96 92 90 95 90 85 95 90 90 100 97 94 74 71 81 79 72 79
58 54 56 60 61 62 63 59 58 66 71 74 74 78 75 86 78 77 79 88 95 97 97 97 94 91 96 98 93 87 90 94 95 89 100 100 95 76 74 76 87 77 76
66 65 70 74 77 83 87 91 90 79 87 89 90 94 98 91 93 81 80 83 93 98 95 91 93 91 87 91 90 90 92 91 95 87 98 100 93 73 77 80 84 83 66
76 87 95 99 100 100 99 97 99 98 95 90 87 88 90 95 91 95 89 94 99 99 96 98 92 90 91 87 88 88 90 93 98 96 98 100 84 77 73 80 88 88 84
65 67 64 58 57 62 69 71 74 85 100 100 90 88 81 78 91 96 82 100 94 96 98 96 96 93 95 91 87 90 91 92 95 100 100 99 78 80 81 80 90 89 88
21 17 22 33 42 47 50 50 53 78 94 100 100 98 89 89 86 78 76 89 98 96 95 98 96 96 95 93 86 89 96 98 98 99 100 99 90 74 84 75 84 86 88
23 25 30 37 59 75 88 97 100 100 100 98 84 97 97 98 88 79 90 80 92 94 96 97 96 96 96 96 92 82 85 91 99 99 100 98 84 72 85 73 82 86 88
36 49 58 86 100 97 100 100 100 100 100 100 99 94 97 93 92 97 96 91 90 92 95 96 97 94 95 95 96 96 98 94 92 97 100 99 84 78 76 68 80 78 84
55 63 75 89 93 92 90 94 94 97 98 98 98 97 92 88 92 96 98 99 98 96 93 92 96 96 96 96 96 96 95 94 95 96 98 96 91 82 76 70 73 73 75
66 69 77 80 80 85 90 94 97 95 94 96 95 96 96 98 96 92 89 91 97 93 96 97 95 95 96 96 97 97 97 96 96 96 96 97 98 92 79 72 72 72 64
66 68 76 80 81 87 91 91 93 95 97 96 96 95 96 95 91 88 83 82 87 93 95 97 97 92 90 91 92 94 96 97 96 96 96 96 98 96 79 72 73 72 64
61 66 73 79 81 85 91 93 92 92 92 93 96 97 98 96 94 95 89 84 84 81 77 87 96 97 100 96 95 97 97 96 97 97 96 96 96 94 78 84 76 72 72

GFSGL_850_rhum_051.txt.gz
RH
79 84 86 86 83 75 73 78 84 91 92 88 89 94 71 59 49 28 31 40 50 65 74 56 60 69 72 72 70 70 70 70 67 63 63 55 44 43 34 33 44 54 61
71 78 75 80 74 75 75 74 77 84 94 94 91 78 66 59 33 25 37 49 67 78 82 66 73 85 79 74 73 57 66 71 73 71 60 56 43 40 32 43 49 58 66
70 75 84 75 77 78 80 75 80 98 89 89 77 63 61 37 30 36 42 63 76 82 84 79 84 92 89 94 63 60 72 76 72 72 71 63 43 36 30 48 58 60 57
77 84 79 77 80 79 77 87 81 79 71 76 77 58 47 44 42 44 57 68 77 84 86 82 96 96 96 82 69 67 79 77 77 79 80 58 43 32 33 62 47 49 42
80 77 78 79 80 83 82 72 76 75 94 71 60 72 53 55 55 64 72 71 76 88 87 79 90 94 92 86 74 74 84 86 83 88 75 52 41 30 48 59 58 64 69
79 84 82 83 82 72 71 72 73 90 80 89 98 84 59 61 67 71 76 74 77 82 84 83 91 99 97 96 82 84 89 89 91 87 69 47 36 37 46 61 82 88 100
88 86 83 77 72 67 71 79 80 90 99 98 90 64 70 65 71 77 80 77 82 86 90 90 100 100 99 86 75 83 93 93 91 84 52 44 41 49 54 60 84 97 99
87 80 74 72 70 72 78 90 99 99 82 71 66 60 54 60 72 78 78 80 83 86 87 91 100 100 96 91 84 86 92 94 85 57 46 50 55 50 65 89 98 95 88
72 71 71 72 84 97 98 96 99 69 62 60 56 47 44 46 57 68 74 81 83 79 84 87 84 97 88 74 80 92 94 82 68 50 55 61 69 62 64 69 74 90 91
65 69 80 94 98 99 88 78 65 56 57 54 40 49 55 51 61 68 77 82 85 84 85 86 88 86 84 80 80 87 85 77 59 59 64 69 73 74 75 77 80 87 92
80 84 95 99 97 87 64 53 52 48 35 37 44 47 52 60 64 74 82 86 89 91 88 87 92 95 96 91 85 81 79 70 68 73 75 72 73 76 75 75 79 76 80
100 99 88 76 66 59 54 46 36 40 44 40 39 39 43 53 70 74 80 89 94 91 94 92 88 94 99 96 95 79 79 83 80 80 81 80 82 82 81 72 72 75 97
74 69 59 54 47 37 34 34 36 38 39 39 44 45 44 49 61 64 69 87 92 94 89 89 96 98 98 96 98 87 88 90 88 90 86 84 88 86 83 69 67 68 65
50 43 38 39 41 41 41 42 44 45 48 51 53 57 59 60 60 61 68 73 81 93 94 94 95 97 97 97 99 100 96 93 90 94 88 86 86 90 86 72 68 71 55
46 48 49 54 57 58 58 64 68 69 79 83 81 77 78 77 70 78 85 80 76 78 99 98 98 92 97 96 97 99 99 98 93 95 91 90 89 95 88 71 70 75 70
49 52 55 56 58 64 69 60 66 75 76 81 86 97 96 98 96 98 97 95 90 84 91 92 94 95 95 96 95 91 100 96 89 99 92 90 94 98 88 69 69 78 77
55 62 67 72 74 72 58 47 42 23 38 42 52 59 63 86 94 96 100 97 98 100 95 94 97 96 94 96 95 93 94 89 92 100 90 93 100 100 87 76 67 73 73
32 25 20 15 14 15 19 24 32 44 49 26 20 48 79 91 81 98 100 96 97 98 97 89 86 96 96 96 96 96 91 90 94 96 95 99 100 99 85 79 68 74 78
13 11 11 13 16 22 28 38 53 71 87 92 85 65 64 60 84 96 98 99 100 90 84 93 90 94 98 96 96 97 90 89 90 89 90 98 100 100 93 82 65 76 80
11 13 15 20 27 38 54 84 92 95 100 97 97 86 86 98 78 96 96 94 83 86 100 97 97 97 98 97 96 97 95 89 90 92 90 97 99 99 96 81 67 70 74
15 18 23 31 48 66 80 86 96 96 92 95 100 100 98 98 96 97 93 93 100 90 92 95 96 95 96 97 97 96 96 84 88 91 97 98 99 98 92 79 68 69 71
23 28 37 49 58 63 71 84 95 95 91 93 92 92 96 97 96 97 98 100 96 95 99 97 97 96 97 96 97 96 96 95 94 91 91 96 99 99 94 79 69 67 69
33 37 44 49 56 61 66 73 82 89 90 90 91 93 94 95 96 96 98 100 97 96 98 98 97 98 96 96 97 97 96 94 95 96 96 96 98 100 94 83 73 66 68
41 44 47 52 56 62 68 72 78 82 85 86 87 88 95 95 96 95 96 95 89 84 88 95 97 97 95 96 96 96 96 96 96 96 96 96 94 99 99 89 81 70 67
49 51 54 57 60 64 68 72 77 81 84 87 89 90 91 96 96 96 96 96 89 85 85 85 94 96 96 96 100 95 91 96 96 96 97 97 94 96 98 97 84 72 70
55 58 60 63 67 71 74 77 78 82 84 87 90 93 95 94 94 97 96 95 93 94 98 95 93 86 86 94 94 100 98 97 97 96 97 97 95 94 96 96 83 82 73

GFSGL_850_rhum_054.txt.gz
RH
71 82 81 77 83 88 84 79 79 83 87 91 92 97 97 93 97 72 32 34 46 56 73 80 81 67 68 75 76 74 77 68 66 61 65 70 62 54 40 37 31 36 46
69 74 73 79 82 84 85 88 89 91 95 94 95 98 94 83 92 57 57 43 57 75 82 82 79 75 76 87 85 85 81 64 70 73 70 65 61 49 39 36 31 42 47
58 62 71 71 76 93 100 95 87 89 92 98 97 94 90 83 62 71 45 65 70 70 73 81 81 73 87 93 96 94 73 67 75 77 73 71 60 43 37 34 33 37 36
60 64 68 80 88 99 90 86 84 84 95 93 90 95 75 83 76 56 65 63 62 70 72 84 80 77 83 92 96 89 79 76 80 84 83 73 63 46 41 36 35 39 41
67 73 96 100 96 84 84 82 93 97 93 86 85 94 99 96 76 67 63 62 73 74 72 79 82 85 86 94 98 94 92 86 87 89 82 78 62 48 42 42 44 41 44
91 100 98 95 88 84 86 98 93 93 92 85 100 99 100 92 66 63 66 71 77 77 76 82 86 90 92 100 100 99 88 84 91 92 86 80 62 47 49 49 54 71 96
89 94 90 88 88 89 87 92 90 86 96 99 100 100 82 63 63 61 64 72 77 76 80 85 80 90 98 97 99 96 91 92 95 92 88 76 55 53 59 54 58 68 85
95 92 91 90 84 85 86 94 98 100 99 100 80 64 59 50 44 43 54 65 72 74 83 83 81 85 96 87 97 93 84 89 95 97 86 63 56 61 65 68 72 72 64
96 90 83 78 82 94 99 96 97 100 85 65 60 52 48 38 45 48 53 62 69 77 85 86 85 84 90 93 96 81 73 79 93 88 77 59 65 71 76 78 75 73 65
82 80 86 98 98 97 99 98 97 72 56 52 45 38 36 41 51 55 64 74 78 77 84 90 92 90 92 96 97 91 84 72 84 83 68 70 77 78 76 76 77 76 81
78 83 96 98 99 89 74 64 58 52 45 34 35 36 38 42 46 57 66 77 76 78 85 90 86 91 96 95 98 96 91 84 82 80 79 82 80 78 73 73 74 70 74
97 90 76 67 61 56 49 42 37 36 37 37 40 39 40 44 49 50 58 75 75 82 83 86 82 85 94 96 92 93 96 91 78 89 90 89 86 85 81 76 72 65 67
66 55 48 41 38 40 42 45 47 49 55 58 64 62 53 50 53 59 70 66 71 78 74 73 84 95 97 97 97 95 96 96 90 97 94 93 90 90 86 86 72 63 60
44 40 41 43 44 48 52 57 60 61 64 70 76 81 84 83 79 74 79 87 86 85 77 75 75 88 99 99 96 98 96 94 97 96 96 95 95 89 90 95 75 59 55
41 43 43 44 47 47 50 53 50 48 44 39 38 44 63 59 61 74 92 96 98 98 98 96 86 79 93 98 97 95 97 96 98 97 98 98 98 94 92 97 76 60 60
41 42 41 35 23 14 9 7 7 7 9 13 23 48 42 61 59 52 86 95 92 98 99 96 84 78 81 90 98 95 96 97 93 97 98 96 98 94 96 97 75 66 61
26 19 14 9 8 8 8 10 10 9 14 21 40 53 62 68 77 68 70 82 97 100 100 97 94 86 80 79 96 97 96 94 95 97 94 94 98 97 98 97 75 66 59
12 8 8 9 11 12 14 17 27 40 53 52 58 72 66 67 67 78 84 93 91 96 97 97 97 92 93 93 90 97 96 96 95 95 95 96 97 94 98 97 82 70 60
8 9 10 12 14 17 23 31 45 62 97 84 78 73 74 75 79 77 84 93 94 97 97 96 85 99 100 94 96 95 97 96 95 93 90 93 94 93 94 98 89 72 60
12 13 14 16 20 25 31 36 47 65 75 81 78 80 82 76 82 92 99 98 97 98 97 96 96 100 100 96 97 98 96 97 94 91 89 88 92 93 96 99 86 74 63
16 18 19 22 27 32 39 46 56 63 71 74 75 77 80 92 90 95 95 98 97 99 100 100 100 100 98 99 98 97 96 96 96 93 90 92 96 93 98 100 84 72 62
20 22 26 30 36 40 45 52 58 64 69 72 72 71 75 78 88 93 95 95 95 96 97 98 99 98 94 97 96 97 96 97 96 95 88 90 96 94 100 98 85 70 63
26 28 32 38 42 46 50 54 59 63 67 69 73 74 76 79 84 87 94 96 96 96 96 96 97 96 98 98 94 96 96 97 96 96 96 94 94 95 94 98 85 72 66
32 36 40 45 49 52 56 60 64 67 69 70 72 76 80 83 84 86 88 92 95 96 96 97 92 87 94 92 96 95 96 97 97 97 96 96 98 98 94 97 88 79 71
40 45 48 52 55 58 61 63 65 68 70 71 73 76 79 81 83 85 88 88 93 95 95 96 97 94 89 89 95 96 96 96 97 96 96 96 97 97 95 95 95 85 74
50 53 56 60 61 63 65 67 67 68 67 65 67 70 72 73 72 74 78 87 90 93 95 96 97 97 91 94 89 94 95 94 97 97 96 96 97 96 96 96 96 88 77

GFSGL_850_rhum_057.txt.gz
RH
59 65 70 74 86 99 100 99 100 93 86 87 90 88 90 99 98 92 82 81 51 48 54 63 61 74 72 70 72 82 85 85 85 72 72 76 71 74 77 58 32 32 34
64 69 70 84 93 87 79 75 91 96 91 93 93 93 94 96 91 96 89 67 54 52 56 61 71 80 77 68 77 85 86 93 94 74 71 78 86 84 60 44 35 32 33
61 67 64 64 70 69 80 98 100 100 100 100 98 100 100 98 100 81 78 61 55 56 62 70 71 82 79 71 76 91 93 98 85 83 79 80 89 90 85 71 50 48 51
69 72 77 79 93 99 100 100 85 98 99 100 100 100 97 97 92 91 64 63 63 66 68 71 70 81 78 79 82 90 95 96 89 88 86 80 85 86 84 66 66 71 74
96 99 100 100 100 100 100 100 99 98 99 100 99 97 98 99 97 91 80 69 70 69 68 72 70 78 81 80 88 94 96 97 92 94 85 84 82 80 77 67 78 77 81
98 100 99 100 100 99 96 92 91 97 100 98 97 99 100 100 99 76 73 72 68 70 70 74 75 78 78 77 91 95 95 100 100 95 90 87 85 89 83 80 88 87 79
94 95 96 98 93 90 92 97 99 100 99 98 100 100 98 97 70 65 67 66 64 70 70 76 78 79 82 80 90 97 92 92 95 97 100 97 100 96 74 87 91 91 90
94 96 96 94 95 99 99 99 98 93 96 99 100 96 73 61 57 57 50 47 51 53 60 68 74 81 82 84 87 98 89 92 83 76 84 96 98 78 62 98 100 100 99
96 95 95 93 92 100 100 95 99 100 100 92 69 64 60 54 55 50 56 63 64 60 65 69 75 84 84 89 92 96 95 91 79 75 81 90 82 62 63 100 100 99 96
90 88 87 92 93 99 100 99 86 68 60 59 55 48 43 45 48 49 54 65 73 72 65 72 79 83 90 93 95 98 98 93 94 90 81 81 71 69 72 83 100 100 98
84 82 84 98 95 84 64 60 55 50 43 37 37 36 37 40 41 43 47 59 64 64 72 77 81 78 89 94 86 97 92 87 97 98 86 91 81 91 100 100 100 100 100
91 98 82 65 56 48 42 37 35 38 41 43 46 46 47 51 54 57 63 68 79 88 82 79 75 72 84 95 88 91 93 96 95 98 91 92 94 100 100 100 98 85 89
68 57 48 42 40 40 41 42 41 44 49 51 47 34 25 29 44 29 14 25 72 96 98 92 81 77 81 95 96 95 95 96 97 97 85 93 95 100 99 91 85 84 73
44 40 39 39 39 39 38 33 20 10 8 9 15 42 57 56 78 87 83 80 80 82 67 80 96 97 97 97 98 97 99 100 94 97 96 100 100 94 94 96 90 92 98
36 36 35 29 18 11 8 7 7 8 12 17 37 88 83 71 92 78 77 76 89 82 87 86 99 91 96 96 94 92 95 100 97 97 97 96 97 96 93 98 92 98 100
29 19 13 10 7 6 6 7 8 9 12 15 28 65 82 71 65 60 60 59 66 78 82 80 98 97 97 97 95 92 90 92 98 95 97 97 97 97 96 100 94 100 100
14 10 7 7 7 8 9 10 11 17 18 25 30 38 50 57 63 66 63 73 76 78 92 83 85 97 99 97 96 95 91 83 97 96 96 97 95 95 95 99 100 100 100
9 7 8 9 10 11 12 14 18 20 36 33 30 36 40 45 47 61 73 83 94 98 100 100 100 99 98 97 99 99 99 91 94 96 96 96 95 89 98 92 99 100 100
9 10 11 12 14 15 18 20 22 25 28 31 31 34 37 42 47 53 68 80 94 95 96 91 95 96 98 100 100 100 98 96 98 97 97 96 93 92 96 92 98 95 87
11 13 14 15 17 20 23 27 30 32 36 38 40 44 44 43 49 57 62 82 87 90 94 95 95 100 98 99 99 97 96 96 97 96 97 96 91 90 95 93 93 97 96
15 17 18 20 23 27 30 34 38 41 45 48 50 53 58 60 62 69 71 74 85 91 92 94 95 97 99 99 99 100 100 98 97 97 97 95 92 88 91 97 95 95 81
19 20 22 25 30 34 36 41 45 48 52 54 54 56 58 61 65 67 72 75 78 86 95 95 96 95 96 96 97 96 99 97 98 96 97 96 94 95 98 98 96 96 81
23 25 29 33 38 41 44 48 52 55 57 59 61 61 61 62 65 67 71 75 78 80 89 95 95 96 96 97 99 98 97 97 97 96 96 96 94 93 96 94 93 95 77
28 33 37 41 44 47 51 54 59 62 64 62 58 54 53 53 56 59 63 64 67 76 84 94 96 96 96 96 96 99 98 96 96 96 96 96 97 95 96 96 93 94 79
36 40 44 47 51 54 58 63 66 64 58 54 53 54 56 58 59 59 59 59 59 58 69 84 96 96 96 96 96 97 93 96 96 96 97 97 97 97 97 96 95 95 82
45 48 52 55 60 64 67 67 61 56 56 58 60 62 64 65 66 66 66 64 62 59 56 66 86 97 96 97 96 93 89 89 96 97 98 97 96 96 97 96 96 95 90

GFSGL_850_rhum_060.txt.gz
RH
92 98 75 79 78 88 91 91 96 97 100 100 90 90 90 92 92 86 99 96 99 99 84 81 79 81 79 72 74 73 70 65 60 54 56 55 62 73 75 71 73 70 56
94 98 78 83 87 90 91 92 88 99 99 100 99 96 99 93 94 98 99 100 96 86 85 82 83 78 80 81 77 74 69 66 64 61 61 59 59 64 72 76 73 62 55
91 84 99 100 98 99 96 98 100 100 100 100 99 98 100 100 100 100 98 94 96 87 79 82 82 82 79 76 74 71 68 65 63 66 62 61 61 67 69 68 66 58 56
84 97 100 99 100 100 99 100 100 96 91 98 100 100 100 98 100 100 99 99 95 84 85 85 84 81 77 75 72 70 68 68 65 65 62 60 62 62 68 61 58 49 50
99 97 99 97 99 99 99 100 100 100 100 100 100 100 100 98 100 100 100 99 95 87 85 87 85 83 81 73 72 67 68 67 65 67 66 69 72 66 58 57 63 52 56
100 98 98 98 99 100 99 100 99 100 99 100 100 99 98 98 100 100 100 98 97 86 81 79 76 79 88 76 72 72 75 78 74 83 87 93 80 69 62 66 62 56 58
94 100 99 100 95 96 97 96 99 100 100 99 98 99 98 99 98 81 67 74 88 82 79 75 71 66 72 91 88 88 83 82 89 96 94 97 86 72 72 71 63 63 66
89 90 93 91 92 95 97 98 98 94 98 98 99 99 98 96 67 65 65 63 76 74 75 77 75 72 72 82 90 85 86 90 93 95 100 92 84 81 80 77 78 86 85
92 96 98 96 92 94 94 96 98 98 99 98 97 92 90 87 74 45 44 48 75 78 78 78 76 75 74 81 90 96 90 95 93 94 88 86 86 80 85 90 91 82 82
99 98 95 97 90 97 98 98 94 89 82 81 71 54 42 37 38 34 40 49 62 85 86 83 81 85 85 83 91 87 100 98 96 98 100 89 82 86 86 82 97 88 80
98 89 87 100 98 87 75 64 58 62 36 32 32 34 38 62 64 56 56 68 88 96 100 97 90 87 92 88 88 99 95 97 98 98 100 99 97 88 81 91 98 89 85
79 91 91 69 56 47 43 47 51 73 72 73 63 52 75 75 80 62 35 28 31 75 76 78 91 97 99 99 98 96 100 100 95 96 100 100 99 95 91 89 94 93 88
78 64 50 40 34 31 34 35 55 47 39 52 61 74 75 86 84 88 93 63 34 38 54 61 64 72 64 75 94 96 100 98 96 97 96 100 96 98 98 99 97 96 98
49 39 35 31 32 25 19 14 30 21 19 33 70 83 89 89 90 99 85 96 93 63 80 80 89 72 68 73 86 87 97 97 97 96 99 100 97 98 100 97 96 98 99
35 31 27 18 11 18 21 8 8 14 8 10 59 61 72 95 91 39 48 79 68 59 75 88 96 89 88 90 99 98 94 97 96 99 97 96 95 96 98 99 98 100 98
25 16 12 9 8 10 27 55 22 12 11 12 16 21 24 27 26 29 30 33 52 60 95 100 96 85 84 91 92 100 95 96 92 100 100 99 95 95 98 95 100 96 99
14 10 8 7 9 11 22 53 70 82 46 39 20 21 22 25 26 25 24 28 53 72 100 100 100 100 100 100 100 100 96 97 96 100 100 98 100 99 95 96 98 100 100
10 8 9 10 13 14 18 25 69 76 92 84 83 33 27 29 31 32 31 39 85 91 100 100 97 96 96 97 97 96 97 95 94 96 99 97 99 96 95 97 100 99 98
9 9 10 12 12 13 16 26 50 83 82 87 89 91 71 36 39 61 68 99 100 100 100 100 100 94 94 95 96 97 94 95 96 96 98 99 100 96 95 96 100 98 97
10 11 13 15 16 19 23 30 52 88 88 97 97 100 60 43 92 100 100 100 100 100 100 100 100 99 94 94 95 97 98 97 96 99 99 100 97 98 95 94 95 96 99
14 15 16 18 20 23 26 35 41 77 85 89 100 99 50 52 100 100 100 100 100 100 100 100 100 98 95 96 95 96 98 95 96 95 96 98 96 98 95 94 100 94 97
17 18 20 22 25 27 31 37 44 59 78 83 93 96 54 91 100 100 100 100 100 100 100 100 94 99 100 96 95 96 96 96 96 96 95 95 96 98 97 96 100 98 100
20 22 25 27 30 33 39 44 52 64 66 66 77 84 85 97 98 100 100 100 100 95 89 80 79 79 93 96 96 96 96 97 97 96 95 96 95 97 96 96 100 100 100
26 28 31 33 36 43 48 52 62 67 59 64 70 84 99 96 100 100 100 100 88 84 68 58 54 63 82 93 96 96 96 98 98 98 97 95 97 97 97 96 97 100 100
34 36 39 44 49 53 60 73 66 68 63 62 70 74 86 89 100 100 100 96 80 85 70 62 55 56 64 85 96 96 96 97 97 97 96 96 96 96 99 96 95 95 98
45 47 51 56 72 73 71 69 68 60 56 57 56 68 82 90 91 97 88 89 97 86 80 79 72 66 62 71 93 96 96 96 91 90 97 96 95 96 100 100 96 96 96

GFSGL_850_rhum_063.txt.gz
RH
78 84 95 100 88 97 100 100 96 90 95 100 100 100 99 100 95 100 100 96 95 98 98 100 95 86 77 76 72 68 66 65 61 55 52 50 52 57 58 65 72 69 68
75 81 91 100 100 99 99 99 100 100 100 99 99 100 99 92 95 97 99 100 99 100 100 98 92 82 77 80 77 74 70 66 63 59 55 54 54 55 56 60 69 59 62
75 83 96 98 98 98 99 98 97 98 100 100 100 100 97 99 100 100 100 98 98 97 92 96 86 83 83 78 76 70 66 62 59 59 57 53 54 54 55 60 67 63 60
91 96 99 98 100 100 100 100 100 100 100 100 99 100 100 100 99 100 98 98 94 92 100 97 87 86 79 76 73 68 66 63 62 59 58 56 54 51 56 60 69 61 62
100 98 98 100 99 100 100 99 99 100 99 100 100 100 100 100 99 99 99 98 99 99 96 92 87 82 79 77 74 68 66 65 61 56 56 55 54 57 59 65 74 72 58
99 99 99 99 98 100 100 100 99 99 99 100 99 100 99 98 99 98 100 100 99 97 95 82 75 73 72 72 74 77 73 71 77 71 69 67 66 75 78 83 86 74 66
98 98 98 99 100 100 100 100 99 100 99 98 98 99 99 98 98 93 78 73 95 87 83 78 74 65 63 63 64 66 75 78 77 80 82 81 85 82 86 97 83 77 72
99 100 100 99 94 94 93 96 95 96 97 100 97 97 96 91 87 69 62 58 58 79 77 73 70 68 67 66 66 68 76 90 89 87 93 89 94 89 93 90 93 85 75
92 95 98 96 90 91 91 90 97 100 100 98 95 92 86 83 83 80 53 46 65 76 76 75 74 75 74 71 72 78 81 79 78 82 95 84 84 91 89 86 94 94 83
95 99 100 100 100 99 98 97 91 96 84 78 75 73 73 66 81 84 63 57 59 77 74 89 78 85 88 91 92 90 88 82 77 84 98 96 88 84 77 85 88 95 83
98 100 99 92 95 94 86 81 73 68 69 83 58 88 89 90 92 86 49 27 29 24 22 26 46 76 80 77 82 98 98 94 90 84 97 98 96 98 96 92 92 86 85
92 87 86 77 67 69 69 69 66 68 77 78 72 60 72 76 84 79 64 51 44 41 28 24 23 24 35 42 54 53 58 75 95 97 100 97 97 93 92 95 96 91 95
81 77 74 68 62 59 59 60 49 50 58 64 56 72 72 83 81 84 83 27 10 13 17 15 16 19 29 61 69 69 75 75 93 96 97 99 96 88 90 94 95 96 94
73 70 63 55 49 41 39 39 45 50 36 35 66 80 85 76 86 70 16 13 18 18 18 21 37 69 77 82 85 84 88 89 92 100 98 96 97 96 94 93 95 92 94
60 52 46 32 36 42 43 30 19 10 7 7 37 23 23 24 49 18 21 21 22 22 26 68 96 90 92 90 92 88 82 98 89 90 98 97 96 99 96 97 95 94 95
48 40 27 21 19 40 46 45 31 30 14 8 10 12 16 18 20 23 24 23 26 35 63 96 96 97 97 98 99 98 90 93 85 97 97 97 100 100 100 97 95 95 97
36 17 12 13 32 42 45 59 62 69 49 50 50 36 20 20 24 26 27 27 49 86 95 94 96 97 100 100 97 97 99 96 99 97 97 95 98 100 100 95 95 94 95
14 11 31 54 54 41 58 38 70 82 92 95 96 90 66 38 29 30 32 42 99 97 96 96 99 100 100 100 99 94 94 97 97 97 88 91 93 95 96 96 95 95 95
28 30 20 15 10 10 13 28 69 86 93 93 91 89 96 85 36 67 99 100 100 100 100 100 100 100 100 100 100 94 95 96 97 97 94 92 95 97 95 96 96 94 94
13 10 11 17 21 30 37 54 88 93 94 94 95 97 100 60 46 100 100 100 100 100 100 100 100 100 100 100 100 96 93 95 96 96 97 95 95 94 96 96 95 95 97
44 15 14 19 31 32 32 62 86 97 100 99 99 100 95 69 92 100 100 100 100 100 100 100 100 100 100 100 100 100 95 95 95 96 98 98 97 95 96 95 95 94 96
14 16 17 20 25 38 32 39 93 100 100 100 100 100 100 100 100 100 100 100 100 100 100 100 100 100 100 100 100 100 99 96 96 96 97 99 95 96 96 97 95 95 96
17 19 22 28 28 33 78 100 100 100 100 100 100 100 100 100 100 100 100 100 100 100 100 100 100 100 100 100 100 100 100 98 96 96 95 95 95 95 97 95 95 95 95
22 25 30 38 74 47 99 100 100 100 100 100 100 100 100 100 100 100 100 100 100 100 100 100 100 100 100 100 100 100 100 100 97 96 96 96 94 95 96 96 95 95 94
38 45 72 97 100 100 100 100 100 100 100 100 100 100 100 100 100 100 100 100 100 100 100 93 93 100 100 100 85 69 82 100 97 96 96 97 94 94 95 97 95 96 96
95 100 100 100 100 100 100 100 100 100 100 100 100 100 100 100 100 100 100 100 100 100 86 98 92 96 95 88 85 81 74 95 97 97 97 98 94 96 95 96 95 97 97

GFSGL_850_rhum_066.txt.gz
RH
68 71 74 84 90 79 73 69 85 100 100 100 100 100 100 99 100 100 99 97 98 99 97 99 98 99 96 85 79 74 75 70 68 66 64 60 55 52 52 53 58 59 60
68 71 76 81 75 71 94 96 100 100 100 98 97 99 99 100 99 95 94 100 100 97 98 98 97 81 86 88 82 78 80 74 70 66 65 65 61 56 54 53 56 54 58
72 70 76 72 84 100 98 98 99 99 100 100 100 100 99 96 97 100 100 100 100 99 99 99 91 98 97 90 84 87 80 76 75 72 68 65 63 61 58 56 56 59 62
72 74 81 95 98 98 99 100 100 100 100 100 100 100 100 100 99 99 98 99 99 100 93 94 96 96 91 88 88 82 78 79 77 73 73 72 70 66 60 63 65 62 68
82 93 97 99 96 100 100 100 98 100 100 100 100 99 100 99 99 99 100 100 100 98 98 98 94 84 81 78 78 77 74 73 69 70 64 63 68 65 66 65 67 63 60
99 100 98 99 98 99 99 98 100 99 100 100 99 99 99 99 100 100 100 100 100 98 98 87 92 90 80 77 74 80 80 78 80 78 93 82 68 70 73 66 71 80 75
98 98 99 99 98 98 99 99 97 98 98 98 99 98 100 100 99 94 80 67 58 65 81 73 75 74 72 69 66 66 69 72 71 73 87 95 94 79 80 82 66 78 84
99 98 98 99 100 100 99 96 94 94 95 99 100 99 96 84 87 81 71 64 59 52 62 76 78 76 76 77 77 76 76 75 77 86 86 88 86 84 96 96 79 76 78
100 100 100 98 99 99 91 90 91 97 99 100 87 83 88 86 84 79 75 62 50 45 42 43 47 50 57 79 84 86 84 80 79 86 95 94 84 84 92 97 94 88 85
93 99 100 100 96 89 87 90 93 84 88 88 81 80 77 72 75 73 69 65 51 19 13 10 8 6 5 7 12 30 38 28 46 44 75 95 90 90 95 97 100 100 85
96 98 99 99 93 88 91 89 87 76 73 70 59 57 75 87 84 62 39 30 18 10 7 5 5 5 6 8 13 22 24 29 39 54 43 36 75 94 92 99 92 75 66
96 98 88 88 86 84 76 69 61 67 76 77 70 59 50 67 72 55 28 13 24 16 7 7 7 8 9 24 64 75 85 82 81 74 82 100 94 96 98 95 91 86 74
88 82 74 67 67 68 70 65 64 59 55 51 49 41 65 74 74 54 26 25 10 8 9 10 11 12 32 56 78 95 94 99 100 99 100 100 88 93 98 98 96 92 92
77 73 67 61 55 49 47 40 43 41 41 37 30 42 53 54 34 14 14 8 10 11 12 14 16 38 71 68 78 84 95 89 97 98 98 100 100 99 100 98 95 99 100
71 65 59 50 41 38 40 32 23 18 12 8 12 18 13 11 10 11 12 13 14 17 20 27 67 89 71 71 72 89 85 87 97 100 96 100 92 96 99 97 95 98 98
56 52 45 32 33 43 37 34 32 26 23 16 11 13 14 11 13 14 17 17 20 28 43 82 93 87 88 84 96 99 82 84 95 96 98 95 100 97 96 95 99 100 96
50 46 35 28 31 29 35 42 54 56 57 45 51 46 22 22 20 23 23 23 38 85 100 95 94 93 93 94 99 100 92 81 95 95 97 95 97 97 98 96 94 98 96
38 36 38 39 36 31 30 32 39 60 70 80 85 80 78 76 50 48 34 55 88 87 94 96 95 94 95 99 98 100 98 80 84 95 96 97 95 97 97 96 98 98 98
20 26 28 20 12 10 10 13 22 35 56 83 80 92 94 99 88 50 93 100 97 95 95 97 94 96 97 100 100 100 100 98 92 94 94 96 97 97 95 96 96 97 98
16 11 12 9 10 12 16 20 35 53 67 81 86 95 92 83 69 49 89 99 96 98 98 96 96 98 98 100 100 100 100 98 90 95 95 95 98 97 97 97 97 98 96
95 67 13 12 16 19 20 26 39 47 62 82 93 96 97 92 80 86 100 98 99 100 97 100 100 100 100 100 100 100 100 100 99 96 96 96 96 97 95 97 96 97 96
45 23 16 17 22 25 28 31 35 52 78 98 98 96 99 98 100 100 97 98 100 99 100 100 100 100 100 100 100 96 100 100 100 100 95 95 95 96 96 97 98 96 95
20 18 21 27 31 32 39 78 91 98 100 96 96 99 98 99 100 98 99 98 100 100 100 99 97 98 94 92 96 100 100 100 99 99 98 95 95 95 96 96 96 97 96
21 25 33 44 66 69 72 100 90 100 100 100 100 99 100 100 100 100 100 100 100 100 94 93 92 88 87 97 100 100 100 97 94 99 100 96 95 96 96 96 96 97 96
37 45 56 77 100 100 100 100 100 100 100 100 100 100 100 100 100 100 100 100 100 95 98 83 84 82 89 92 96 98 100 100 100 97 99 97 95 96 96 96 96 95 97
68 88 98 100 100 100 100 100 100 100 100 100 100 100 100 100 100 100 100 100 100 97 84 82 83 87 89 91 95 98 99 98 93 86 98 97 94 95 96 96 95 96 97

GFSGL_850_rhum_069.txt.gz
RH
64 63 68 66 69 79 79 83 85 86 78 78 99 98 100 99 100 99 99 100 100 99 98 99 99 93 97 99 100 91 83 81 75 76 76 70 66 62 56 54 55 55 55
59 66 69 70 70 78 91 90 73 91 100 100 100 100 100 100 99 99 100 100 100 100 100 99 94 99 98 90 83 84 87 84 79 81 81 74 65 67 69 67 63 58 56
67 74 70 72 80 70 74 88 98 99 100 99 100 100 96 96 99 100 99 100 99 100 96 96 98 99 92 86 90 91 92 86 82 86 83 77 77 75 72 73 75 79 91
60 68 69 57 67 84 100 100 99 100 99 98 100 97 98 100 100 99 100 100 100 97 99 99 98 94 93 96 97 91 86 86 83 81 80 79 80 75 71 72 74 58 74
55 72 63 88 100 98 98 98 99 100 100 99 100 100 99 100 100 99 100 95 99 100 99 99 99 99 95 92 93 90 88 85 92 97 92 90 86 80 77 76 85 93 86
79 76 98 100 100 98 100 100 100 99 99 100 100 100 100 99 100 98 98 99 100 100 95 85 92 91 93 90 85 81 77 76 78 84 90 96 93 90 90 86 89 96 97
100 98 99 96 98 97 94 99 100 99 98 99 99 99 99 98 100 100 100 94 80 66 62 67 70 69 64 65 60 64 67 72 76 82 84 83 87 90 96 98 96 99 96
99 100 98 93 94 95 98 98 96 93 92 93 98 99 100 100 95 87 74 66 62 52 45 48 53 52 60 64 57 49 46 36 39 47 59 72 90 97 98 95 92 88 96
93 94 97 96 99 100 94 89 92 93 98 98 98 97 92 86 86 84 76 67 56 57 55 47 32 20 13 8 5 4 4 4 6 8 11 12 14 25 46 95 100 100 98
99 100 99 98 84 81 81 86 90 99 99 91 92 94 89 84 82 75 58 68 65 42 22 11 6 4 5 5 6 8 10 24 46 50 52 46 42 33 28 25 76 100 99
87 93 99 99 87 85 88 90 87 87 89 94 85 79 78 74 62 60 67 54 31 12 6 4 4 5 6 7 12 35 61 67 75 84 86 87 75 71 74 91 78 100 100
91 97 99 89 86 83 80 85 84 90 86 79 76 70 72 68 49 40 38 32 16 13 6 5 6 6 8 12 18 27 46 72 84 87 83 81 96 90 98 99 94 100 100
94 97 93 89 88 86 83 77 74 70 63 59 64 65 56 56 56 60 48 30 17 8 7 8 9 11 16 17 24 29 34 58 84 88 92 95 100 100 96 89 94 98 100
96 92 86 80 76 72 68 63 62 65 63 56 51 50 54 54 50 50 28 10 7 8 8 10 13 21 26 31 28 24 25 42 68 77 92 95 89 91 100 94 90 98 98
86 78 69 67 65 65 66 58 48 48 47 41 31 28 34 31 21 10 8 8 9 12 14 18 28 42 37 36 35 33 30 31 48 65 85 94 96 100 100 97 92 98 96
76 68 60 54 45 42 40 36 31 24 20 18 13 10 9 10 14 13 10 14 16 21 29 48 77 84 82 70 55 49 49 45 48 68 81 94 96 98 100 95 98 97 90
70 61 50 46 44 40 39 35 30 35 40 33 32 30 30 25 24 28 31 20 26 34 65 85 88 88 89 76 67 62 53 54 58 68 82 94 95 100 96 96 96 98 94
57 58 52 43 42 43 43 39 34 33 39 39 48 63 55 47 60 75 78 57 63 60 72 81 89 92 85 72 69 63 55 54 64 65 81 91 96 96 95 98 97 95 94
46 38 45 38 25 19 26 31 16 22 30 47 72 77 80 87 92 86 86 55 70 87 88 88 94 91 82 86 84 76 70 67 71 69 74 90 95 95 95 96 98 98 99
84 76 37 52 84 82 46 56 30 31 47 63 78 90 98 100 99 82 62 73 94 96 96 98 97 88 86 82 74 78 74 75 66 65 78 87 91 96 95 96 99 97 97
95 96 96 95 95 95 80 40 28 38 48 64 82 89 92 93 91 84 90 99 100 96 97 96 89 87 80 73 78 83 84 81 78 79 82 84 90 95 96 96 97 98 95
96 96 95 95 91 64 32 34 40 42 56 70 88 100 100 99 99 100 100 100 98 98 97 97 96 84 75 82 90 91 89 91 92 84 75 76 89 93 96 96 97 99 95
95 94 92 75 47 33 39 46 65 86 89 93 98 91 90 97 99 100 100 100 100 98 99 97 83 74 79 82 84 89 98 97 97 97 93 87 85 92 96 96 97 96 96
92 65 44 49 59 69 75 84 94 92 98 100 100 100 99 100 100 100 100 100 100 99 93 78 79 84 83 81 84 88 95 98 100 100 100 95 82 88 96 96 96 96 96
50 60 64 75 85 96 98 100 100 100 100 99 100 100 100 100 100 100 100 100 99 84 70 78 84 85 85 83 87 92 95 94 99 100 100 99 89 91 96 96 96 95 96
77 91 98 98 100 100 100 99 99 100 100 99 100 100 100 100 100 100 97 93 77 72 75 80 83 86 86 87 91 94 96 96 96 94 96 94 86 85 95 96 96 95 96

GFSGL_850_rhum_072.txt.gz
RH
54 57 64 64 66 67 67 68 76 75 80 82 75 70 90 91 95 96 98 100 100 99 100 98 100 100 100 93 98 99 98 100 98 85 83 79 78 79 77 72 62 56 61
76 80 84 82 83 77 78 84 85 86 78 73 93 95 100 98 100 100 96 100 100 100 99 100 100 100 98 100 100 98 84 84 89 92 87 84 78 76 76 72 70 73 71
84 79 72 82 84 83 96 85 79 72 62 88 100 100 100 100 99 100 100 100 100 99 100 100 100 100 100 98 99 93 86 95 91 89 86 83 75 71 75 80 82 85 82
79 59 39 67 88 74 74 76 84 82 85 96 100 100 100 99 100 100 100 100 100 99 100 99 99 100 99 97 96 97 97 94 88 90 93 92 91 87 95 96 89 86 84
75 57 47 58 54 72 69 76 100 95 99 100 98 98 100 100 100 100 99 100 100 100 100 100 99 100 99 99 98 96 88 80 79 78 77 77 78 80 83 85 94 90 86
76 69 60 69 96 99 96 98 98 99 99 99 100 100 100 100 100 100 100 100 100 100 100 99 96 91 96 98 92 89 88 85 83 82 82 84 82 84 86 91 99 95 88
71 79 88 98 98 100 98 98 97 99 100 100 100 100 100 100 100 100 100 100 100 100 95 63 67 66 62 59 60 62 64 67 73 74 63 46 29 18 21 64 90 99 97
84 98 98 98 96 97 98 98 97 97 98 98 100 99 100 100 99 98 96 97 82 63 52 48 39 38 40 37 33 25 14 7 5 4 5 6 14 22 31 27 30 36 61
99 99 98 99 96 96 97 98 99 99 97 93 95 98 98 94 93 91 89 75 68 59 53 50 48 38 18 10 5 4 4 4 5 10 17 25 40 57 67 69 64 76 86
100 98 97 97 98 100 100 99 93 95 98 98 98 97 97 96 97 90 84 79 64 61 63 42 19 9 5 5 5 5 6 10 11 12 15 16 34 37 62 89 100 100 100
97 98 98 100 100 98 90 91 94 99 100 100 99 98 95 92 84 87 81 74 75 57 28 13 7 5 6 6 7 10 15 13 14 13 17 31 59 68 58 72 100 99 96
100 100 100 97 93 87 86 92 96 93 89 92 97 89 84 81 80 74 72 63 48 34 13 8 6 7 8 9 11 15 14 14 12 11 14 38 63 69 69 77 94 98 98
92 93 100 99 92 94 92 90 91 94 93 92 84 80 79 75 70 63 59 55 48 25 9 8 9 10 12 15 19 18 18 19 18 15 18 38 58 79 74 78 85 96 98
93 100 100 97 94 94 92 93 86 91 88 80 81 78 71 62 56 57 59 58 27 10 10 11 12 15 21 29 30 26 27 27 25 26 27 40 55 83 81 100 100 98 99
98 99 98 97 93 89 76 74 75 76 75 71 67 63 63 61 62 62 52 15 11 11 12 15 24 33 38 40 39 35 30 27 27 29 30 34 54 85 80 87 88 90 99
98 87 78 79 77 72 68 64 60 58 56 50 47 45 54 44 28 23 26 21 20 17 22 33 44 54 60 57 48 41 35 33 33 32 36 45 62 80 88 87 85 97 100
87 72 63 57 50 48 45 42 37 33 33 37 38 33 29 33 40 40 48 55 49 38 44 49 55 64 68 64 58 51 49 49 46 48 43 49 60 73 86 91 95 97 97
69 69 72 69 72 78 55 50 47 37 74 91 72 57 58 60 66 78 87 84 80 60 58 68 75 81 79 76 69 62 60 52 52 56 51 46 54 77 81 90 95 96 96
95 96 95 92 74 74 86 86 83 94 88 78 93 94 91 92 92 91 93 91 73 69 83 88 88 85 84 79 66 59 54 52 61 65 61 55 52 74 82 92 95 96 96
96 96 96 97 96 95 95 96 95 95 95 95 95 96 96 96 98 98 91 77 73 86 91 89 87 86 86 73 62 60 65 66 67 70 71 67 61 69 81 93 96 95 96
96 96 96 96 96 95 95 95 95 95 95 95 95 96 96 97 98 96 94 94 96 97 95 92 93 94 91 79 72 76 72 70 76 76 80 81 75 68 79 93 96 96 96
95 95 95 95 95 96 95 95 95 96 96 96 96 98 100 100 100 100 100 100 100 100 100 99 98 96 89 79 80 79 75 80 79 88 88 87 85 76 74 87 95 97 96
95 95 95 95 96 95 95 93 91 95 98 97 98 100 99 99 99 100 100 100 100 100 100 97 95 83 76 81 79 81 85 86 90 93 95 95 92 84 78 81 94 96 96
92 89 82 75 75 82 88 93 96 99 100 100 100 100 100 100 100 100 100 100 100 100 99 95 81 73 79 78 79 83 88 93 97 98 100 99 96 90 84 87 97 97 96
62 70 78 86 89 93 97 100 100 99 99 99 100 100 100 100 99 96 98 97 92 88 82 76 71 73 81 83 86 92 96 100 100 100 100 100 99 94 85 82 92 96 96
91 93 93 94 96 99 100 100 100 100 100 100 100 100 100 100 100 99 96 93 89 81 74 64 59 79 88 89 89 93 97 100 100 100 100 100 98 92 86 80 88 97 96

GFSGL_850_rhum_075.txt.gz
RH
62 69 75 76 72 65 62 58 63 70 81 90 91 88 85 81 80 89 82 96 97 100 100 99 100 98 100 100 100 99 92 95 100 98 98 89 83 81 75 80 78 80 80
80 75 67 60 54 59 63 65 65 67 88 78 86 84 77 82 85 77 96 100 99 100 99 100 100 100 100 100 99 99 100 100 94 87 86 88 87 84 84 81 68 69 73
77 64 62 61 63 61 68 68 70 78 94 70 77 88 87 72 98 96 100 100 100 97 100 100 99 100 100 100 99 98 100 97 87 90 94 94 94 87 80 74 74 71 73
64 72 68 67 67 67 71 75 72 70 79 66 82 99 91 82 87 100 100 100 100 100 100 100 100 99 100 99 98 98 98 91 95 98 96 87 81 73 74 73 74 72 73
64 71 75 77 74 79 83 88 87 92 82 82 100 90 84 94 100 100 100 100 100 100 100 100 100 99 98 100 99 98 98 99 96 86 82 80 80 80 77 73 70 62 54
65 71 76 84 89 82 86 99 100 100 100 100 100 98 99 100 99 99 100 100 100 100 100 100 98 100 99 100 93 96 96 88 86 85 78 69 60 48 25 9 11 15 16
71 74 78 86 83 81 81 89 99 100 100 99 100 100 100 100 100 100 100 100 100 100 100 100 100 100 95 84 86 82 74 68 60 52 36 13 5 7 16 24 39 54 54
80 87 92 98 93 96 97 99 100 100 98 99 100 100 100 100 100 100 100 100 100 100 100 100 95 77 65 57 51 47 43 23 8 5 5 7 11 12 17 28 53 70 69
82 98 100 100 97 88 95 100 100 100 100 98 100 100 100 100 99 99 100 100 100 98 83 69 62 55 51 48 24 10 5 4 5 5 6 7 6 8 21 47 46 96 98
95 98 99 99 100 100 100 100 100 100 100 98 99 100 100 99 100 100 99 95 87 78 70 61 56 54 24 10 6 5 5 5 6 6 6 6 7 10 34 66 73 92 100
99 100 97 93 100 100 96 97 99 99 100 97 96 98 100 100 99 100 100 99 89 79 73 67 38 16 8 6 6 7 10 10 12 11 11 10 10 12 23 56 69 87 100
100 98 97 97 98 99 99 100 100 100 100 99 100 99 100 100 100 100 100 91 85 77 56 40 17 8 7 8 10 16 18 18 17 16 14 14 14 13 16 31 68 72 100
98 100 100 100 100 100 100 100 100 100 100 100 100 100 100 100 93 88 87 80 68 60 50 19 9 10 12 17 27 29 26 22 19 17 16 16 16 16 16 20 55 75 94
100 100 98 99 100 100 100 100 100 100 99 99 100 98 88 87 88 82 72 68 62 54 20 12 13 16 22 32 34 33 27 25 22 21 18 16 16 15 15 26 56 82 85
96 98 98 98 99 100 100 100 100 100 99 96 94 96 88 82 76 76 82 81 57 20 16 18 25 34 40 46 44 40 35 31 26 23 21 17 15 14 16 25 53 86 98
93 99 98 98 100 99 96 98 95 92 91 90 83 72 73 80 84 71 42 36 35 36 33 37 46 53 54 56 53 50 48 42 36 31 26 24 22 19 18 28 56 87 95
98 100 100 96 93 94 90 95 96 96 81 46 39 38 40 46 64 81 63 65 78 83 78 67 67 72 71 72 73 69 64 55 44 36 36 38 36 35 29 33 54 83 87
87 88 95 96 91 93 95 96 95 93 89 94 95 95 95 95 96 96 96 96 96 96 91 79 84 84 84 83 79 75 68 54 47 48 49 50 51 52 46 43 62 84 93
91 96 96 97 97 97 97 96 96 96 96 96 96 96 96 96 96 96 95 95 96 96 95 94 91 90 89 85 83 78 64 52 56 57 58 62 65 66 57 55 66 84 96
97 97 97 96 96 97 97 96 96 96 96 95 96 96 96 96 96 96 96 96 96 96 94 95 97 96 93 90 86 76 59 59 62 60 62 67 72 75 76 68 72 87 93
96 96 96 96 96 96 95 94 94 95 95 94 95 96 96 96 96 96 97 98 97 97 98 97 98 98 96 91 82 64 61 66 69 72 75 75 82 84 82 77 73 78 94
95 95 95 95 95 94 94 93 93 94 95 96 96 97 97 98 100 100 100 100 100 100 100 100 100 98 97 92 77 74 78 75 75 76 80 85 88 89 89 86 79 80 95
94 94 93 91 90 88 86 86 88 91 93 95 98 100 99 98 98 99 99 99 99 100 100 100 99 97 92 82 77 81 80 82 84 88 93 94 94 94 95 92 87 82 97
78 69 64 63 67 73 81 87 92 95 96 96 96 96 96 98 99 98 97 95 95 94 92 92 91 88 82 72 70 82 88 90 93 98 100 100 100 99 98 94 90 84 92
75 78 80 84 86 89 92 94 96 96 97 98 98 98 98 99 99 98 96 95 93 91 87 86 83 75 68 63 82 92 94 96 100 100 100 100 99 99 99 97 92 86 86
69 67 66 67 68 70 74 79 84 89 90 90 90 91 95 99 100 99 95 90 85 78 72 68 67 67 68 84 92 95 95 98 100 100 100 100 99 94 100 100 96 90 87

GFSGL_850_rhum_078.txt.gz
RH
42 49 54 57 55 51 48 46 48 51 51 45 41 53 70 82 80 82 91 85 87 95 94 94 100 97 98 100 97 99 100 99 100 97 91 94 90 83 81 85 84 83 84
49 52 44 41 45 43 41 41 48 48 40 49 66 76 73 78 76 88 90 87 79 89 86 100 100 98 100 100 96 98 98 100 99 100 99 92 84 88 88 72 75 74 76
56 56 55 55 60 50 54 60 63 60 61 65 74 79 92 93 77 73 87 82 78 91 90 100 100 100 100 100 98 100 99 100 100 99 99 95 93 88 86 71 58 50 48
64 64 64 65 69 69 68 66 67 72 76 82 79 78 80 97 86 82 94 94 92 99 99 100 100 100 99 99 100 100 99 100 100 99 98 98 97 82 72 65 48 26 15
68 71 69 70 70 70 71 75 80 79 83 87 90 79 73 91 83 97 96 100 100 100 100 100 100 98 100 100 100 100 100 100 100 100 99 91 78 67 47 28 10 4 4
60 66 71 76 76 77 81 83 89 91 99 99 99 100 100 84 93 96 97 100 100 100 100 100 98 100 95 99 99 100 98 99 94 90 81 64 43 23 5 5 5 6 7
58 66 69 74 78 83 88 95 99 99 100 97 98 100 100 100 99 100 99 100 100 100 99 99 99 99 100 100 99 99 93 84 66 50 40 19 5 5 6 5 5 5 9
59 70 75 78 83 89 100 98 86 93 91 92 100 100 100 99 99 100 100 100 99 100 100 100 100 100 100 98 85 69 51 42 30 11 5 5 6 6 6 7 8 14 15
62 73 83 89 96 100 100 96 97 99 99 100 100 100 100 100 100 100 100 100 100 100 100 100 100 96 80 65 53 45 23 9 5 5 6 7 6 6 7 10 14 44 27
73 97 99 99 99 92 88 96 100 100 100 100 100 100 100 100 100 100 100 100 100 100 100 92 90 76 62 50 25 10 6 5 6 6 7 8 8 8 9 11 19 36 54
99 99 99 100 100 100 100 100 100 100 100 100 100 100 100 100 100 100 100 100 99 94 91 85 74 63 37 18 9 7 6 7 7 8 9 8 9 9 10 11 14 23 43
100 100 100 100 100 100 100 100 100 100 100 100 100 100 100 100 100 100 99 99 99 96 88 75 57 40 20 9 7 8 9 10 15 13 13 13 12 12 12 12 13 17 33
98 99 99 100 100 100 100 100 100 100 100 100 100 100 100 100 100 100 100 99 93 83 69 54 42 20 9 10 14 14 19 28 23 18 17 16 16 15 14 13 14 15 20
97 100 100 100 99 99 99 99 100 100 100 100 99 99 99 99 100 100 95 92 82 75 59 41 19 13 15 21 28 34 35 29 24 24 22 21 19 17 16 16 14 15 16
98 99 98 96 97 99 99 100 100 99 100 98 99 100 99 98 97 97 96 90 78 62 31 24 24 28 36 42 44 43 37 31 34 34 31 25 22 21 20 22 21 17 26
96 95 97 99 100 100 100 100 100 100 99 98 97 97 97 96 96 96 91 60 41 51 56 54 47 49 51 52 53 65 59 50 56 53 36 31 28 28 28 30 33 33 28
98 100 100 100 100 100 100 99 98 97 97 95 93 87 78 69 52 49 75 94 94 93 95 94 93 94 94 95 95 95 95 92 66 53 42 40 42 43 43 41 43 42 35
100 100 100 100 99 97 97 97 96 95 95 95 96 96 96 95 95 95 95 95 96 95 95 95 95 96 96 96 97 97 91 75 69 58 53 57 57 58 57 60 59 52 46
98 98 97 97 96 96 96 96 94 95 96 96 96 96 94 96 96 96 95 95 95 95 96 96 96 97 97 97 95 92 88 81 73 64 68 70 73 78 73 72 69 65 61
97 97 96 96 96 96 95 94 94 94 95 96 96 96 97 96 96 95 95 95 96 97 98 100 100 100 100 100 99 98 94 87 76 78 79 80 78 80 77 81 82 81 69
96 96 96 95 95 94 93 93 93 94 95 95 94 95 95 95 96 97 98 99 99 99 100 100 100 100 100 100 100 100 98 84 81 86 85 84 83 84 88 87 87 87 83
95 95 95 94 93 92 91 92 92 91 91 92 92 92 92 92 93 94 96 97 98 99 100 99 99 99 98 98 100 98 93 82 85 91 89 87 90 93 93 93 91 89 89
95 94 94 90 80 71 68 71 75 80 84 87 90 91 89 88 88 90 92 92 92 92 91 90 86 84 88 92 92 88 79 75 92 98 98 98 97 96 96 96 98 97 95
81 70 70 75 78 80 81 82 82 82 82 81 81 81 82 85 88 90 92 92 90 88 87 84 82 79 77 75 73 72 75 95 100 100 100 100 98 95 98 100 100 100 99
67 64 60 56 53 51 54 55 58 62 64 66 68 69 71 75 79 80 80 78 75 71 68 68 70 72 73 72 72 84 98 100 100 100 100 100 100 98 99 100 100 100 100
32 34 36 40 42 46 49 52 53 54 55 56 56 57 58 60 63 64 64 64 65 65 66 68 69 70 69 72 88 100 100 100 100 100 100 100 100 98 100 100 100 100 100

GFSGL_850_rhum_081.txt.gz
RH
38 48 60 68 72 67 60 59 55 54 53 51 47 46 45 49 65 64 65 77 76 91 86 82 79 97 98 98 100 94 99 100 100 98 98 96 92 92 91 85 82 84 84
29 34 41 41 48 52 51 44 49 49 50 49 47 46 52 61 62 72 78 82 88 99 98 99 85 87 96 97 94 100 99 100 100 98 100 99 93 96 89 85 81 72 67
42 38 36 37 36 33 39 40 42 42 46 47 48 50 55 57 66 73 81 92 85 98 98 99 99 97 100 98 99 100 100 99 100 99 99 97 99 97 91 77 67 61 47
52 49 45 44 38 39 49 55 55 52 51 52 54 56 63 74 77 83 95 99 90 92 99 100 100 100 99 100 100 99 100 100 100 100 99 99 99 97 82 70 54 31 11
59 58 56 53 55 46 48 56 61 64 70 76 79 81 83 86 94 98 99 100 100 100 98 99 99 99 100 100 100 100 100 100 100 99 100 100 88 83 75 44 16 5 4
58 57 60 61 58 58 59 64 70 76 81 86 88 93 96 98 99 100 100 100 100 100 99 100 100 100 100 99 100 100 99 99 100 100 98 87 72 48 25 5 5 7 27
49 57 65 69 71 71 70 69 72 79 89 95 99 99 99 99 100 100 100 100 100 100 100 100 100 100 100 100 100 99 100 100 96 95 75 49 28 7 6 6 6 10 18
53 59 65 72 78 80 85 91 96 97 98 99 99 100 100 100 100 100 100 100 100 100 100 100 98 99 100 100 100 100 94 81 55 41 22 8 6 6 7 7 7 8 9
50 58 66 76 84 93 100 100 100 100 100 100 99 100 100 100 100 100 100 100 100 100 100 100 100 100 100 99 94 83 60 38 18 8 6 7 8 8 7 8 9 13 45
60 74 87 97 99 99 100 100 100 99 98 99 100 100 100 100 100 100 100 100 100 100 100 100 100 99 97 89 62 35 17 10 8 9 10 10 10 10 10 9 9 12 14
85 100 98 99 100 100 100 100 100 100 100 100 100 100 100 100 100 100 100 100 100 99 99 96 94 95 90 54 30 16 10 8 7 9 10 11 10 11 10 9 10 10 11
100 100 100 100 100 100 99 98 100 100 100 100 100 100 100 100 100 100 100 100 99 100 99 97 95 90 51 29 14 8 8 10 12 16 18 22 27 24 19 12 12 11 11
100 100 99 98 99 99 100 100 100 100 100 100 100 100 100 100 100 100 100 100 99 96 97 96 81 48 29 15 16 20 21 31 36 26 33 56 48 21 17 15 15 13 12
99 98 95 97 99 100 100 99 100 100 100 100 100 100 100 99 100 100 99 97 97 96 94 90 65 32 29 32 35 38 39 37 36 36 46 40 29 37 50 39 19 17 15
99 100 100 100 100 99 100 100 100 100 100 100 100 100 100 99 98 97 97 97 96 94 85 47 40 45 48 57 60 50 50 54 68 78 73 82 87 69 40 29 28 32 32
98 97 98 97 100 100 100 99 100 100 100 99 98 98 97 98 96 95 89 76 60 53 70 83 90 93 96 96 98 99 99 99 100 96 97 100 91 57 48 59 54 91 74
97 98 99 100 100 100 100 100 99 99 98 98 98 96 94 91 88 80 75 87 87 86 85 86 87 88 89 98 100 100 100 100 94 96 97 100 82 80 83 100 100 100 100
100 100 100 99 100 98 98 98 97 96 95 94 96 94 94 93 93 92 91 91 91 88 89 96 98 100 100 100 100 100 100 100 100 100 100 100 97 100 100 100 100 100 100
99 98 97 97 97 97 96 95 94 91 89 90 92 92 91 93 94 93 91 90 89 100 100 100 100 100 100 100 100 100 100 100 100 100 100 100 99 100 100 100 100 100 100
97 97 96 96 95 94 94 93 92 91 93 95 97 98 99 98 96 91 88 88 88 92 90 98 100 100 100 100 100 100 100 100 100 100 100 100 100 100 100 100 100 100 100
96 96 96 95 93 92 91 90 90 92 94 95 95 95 94 90 85 82 83 85 87 90 90 91 91 89 88 100 100 100 100 100 100 99 97 100 100 100 100 100 100 100 100
96 95 95 93 93 92 90 88 86 83 80 79 80 81 83 81 79 78 77 79 80 81 81 80 78 77 78 79 80 82 86 85 81 81 87 97 100 100 100 100 100 100 100
95 95 93 84 71 67 68 71 74 75 72 68 65 61 55 54 58 62 65 66 67 68 69 69 67 65 66 67 68 70 71 72 75 80 97 100 100 100 100 100 100 100 100
70 65 65 65 63 54 47 41 40 40 41 43 46 49 52 54 56 57 58 58 58 58 59 60 62 65 66 67 67 69 71 79 93 100 100 100 100 100 100 100 100 100 100
36 30 27 27 27 27 30 33 37 41 44 46 48 49 50 50 50 52 53 54 56 58 61 64 66 65 64 64 66 74 89 100 100 100 100 100 100 100 100 100 100 100 100
18 20 23 29 32 35 38 40 42 43 45 46 48 49 51 53 54 55 56 59 61 62 62 62 61 61 62 68 85 96 100 100 100 100 100 100 100 100 100 100 100 100 100

GFSGL_850_rhum_084.txt.gz
RH
93 98 99 99 99 98 96 96 94 92 94 96 77 77 64 60 59 65 69 60 75 81 73 76 85 88 90 88 86 98 84 100 91 92 99 93 89 86 92 88 95 90 95
91 94 96 97 96 93 88 78 75 74 75 65 61 63 69 71 65 80 89 86 66 69 76 85 79 96 99 100 100 97 81 97 100 100 100 98 93 89 98 96 93 96 94
82 83 82 80 73 57 58 60 72 67 65 84 87 86 60 57 58 60 57 54 62 70 73 95 90 98 99 100 100 99 96 100 100 100 100 99 100 100 99 97 96 100 96
77 71 53 38 49 60 78 98 95 94 92 90 91 84 69 70 57 56 60 69 80 82 84 98 97 98 100 100 100 100 100 100 100 98 96 100 100 100 100 100 97 86 71
84 77 46 39 37 38 42 56 70 77 90 94 95 96 92 82 76 76 81 84 88 94 98 100 99 99 100 99 99 100 100 100 100 100 99 100 99 100 97 84 71 60 48
62 63 71 56 46 47 48 63 87 93 92 93 78 69 75 85 87 91 97 98 100 100 100 100 100 99 100 100 100 100 100 98 100 100 100 100 99 98 84 68 56 48 43
51 63 64 66 67 60 61 80 89 99 100 96 85 85 89 94 95 98 99 100 100 100 100 100 100 100 100 100 100 100 100 100 100 100 100 98 89 66 60 52 54 57 57
48 62 61 60 72 80 81 81 91 83 75 75 85 89 94 99 99 99 99 100 100 100 100 100 100 100 100 99 99 100 100 99 98 97 93 68 37 17 10 16 32 38 48
45 62 64 64 73 81 75 72 74 79 85 86 93 99 100 100 99 100 100 100 100 100 100 100 100 100 100 100 100 98 96 90 61 35 31 29 8 6 6 7 9 66 78
58 72 72 62 62 72 80 87 91 94 99 100 100 100 100 100 100 100 100 100 100 100 100 100 100 100 100 99 95 79 60 57 44 15 8 6 6 7 7 9 20 40 69
68 57 62 71 79 90 98 99 100 100 100 100 99 100 100 100 99 100 99 100 100 100 100 100 99 99 98 91 68 55 39 23 9 7 8 10 12 14 16 24 26 28 68
88 89 96 99 99 99 99 99 100 100 100 100 100 100 100 100 100 100 100 100 100 100 99 97 95 95 88 63 45 24 14 23 28 27 34 42 59 55 60 88 88 54 54
100 100 100 99 100 100 100 100 98 99 100 100 100 100 100 100 100 100 100 100 100 99 98 97 97 94 92 86 74 42 33 38 41 42 62 77 82 86 79 55 70 74 78
100 100 100 100 100 100 100 100 100 100 100 100 100 100 100 100 100 100 100 98 97 97 97 96 95 77 43 39 47 65 73 73 62 70 99 99 100 100 100 100 100 100 100
100 99 100 100 100 100 100 99 100 100 100 100 100 100 100 99 98 97 96 96 96 94 81 60 79 92 100 100 100 100 100 100 100 100 100 100 100 100 100 100 100 100 100
100 100 100 100 100 100 100 99 100 100 99 99 100 99 97 98 97 96 94 83 71 68 94 100 100 100 100 100 100 100 100 100 100 100 100 100 100 100 100 100 100 99 96
98 99 99 99 100 99 99 100 98 99 98 97 97 97 97 93 88 85 86 87 87 95 100 100 100 100 100 100 100 100 100 100 100 100 100 100 100 100 100 100 100 99 95
99 99 100 100 99 98 98 98 97 96 96 96 97 94 94 93 91 91 90 100 100 100 100 100 100 100 100 100 100 100 100 100 100 100 100 100 100 100 100 100 100 98 97
100 99 98 98 97 97 97 97 96 96 98 99 100 95 94 92 89 86 84 93 100 100 100 100 100 100 100 100 100 100 100 100 100 100 100 100 100 100 100 100 100 100 100
97 97 97 97 97 96 96 96 96 98 100 100 100 100 100 100 100 95 84 83 100 100 100 100 100 100 100 100 100 100 100 100 100 100 100 100 100 100 100 100 100 100 100
96 96 96 96 95 95 95 95 95 96 100 100 89 88 86 100 100 100 100 97 100 100 100 100 100 100 100 100 100 100 100 100 100 100 100 100 100 100 100 100 100 100 100
96 95 95 95 95 95 95 99 100 100 100 100 98 72 66 70 100 100 100 94 90 100 100 98 93 100 98 100 100 100 100 100 100 100 100 100 100 100 100 100 100 100 100
95 95 94 84 74 72 75 86 92 99 100 97 100 94 89 97 90 94 90 64 63 54 56 48 50 52 60 66 69 78 100 100 100 100 100 100 100 100 100 100 100 100 100
62 59 54 47 39 33 33 28 27 30 51 76 90 82 66 75 81 62 48 42 42 45 48 51 54 56 56 56 58 62 72 83 93 96 99 100 100 100 100 100 100 100 100
19 16 16 18 18 22 26 30 33 37 39 44 49 53 48 45 46 44 43 44 47 51 54 55 54 54 54 55 60 72 85 92 96 98 99 100 100 100 100 100 100 100 100
14 17 19 22 24 28 31 34 36 38 40 39 40 41 42 44 45 47 50 53 54 53 53 52 53 54 58 67 81 88 92 96 98 100 100 100 100 100 100 100 100 100 100

GFSGL_850_rhum_087.txt.gz
RH
98 99 97 94 93 94 94 86 89 72 73 76 79 78 82 89 82 85 78 80 86 82 80 80 82 90 88 84 86 99 99 100 95 90 89 90 88 93 100 100 97 88 89
92 98 98 95 94 95 95 90 83 78 79 85 84 85 86 88 87 86 85 87 84 84 82 89 92 92 96 86 93 100 95 99 100 100 100 98 96 100 100 95 90 93 91
79 88 92 95 98 96 91 87 90 89 86 87 84 82 86 86 87 86 86 87 86 85 85 87 87 88 90 90 91 96 98 100 100 100 99 100 100 100 100 100 98 98 100
73 80 86 90 92 92 94 94 92 92 91 90 87 90 89 87 83 84 83 85 87 87 89 85 78 92 93 99 97 98 100 100 100 100 100 100 100 100 100 100 100 100 99
73 76 80 86 89 91 94 96 98 93 93 92 90 89 88 86 86 88 86 85 86 92 95 99 98 100 100 100 99 100 100 99 100 100 100 100 100 100 100 100 100 98 98
74 76 78 84 87 90 91 91 92 92 94 91 89 86 86 87 87 86 90 93 99 100 100 100 100 100 100 100 100 100 100 100 100 100 100 100 100 100 100 100 98 97 80
75 76 78 81 86 85 89 90 91 96 94 93 90 89 91 95 98 99 100 100 100 100 100 100 100 100 100 100 100 100 100 100 100 100 100 100 100 100 98 97 95 76 58
72 73 75 77 79 81 82 82 83 87 92 91 92 98 98 99 99 99 100 100 100 100 100 100 100 100 100 99 100 100 100 100 100 100 100 99 97 95 87 65 56 44 44
68 70 71 73 75 76 76 78 80 85 94 99 99 100 100 99 100 100 100 100 99 100 100 100 100 100 100 100 100 99 100 100 98 95 92 80 50 23 18 38 27 12 23
65 65 68 72 76 77 77 79 81 90 100 100 99 100 100 100 100 100 100 100 100 100 100 100 100 100 100 100 100 98 94 86 79 45 29 44 74 55 34 15 12 23 72
64 68 69 74 80 86 86 90 90 93 100 100 100 100 100 100 100 100 100 100 100 100 100 100 100 100 99 96 91 78 60 57 69 52 23 18 43 57 71 74 73 78 78
62 76 89 94 96 97 99 100 100 100 100 100 100 100 100 100 100 100 100 100 100 100 99 100 99 97 95 92 85 90 92 67 70 68 67 80 88 88 89 93 96 96 95
89 97 99 100 100 100 100 100 100 100 100 100 100 100 100 100 100 100 100 100 100 100 99 97 96 96 96 93 90 63 41 48 66 94 100 99 95 93 94 96 100 100 100
100 100 100 100 100 100 100 99 99 100 100 100 100 100 100 100 100 100 100 99 98 96 96 96 92 84 74 70 86 96 98 95 88 95 100 100 100 100 100 100 100 100 97
100 100 99 100 100 100 100 100 100 99 100 100 100 100 99 100 99 97 97 96 97 94 86 90 100 100 99 100 98 96 100 95 100 100 95 100 100 100 100 100 100 99 95
100 100 100 100 100 100 100 98 98 100 100 99 99 99 97 97 96 97 96 95 93 91 100 100 99 100 100 100 99 99 97 98 97 100 100 100 100 100 100 99 97 96 96
99 99 99 100 100 99 100 98 96 98 98 96 97 96 97 96 96 96 93 85 85 100 100 100 100 98 100 100 100 100 100 100 99 100 100 100 100 100 97 100 95 95 95
100 100 98 98 98 98 98 98 96 96 96 96 96 96 95 95 91 88 92 100 99 100 100 100 100 100 100 100 100 100 100 100 100 100 100 100 100 100 100 99 98 97 97
100 99 98 97 96 96 96 96 96 96 96 95 95 95 94 94 89 83 82 94 100 100 100 100 100 100 100 100 100 100 100 100 100 100 100 100 100 100 100 100 100 98 97
97 97 96 96 96 96 96 95 95 95 95 95 95 97 98 100 99 95 77 85 100 100 100 100 100 100 100 100 100 100 100 100 100 100 100 100 100 100 100 100 100 100 100
97 97 96 96 95 96 95 95 95 94 94 94 87 91 99 100 100 100 100 100 100 100 100 100 100 100 100 100 100 100 100 100 100 100 100 100 100 100 100 100 100 100 100
96 96 96 95 95 95 95 96 99 100 100 100 94 63 58 85 100 100 100 98 93 93 95 98 95 100 100 100 100 100 100 100 100 100 100 100 100 100 100 100 100 100 100
96 96 96 97 99 99 100 100 100 100 100 100 100 100 100 100 98 97 94 59 44 44 57 50 69 81 95 93 66 94 100 100 100 100 100 100 100 100 100 100 100 100 100
70 65 64 72 80 81 65 44 44 86 100 100 100 100 100 99 97 94 70 43 40 48 50 52 50 51 51 50 54 63 66 79 86 88 93 100 100 100 100 100 100 100 100
20 28 48 72 84 92 99 98 99 99 97 99 97 95 92 99 100 97 77 51 47 48 48 48 49 49 50 52 58 67 76 81 86 91 94 95 97 99 100 100 100 100 100
30 41 64 85 92 99 99 100 95 82 85 96 98 99 100 100 97 73 70 53 48 48 48 50 49 49 53 60 70 78 81 85 88 93 97 96 94 95 100 100 100 100 100

GFSGL_850_rhum_093.txt.gz
RH
98 99 97 95 96 94 91 84 70 62 55 63 64 62 58 58 66 69 82 77 72 68 65 59 57 53 56 58 59 61 66 67 74 69 74 69 78 86 88 90 98 93 95
100 98 99 98 94 97 97 91 89 74 61 53 53 54 56 63 61 74 80 72 73 68 60 62 58 60 64 63 66 64 66 63 69 74 73 78 87 90 92 100 100 100 100
100 100 99 98 98 97 98 98 94 84 71 64 58 58 60 63 62 70 71 71 77 73 73 70 68 66 67 66 68 69 75 74 73 79 82 91 100 99 99 99 95 100 100
83 99 99 99 98 98 97 94 91 87 83 76 67 61 60 64 71 70 77 81 78 74 71 75 75 73 69 76 86 92 87 83 87 97 97 100 100 100 99 100 100 100 100
73 82 92 100 98 98 98 95 97 96 92 88 86 78 61 61 62 76 77 80 78 77 79 78 81 82 84 92 96 87 87 95 100 100 99 100 100 100 100 92 100 100 100
72 77 83 82 96 98 99 98 99 98 94 95 91 84 77 68 64 66 67 67 72 83 90 85 87 86 90 93 91 96 100 100 100 100 100 100 99 99 98 100 98 99 99
70 70 74 85 84 82 88 95 98 97 100 95 85 85 88 86 85 85 83 84 86 91 90 92 95 94 92 96 96 100 100 100 99 100 99 99 99 99 98 100 100 100 98
67 70 71 82 90 87 84 83 88 89 93 97 86 87 87 86 97 97 97 99 99 98 92 96 96 100 100 99 100 100 100 100 100 98 98 100 99 100 99 98 95 82 68
67 68 72 76 82 90 93 91 94 95 96 98 93 88 93 95 98 98 99 98 98 100 100 98 100 100 99 100 99 100 99 100 99 100 100 100 98 96 84 60 56 63 73
73 65 75 76 76 80 87 94 99 100 100 99 97 94 90 94 98 100 100 100 100 100 100 100 100 100 100 98 100 100 100 99 96 95 96 88 68 81 84 72 64 65 70
75 84 74 79 80 80 83 90 93 96 98 100 100 100 100 100 100 100 100 100 100 100 100 100 100 98 100 99 100 100 97 95 95 95 95 94 88 79 74 78 81 82 85
80 81 85 89 87 83 82 86 92 91 93 100 100 100 100 100 100 100 100 100 100 100 100 98 100 100 98 100 97 96 96 95 95 94 91 81 78 76 79 82 83 84 87
98 96 99 99 96 96 81 83 89 95 94 96 100 100 100 100 100 100 100 100 100 100 99 99 96 96 97 97 96 96 95 95 92 80 72 71 69 70 68 64 59 53 52
99 100 100 100 100 100 100 100 100 98 100 100 100 100 100 99 98 100 99 95 100 97 99 96 97 96 97 96 96 92 82 76 79 84 84 78 60 47 37 38 38 38 41
99 99 100 100 100 100 100 100 100 100 99 100 97 97 98 97 94 93 98 99 96 98 96 96 96 96 94 94 93 91 87 83 75 66 62 48 44 44 43 49 57 62 64
85 95 98 99 99 99 100 100 100 100 98 98 96 93 97 94 96 92 90 95 97 96 95 96 96 94 92 90 88 85 81 74 68 64 61 56 59 60 55 56 61 68 70
90 93 95 97 97 97 98 96 97 98 97 98 98 97 95 95 94 97 96 96 94 96 95 94 90 91 90 86 77 75 69 62 63 60 54 64 65 68 61 63 64 72 74
100 99 98 98 97 96 96 97 96 95 95 95 96 96 96 97 96 95 94 95 96 95 91 86 76 66 62 56 53 50 48 45 45 56 60 64 58 56 61 69 77 80 81
99 98 98 96 96 98 98 96 96 96 96 94 94 95 95 96 96 95 94 84 66 54 51 49 52 51 47 43 43 41 44 50 55 57 56 55 59 64 65 67 70 75 78
96 98 97 96 95 95 97 96 96 94 94 95 95 95 96 96 84 56 35 32 36 43 48 43 40 32 33 37 35 35 41 44 46 50 52 52 54 57 58 60 65 72 80
94 95 96 96 96 96 96 95 94 94 93 94 93 81 50 26 28 27 27 28 27 26 25 27 29 31 32 34 38 39 42 43 40 41 47 56 60 60 64 67 71 76 84
96 96 96 95 95 95 95 96 97 97 95 91 87 65 42 31 29 26 25 24 26 30 31 30 30 31 35 37 38 39 40 40 43 51 58 60 63 70 73 74 77 82 89
96 96 96 95 94 95 89 79 66 58 54 51 51 49 40 31 32 32 30 29 30 32 35 37 37 37 38 37 38 39 41 44 51 57 60 64 70 74 78 82 87 90 92
95 94 93 88 80 72 65 60 59 56 54 52 49 45 40 35 30 30 33 35 37 35 34 35 33 33 34 36 38 39 44 55 62 63 65 68 75 81 85 89 93 94 94
41 40 45 47 45 47 51 55 57 55 51 48 52 48 48 45 38 33 36 36 34 33 35 36 34 32 34 35 36 45 56 59 62 66 70 75 80 86 90 90 93 93 96
29 34 40 46 44 46 47 49 55 55 50 47 40 39 44 48 37 37 38 37 38 38 37 35 35 35 37 39 42 52 56 62 67 71 73 76 82 89 95 95 95 97 96

GFSGL_850_rhum_096.txt.gz
RH
68 91 89 88 84 79 72 77 75 73 82 86 81 79 83 84 76 69 72 72 68 75 80 82 82 73 69 66 64 62 63 64 70 60 61 59 66 68 68 76 92 96 99
60 86 95 92 86 81 79 80 78 72 70 78 75 74 81 89 74 67 68 70 75 74 79 80 79 75 66 60 59 60 62 63 68 72 67 69 75 81 80 87 88 100 99
57 82 97 99 93 91 90 87 86 77 65 63 65 68 67 78 80 75 77 75 76 76 72 74 72 69 67 63 60 64 64 66 68 78 82 86 89 93 93 91 97 99 100
66 63 98 98 97 96 94 94 93 90 85 77 68 58 64 61 61 61 58 58 67 70 75 75 72 73 75 72 69 70 73 78 81 87 94 100 99 99 99 99 99 100 95
72 62 83 98 98 98 97 96 98 98 94 92 89 74 61 63 62 57 55 61 61 60 73 76 76 76 75 75 75 78 84 88 93 95 95 100 100 100 99 100 100 100 100
73 69 56 71 99 97 98 98 98 98 97 92 88 86 77 67 59 58 60 62 67 72 80 78 74 80 81 82 87 88 85 93 100 100 100 100 100 99 100 99 99 99 99
79 74 70 63 67 92 98 97 98 98 97 96 96 95 87 82 79 77 64 60 61 64 69 76 77 81 73 93 88 91 96 98 98 100 100 100 100 99 99 99 100 100 100
82 81 79 75 76 84 87 96 98 98 98 98 98 98 95 90 85 86 84 82 77 71 72 72 72 82 90 99 100 100 100 100 100 100 100 97 99 99 98 98 93 92 94
88 92 92 85 83 83 87 89 93 99 100 98 99 94 97 88 82 84 88 99 97 94 93 91 94 100 100 100 100 100 100 100 100 100 97 100 99 98 91 90 90 85 82
100 98 99 99 92 91 86 88 90 91 93 96 100 100 100 100 100 96 93 99 99 100 100 100 100 100 100 100 99 100 99 99 100 99 99 98 98 96 90 84 73 62 65
89 99 99 96 99 100 99 97 94 93 96 100 100 100 100 100 100 100 100 100 100 100 100 100 100 100 99 98 99 100 98 99 97 97 96 97 96 92 77 67 66 69 75
97 97 100 99 100 100 98 100 100 100 100 100 100 100 100 100 100 99 100 100 100 100 100 100 98 99 100 100 98 98 98 96 97 97 95 96 94 82 78 74 68 65 66
99 100 99 100 100 100 100 100 100 100 100 100 100 100 100 100 100 100 100 100 100 100 99 95 96 96 97 96 96 96 93 95 96 95 89 76 70 52 39 32 23 18 19
100 99 100 100 99 100 100 100 100 100 100 100 100 100 100 100 100 100 99 99 100 95 96 96 97 97 94 96 96 96 95 95 92 80 48 30 22 20 16 15 14 14 16
98 100 100 99 99 99 99 100 100 99 99 100 100 100 99 97 97 98 98 98 97 97 97 98 97 98 95 95 95 94 91 69 36 27 22 22 20 19 20 21 22 24 30
98 98 99 100 100 96 92 91 94 95 94 99 97 96 100 96 97 98 97 98 96 96 97 96 96 95 96 96 88 68 46 28 22 24 22 20 20 22 25 30 35 36 36
92 98 98 100 100 99 99 95 88 99 98 98 98 96 96 97 98 97 96 96 96 97 95 95 94 93 91 83 56 36 29 28 30 24 23 25 29 32 35 36 39 40 42
96 96 97 96 100 99 98 96 98 98 95 94 97 95 96 96 96 96 96 97 94 96 94 93 85 66 50 41 39 38 38 34 29 32 35 36 36 37 38 40 43 47 52
96 94 97 99 98 98 96 95 98 97 95 94 96 96 96 96 95 95 95 95 85 57 46 36 36 36 34 36 34 36 33 30 30 32 36 38 38 42 48 51 54 57 59
96 96 96 97 96 99 98 94 95 95 94 95 96 95 95 95 86 69 41 24 23 26 31 28 29 32 33 31 29 25 29 32 34 37 39 45 51 51 54 58 61 64 68
96 96 96 96 96 96 96 95 95 95 95 94 93 90 74 36 21 24 27 29 27 28 29 30 30 30 32 33 33 32 33 36 39 40 44 50 52 56 64 67 69 72 73
95 94 94 95 95 96 96 95 95 94 89 68 41 34 29 21 23 25 27 27 28 26 27 30 33 34 35 34 33 33 33 34 38 46 52 56 63 66 68 71 72 74 75
95 95 96 95 95 95 94 93 88 77 55 38 34 32 29 24 24 25 27 29 28 27 28 29 30 31 31 30 30 32 36 41 47 54 58 63 66 70 71 73 74 75 81
95 95 95 94 87 74 60 50 44 40 36 35 34 31 30 29 26 26 28 29 30 31 31 30 30 30 28 29 33 38 42 46 55 61 61 61 66 71 73 75 80 84 86
89 79 68 57 50 39 38 41 40 38 34 32 30 31 31 30 31 32 31 33 33 32 32 33 34 34 34 35 38 41 47 56 58 60 60 62 66 72 78 82 85 86 92
33 35 38 42 42 42 39 39 40 41 39 36 33 31 32 36 36 37 38 39 40 42 40 38 37 37 37 36 38 39 48 54 60 62 61 60 66 74 82 87 90 93 96

GFSGL_850_rhum_099.txt.gz
RH
59 63 80 86 83 83 86 88 93 96 96 100 100 96 82 81 84 85 85 80 74 71 72 67 58 67 76 71 70 77 78 71 69 62 61 58 62 62 64 70 77 80 84
61 64 77 84 82 86 84 88 84 85 83 86 99 100 99 97 94 89 92 84 73 68 71 67 69 77 76 71 70 75 74 65 69 68 65 63 66 68 72 80 88 94 98
73 62 75 82 85 82 80 80 78 78 80 73 83 96 95 94 92 90 90 81 72 66 73 72 70 73 78 78 74 77 72 66 68 72 66 71 74 78 82 88 95 98 99
78 70 66 76 83 82 80 78 76 77 79 81 74 79 82 81 82 84 85 79 73 70 70 69 71 73 75 71 72 72 72 76 77 78 82 84 81 81 83 92 96 100 99
87 80 69 68 80 90 89 86 85 84 85 83 79 69 74 72 70 77 86 82 75 75 76 78 74 74 79 79 82 79 77 76 77 84 86 83 87 94 98 95 99 99 99
92 91 87 78 85 91 95 92 92 89 90 91 87 81 69 68 64 61 72 81 78 73 63 59 59 65 65 68 89 88 80 82 80 88 88 97 98 100 100 100 100 100 100
93 90 91 89 88 99 98 98 96 94 94 96 98 97 92 91 86 66 61 68 67 64 62 59 56 61 68 83 87 83 83 85 80 92 100 100 100 100 100 100 100 100 100
96 100 99 97 91 89 100 98 96 98 96 95 98 99 98 95 93 90 80 69 65 63 63 61 64 64 68 75 77 86 94 92 96 99 100 100 99 100 99 97 99 100 99
100 100 100 97 99 98 95 100 98 98 98 98 98 98 98 99 96 97 99 99 95 91 91 94 89 87 90 86 83 93 100 100 99 100 100 100 98 99 98 99 99 98 97
98 100 100 98 100 100 99 100 100 99 100 99 99 99 99 99 100 98 100 100 100 100 100 100 100 99 100 100 100 100 100 100 100 100 98 99 99 98 99 99 97 96 95
91 95 99 100 100 100 100 100 100 100 100 100 100 100 100 100 100 99 99 100 100 100 100 100 100 100 100 100 100 100 100 99 97 97 98 99 98 98 96 96 96 93 81
99 98 99 100 100 100 100 100 100 100 100 100 100 100 100 100 100 100 100 100 100 100 100 100 100 100 99 100 100 98 97 98 97 95 96 96 96 96 95 85 44 22 17
99 99 98 100 100 100 100 100 100 100 100 100 100 100 98 99 100 100 100 100 100 100 100 99 98 99 95 96 97 98 97 98 97 97 96 95 93 50 19 13 12 14 15
100 99 100 99 100 100 100 100 100 100 100 99 100 100 100 99 99 98 99 99 99 98 97 97 97 99 98 99 97 96 96 97 95 90 55 22 13 13 13 14 14 13 13
100 100 99 99 100 100 100 100 100 100 99 99 95 93 97 97 99 98 100 98 100 99 96 98 97 95 96 96 96 95 90 42 19 15 16 14 15 15 14 13 14 16 17
90 99 99 99 100 100 100 98 98 99 100 100 100 97 100 98 96 98 96 95 95 96 97 97 96 96 96 95 84 30 19 16 15 17 16 16 16 16 16 18 20 23 26
93 99 97 97 96 99 100 100 99 100 98 97 97 97 97 97 97 97 98 96 97 97 95 95 96 95 93 54 24 22 18 17 19 17 16 17 19 21 23 27 29 30 34
96 97 96 96 94 95 98 96 94 91 90 93 95 93 95 96 96 96 97 97 96 96 96 95 90 67 37 25 21 19 18 19 19 21 21 22 25 29 32 34 37 41 42
98 98 94 94 94 94 94 93 92 92 92 92 96 96 96 96 96 95 96 96 95 90 66 41 31 28 24 23 21 20 21 22 23 26 29 32 33 36 41 44 47 47 52
96 96 96 94 94 95 97 95 96 95 94 95 95 95 94 95 95 92 62 38 29 26 28 24 24 23 22 22 22 24 25 28 30 33 35 37 44 46 49 51 54 57 59
97 96 96 96 95 95 94 95 95 95 95 95 95 95 82 45 21 20 20 20 19 20 21 21 22 23 24 25 28 30 32 34 36 38 43 50 51 57 62 63 63 62 61
96 95 96 95 95 96 96 96 94 95 92 68 34 28 28 17 16 17 18 18 20 20 21 24 26 27 28 29 30 32 34 38 40 46 54 56 59 62 64 63 64 67 72
96 96 96 96 96 95 94 94 87 67 39 21 23 23 22 18 18 18 19 21 24 26 26 28 29 29 29 29 31 35 38 40 44 54 59 59 57 59 64 70 73 76 78
95 95 94 94 93 85 72 54 37 31 29 28 27 24 22 22 22 23 25 27 28 29 29 29 29 29 30 31 32 35 38 41 47 53 54 55 59 63 68 74 79 82 84
90 79 66 53 45 36 33 32 32 32 30 30 30 29 29 30 30 31 32 32 33 34 34 36 36 35 34 33 32 34 36 40 46 51 55 58 60 65 71 79 87 85 85
31 32 32 35 35 35 32 30 30 32 32 33 33 34 35 35 35 35 36 37 37 36 35 34 33 32 31 33 34 36 39 43 48 53 58 61 63 68 73 77 84 86 89

GFSGL_850_rhum_102.txt.gz
RH
66 72 56 73 84 83 90 89 81 94 99 98 99 99 100 100 100 99 100 92 80 88 83 84 74 76 70 69 67 65 68 83 82 78 69 64 64 59 59 66 70 70 74
68 67 51 74 80 80 85 89 86 84 98 97 96 100 100 100 100 99 88 79 76 89 86 83 78 76 66 73 76 80 80 82 82 70 72 70 61 61 62 69 75 75 77
82 64 56 78 83 83 82 87 86 84 89 100 100 100 98 100 99 94 89 81 88 89 87 77 77 79 79 74 72 78 78 75 78 77 77 74 69 69 72 75 75 81 82
94 75 58 73 80 87 86 85 88 86 81 83 85 94 100 100 100 94 89 91 90 90 84 78 74 77 79 77 81 82 75 85 79 83 80 76 79 74 74 76 77 90 100
92 95 84 65 70 85 90 87 86 91 82 75 79 79 82 99 98 98 99 92 91 94 86 79 72 70 68 73 82 85 84 89 89 91 86 82 76 77 78 96 100 100 100
100 100 99 97 84 84 88 89 88 85 80 78 79 82 82 79 88 91 91 91 93 96 93 83 77 72 69 81 90 73 76 88 81 83 97 100 94 91 97 97 100 100 99
100 100 100 100 98 85 86 91 93 90 87 85 84 86 86 83 74 77 78 78 78 79 80 78 74 76 80 80 66 63 68 77 82 94 100 100 100 100 99 99 100 100 99
100 100 100 99 99 100 95 94 97 95 92 91 90 91 91 92 91 83 78 75 73 69 65 76 82 80 73 68 68 70 80 86 82 75 81 95 100 100 100 99 98 100 100
100 100 100 100 100 100 100 100 99 99 98 94 93 91 93 94 98 99 98 98 94 92 81 69 67 67 67 68 75 85 96 97 96 98 100 100 100 100 100 100 100 99 98
100 100 100 100 100 100 100 100 100 100 100 100 97 95 95 95 95 99 100 100 100 100 100 96 89 85 89 86 90 100 100 100 100 100 100 100 100 100 100 99 98 98 96
100 100 99 99 100 100 100 100 100 100 100 100 100 100 100 100 100 99 100 99 99 100 100 100 100 100 100 100 100 100 100 100 100 100 100 99 98 98 99 96 96 96 84
100 100 98 98 99 100 100 99 100 100 100 100 100 100 100 100 100 100 100 100 99 100 100 100 100 100 100 100 99 98 99 98 98 99 99 97 97 97 96 89 40 8 7
99 96 99 98 98 99 100 100 100 100 100 100 100 100 100 100 100 100 100 100 99 93 98 97 95 99 100 99 100 100 99 98 98 97 96 97 95 67 19 9 9 10 11
100 99 100 100 99 100 100 100 100 100 100 100 100 99 99 98 98 98 97 98 98 98 98 97 98 98 97 97 96 96 96 96 96 96 84 21 10 10 10 10 11 11 12
100 99 99 99 100 100 99 100 100 100 100 100 100 100 98 98 98 98 99 100 100 98 98 97 96 96 96 96 96 96 96 84 19 9 9 9 10 11 10 10 11 12 17
100 99 100 99 100 100 100 100 100 100 100 100 100 96 98 92 91 94 96 96 97 97 97 97 97 96 96 96 88 51 20 11 11 12 11 11 11 11 13 15 19 20 22
95 99 96 96 100 100 100 100 99 100 100 99 98 96 93 98 100 100 97 94 96 97 95 96 95 95 95 67 23 15 13 13 13 11 11 12 14 16 20 22 23 26 29
99 96 94 93 97 98 99 99 96 94 94 99 100 100 100 99 98 99 97 94 93 94 93 93 81 32 21 17 16 15 14 14 14 14 16 18 21 24 26 27 29 32 36
96 93 94 95 96 95 95 94 94 95 95 96 99 96 98 96 93 90 100 87 86 69 35 21 16 15 16 17 17 15 15 16 17 19 20 22 26 30 32 34 39 42 45
96 97 96 96 96 96 96 96 95 95 97 97 94 95 97 95 87 84 60 37 23 18 18 15 17 18 16 16 16 19 20 21 22 24 26 30 34 36 38 42 44 47 50
96 96 97 97 97 96 96 96 95 95 92 90 88 86 78 44 22 19 19 19 18 19 19 18 19 19 20 22 23 24 25 27 28 29 32 37 38 40 45 50 52 56 62
96 96 96 96 96 96 96 96 96 96 90 62 31 24 23 16 18 20 20 19 19 19 20 22 22 23 25 27 28 29 30 31 32 34 37 41 44 49 53 56 63 68 71
96 96 95 95 95 95 95 89 62 34 19 19 21 22 21 17 17 18 18 20 21 22 23 24 26 26 26 26 26 27 29 31 34 38 46 51 52 54 59 64 69 73 77
95 96 96 93 89 82 64 40 25 22 21 20 21 20 19 19 20 21 23 24 26 26 26 25 25 25 25 26 27 28 30 34 39 46 53 57 57 58 61 66 70 76 83
87 76 63 52 42 31 28 26 25 24 23 23 22 23 23 25 25 25 26 27 27 27 27 27 28 28 28 29 30 30 32 34 40 48 53 57 62 62 62 66 71 78 86
40 37 33 34 33 33 31 29 29 30 29 28 28 29 29 29 30 31 31 31 31 32 32 33 32 32 31 31 32 33 36 39 43 47 54 60 65 66 63 64 68 75 85

GFSGL_850_rhum_105.txt.gz
RH
98 85 76 69 56 76 86 91 91 88 95 98 96 99 100 100 100 100 100 91 69 82 88 82 99 80 80 62 60 74 85 70 69 68 63 66 68 70 66 68 64 61 62
100 87 75 70 62 81 88 92 87 82 96 97 91 99 99 100 100 99 100 99 88 95 91 78 92 89 79 64 70 79 81 73 74 69 66 68 72 72 69 73 69 67 69
100 85 74 69 70 84 90 94 89 82 97 98 83 84 85 98 99 100 100 100 95 96 79 89 90 88 87 80 84 84 75 78 80 83 79 82 82 81 73 66 68 76 77
100 87 85 67 72 79 89 94 92 89 94 100 96 95 96 98 99 100 100 99 93 79 84 82 84 89 84 79 83 86 83 86 88 92 91 82 83 82 80 80 80 80 86
100 95 91 69 74 82 91 94 90 91 92 98 100 100 99 100 90 100 100 100 99 93 81 87 88 89 78 77 83 87 85 90 86 93 91 86 99 86 82 81 94 93 100
100 100 95 87 74 80 87 92 92 92 94 92 91 88 89 97 100 100 100 99 92 95 92 86 91 94 89 86 90 91 88 84 82 100 90 94 98 82 76 85 97 100 100
100 99 99 98 99 81 86 94 94 91 90 92 86 79 80 81 82 88 100 100 100 99 92 96 93 92 89 89 85 86 84 90 95 98 83 98 89 89 99 99 100 99 100
100 100 100 99 99 99 98 90 92 94 88 85 81 79 80 85 87 84 80 84 90 90 93 91 90 93 87 92 88 84 87 93 90 81 84 85 93 99 100 100 100 100 100
97 83 100 99 99 100 100 99 96 94 95 94 91 89 88 88 91 94 94 91 85 81 80 79 79 79 75 77 92 100 98 92 86 82 82 87 99 100 99 100 100 100 100
99 99 100 100 94 100 100 100 99 100 100 99 100 98 96 99 95 100 100 100 98 98 99 96 95 94 92 89 84 86 96 100 100 100 100 100 100 100 100 100 100 98 98
100 100 100 100 100 100 100 100 100 100 100 100 100 100 100 100 99 98 100 100 100 100 100 100 100 100 100 100 100 100 100 100 100 100 100 99 99 100 98 98 96 97 96
98 98 98 99 98 100 100 100 100 100 100 100 100 100 100 100 100 100 100 100 100 100 100 100 100 100 100 100 99 98 100 100 98 98 98 98 97 96 97 97 89 46 16
99 98 98 99 97 96 100 100 100 100 100 100 100 100 100 100 100 99 99 97 99 100 100 99 98 98 99 99 98 98 98 97 97 96 96 96 95 93 40 9 7 8 8
98 99 100 100 100 100 100 99 100 100 100 100 100 100 100 100 99 97 95 98 98 96 100 100 99 98 97 96 96 97 97 97 96 96 96 86 27 8 7 8 10 10 11
100 99 98 99 100 99 99 99 100 100 100 100 100 100 100 99 99 100 98 98 100 99 98 98 99 96 94 95 95 94 95 95 95 77 20 9 8 9 11 12 12 16 16
98 98 99 100 100 100 100 100 100 100 99 100 100 96 96 96 98 99 99 100 100 98 91 90 92 93 90 92 92 92 91 70 25 8 8 9 10 12 13 15 17 19 22
95 96 99 100 100 100 100 100 100 100 97 96 96 97 99 99 99 98 97 96 98 97 86 92 94 92 92 94 56 21 12 10 10 11 11 12 13 15 18 20 23 28 32
94 94 92 97 98 96 96 97 96 93 91 96 99 99 100 99 99 98 98 95 96 91 87 88 78 40 20 13 12 11 11 12 13 13 14 16 19 22 25 28 30 33 36
94 93 91 91 91 92 94 94 93 93 94 98 99 94 95 92 92 92 95 94 87 61 34 17 15 14 14 13 13 13 14 15 17 19 21 24 26 28 29 30 34 36 38
96 96 94 95 97 97 97 95 93 92 92 94 92 93 94 93 92 86 60 29 17 16 17 16 16 15 15 16 18 19 20 22 23 24 26 28 30 32 34 36 39 43 46
95 97 97 97 96 95 94 92 92 92 91 92 89 88 83 50 20 17 18 17 16 18 18 18 18 19 20 21 22 23 24 24 25 27 30 32 33 35 38 42 45 49 52
96 95 96 96 95 95 95 95 95 95 92 67 27 24 22 16 16 16 16 17 17 18 19 20 20 20 22 22 23 25 26 27 28 30 33 37 39 40 43 46 52 55 58
96 96 96 96 96 96 96 87 53 26 18 18 21 21 19 16 16 17 18 19 21 22 22 22 22 22 22 23 24 25 26 28 31 33 37 41 44 46 47 49 54 60 64
96 96 96 96 94 80 54 29 20 20 20 21 21 20 19 20 21 21 22 23 24 24 24 25 25 25 25 25 24 24 25 28 31 34 38 43 46 48 49 50 54 60 67
94 87 73 60 47 33 28 26 24 23 22 22 22 22 22 24 25 26 26 27 28 28 27 27 26 26 26 26 26 26 27 30 32 37 41 44 46 49 53 56 58 63 68
43 40 36 35 33 32 30 27 27 28 27 27 28 29 30 30 29 30 30 31 32 32 31 31 31 30 30 29 29 29 30 33 35 38 41 45 49 54 58 60 61 63 71

GFSGL_850_rhum_108.txt.gz
RH
99 98 100 100 98 96 96 70 73 83 99 97 93 100 99 100 100 100 100 100 99 99 98 92 82 94 69 68 59 59 54 74 77 75 76 77 65 76 70 70 72 67 76
99 99 100 98 95 91 88 72 73 85 96 87 88 95 100 100 100 100 100 100 100 98 96 94 85 84 97 84 84 74 84 69 66 71 66 88 64 72 73 75 77 80 72
100 100 99 95 88 77 86 72 79 86 96 85 84 91 99 100 100 100 100 100 100 94 77 79 70 80 99 90 90 77 80 71 69 82 84 83 94 79 75 70 82 81 81
100 100 100 100 85 79 85 72 82 82 89 82 83 77 81 90 100 100 100 100 100 99 93 92 82 79 90 93 94 86 79 76 76 87 94 87 90 90 84 92 91 96 94
100 100 100 100 90 100 94 81 86 89 91 89 86 83 83 82 89 94 99 99 100 100 100 97 82 81 84 83 89 88 81 79 85 92 90 89 89 89 95 94 100 100 100
100 100 99 99 96 99 90 94 90 89 98 100 98 90 91 85 86 86 94 98 99 100 100 100 94 92 85 83 97 93 94 94 88 100 100 97 87 86 99 86 100 100 100
99 99 100 100 82 86 85 95 94 96 96 100 98 97 92 82 82 87 95 100 98 98 96 92 87 80 83 89 97 98 92 91 92 99 99 95 96 91 93 83 98 98 99
100 100 100 100 100 93 82 84 91 98 100 100 99 95 88 87 84 86 89 100 100 100 99 95 89 90 87 97 98 99 99 98 98 97 100 100 100 100 100 100 100 100 100
100 100 100 100 100 100 100 98 90 90 92 92 91 92 89 84 91 94 96 95 100 100 100 100 100 100 95 97 100 100 100 100 100 100 100 100 100 100 100 100 100 100 100
100 100 100 100 100 99 99 98 100 100 96 99 96 94 92 93 90 95 100 100 99 95 100 100 98 99 100 100 100 100 100 100 100 100 100 100 99 98 100 100 100 100 99
99 99 100 100 99 100 100 100 98 100 100 100 100 100 100 100 97 94 94 99 100 100 100 100 99 96 100 100 100 100 100 100 100 100 100 100 100 100 99 99 98 97 97
98 100 100 99 100 100 99 100 100 100 100 100 100 100 100 100 100 100 100 100 100 100 100 100 100 98 100 100 100 100 100 100 100 98 98 97 97 97 97 97 97 96 96
100 100 99 100 98 99 99 100 100 100 100 100 100 100 100 100 100 100 100 100 100 100 100 100 100 100 100 100 98 100 100 99 97 97 96 96 96 96 95 94 85 64 46
100 100 99 98 99 99 100 100 100 100 100 100 100 100 100 100 100 100 99 100 100 100 99 100 100 100 99 99 98 97 96 97 97 97 96 96 95 93 86 64 19 7 9
100 100 100 100 100 100 100 100 100 100 100 100 100 100 100 98 99 100 100 99 100 100 99 99 99 99 96 97 100 100 97 97 97 95 94 74 35 14 10 10 11 14 16
100 100 100 100 100 100 100 99 100 100 100 100 100 96 97 96 99 98 100 100 99 100 98 96 99 100 99 99 98 98 97 93 68 31 16 12 12 12 13 16 23 30 26
100 100 100 100 100 100 100 99 98 100 99 96 96 98 99 100 98 98 97 99 100 94 90 97 95 97 100 100 99 84 37 16 15 19 15 13 13 15 21 24 28 30 29
96 97 95 99 100 100 99 100 100 100 99 98 97 94 95 97 100 100 100 98 97 91 95 99 99 95 74 36 16 13 11 13 14 16 16 16 22 33 31 31 36 59 76
95 94 93 92 94 96 98 100 100 100 100 100 100 99 100 100 99 98 98 92 87 79 62 43 24 16 13 12 11 11 12 13 14 15 18 21 24 30 30 33 32 34 53
96 96 98 98 99 99 100 100 100 97 96 95 95 100 100 100 96 93 66 32 21 25 27 22 20 16 14 12 13 14 15 16 18 19 20 22 25 32 33 37 46 93 59
99 99 99 98 98 97 97 96 96 94 92 92 91 92 90 66 36 21 17 16 16 17 16 15 14 16 17 18 18 18 19 20 22 24 28 30 32 39 41 41 43 42 44
97 95 95 95 96 95 94 95 95 94 79 45 31 28 21 16 17 16 16 14 15 15 17 18 19 19 19 21 23 24 25 27 29 31 32 33 36 38 40 42 44 47 55
96 96 96 96 96 96 96 92 71 42 28 24 24 22 18 15 15 15 15 16 17 17 18 20 20 21 21 22 23 26 28 27 28 31 34 37 41 43 42 45 46 54 62
95 96 96 95 95 86 54 28 20 19 20 19 18 16 16 17 18 18 19 20 21 22 21 22 21 22 22 22 23 24 24 26 28 32 35 38 41 44 46 49 52 51 56
94 94 92 83 56 32 24 23 22 21 20 20 19 19 20 20 21 22 22 23 24 24 25 25 26 26 26 26 26 26 26 28 29 32 35 38 40 45 48 52 53 55 58
45 41 36 32 30 29 27 26 25 25 25 25 25 25 25 25 25 26 27 28 28 29 29 30 30 30 30 29 29 28 28 30 33 35 38 40 43 46 49 53 55 57 64

GFSGL_850_rhum_111.txt.gz
RH
89 97 98 100 98 93 95 100 98 67 97 100 97 90 92 100 98 99 100 100 100 100 100 98 100 100 93 90 84 87 70 62 57 61 83 84 81 80 69 93 83 82 79
96 99 97 99 98 97 99 94 75 80 100 99 99 86 92 94 100 98 100 100 100 100 99 100 100 100 98 88 82 96 68 71 74 72 74 83 80 74 71 78 85 92 85
100 100 99 100 100 99 100 87 64 98 95 85 89 100 99 99 99 100 100 100 100 100 100 99 98 98 93 97 94 94 85 74 65 60 62 81 74 75 72 92 97 91 84
100 100 100 100 100 99 100 87 71 98 99 78 86 100 95 98 96 98 100 100 100 100 100 100 100 99 94 89 93 87 84 79 76 78 87 72 64 70 83 95 100 95 94
100 100 100 99 100 98 100 99 92 100 98 77 74 98 89 82 87 92 97 98 100 100 100 100 100 100 100 95 90 92 99 95 92 91 89 80 76 83 82 87 98 99 100
100 99 99 100 100 100 100 100 98 99 94 99 78 80 81 80 77 82 88 100 100 100 100 100 100 100 93 81 74 82 100 100 92 94 96 84 80 86 92 96 98 100 100
100 100 100 100 100 100 100 99 98 100 99 99 97 90 85 82 77 81 86 99 99 100 100 100 100 100 100 100 86 90 100 100 98 98 97 94 90 90 89 96 94 98 100
100 100 100 100 100 99 99 98 98 100 99 99 98 96 84 76 74 78 82 96 100 100 100 100 98 96 98 98 95 98 100 98 97 100 100 99 97 95 97 100 100 100 100
100 100 100 100 100 99 99 99 99 98 97 100 99 99 100 99 81 84 88 89 99 100 97 100 100 99 95 90 95 96 94 95 98 99 100 96 98 99 100 100 100 100 100
100 100 100 100 99 99 99 99 100 100 100 99 99 100 99 98 90 88 90 93 96 100 99 98 99 97 99 100 100 100 100 100 100 100 100 100 100 100 100 100 100 100 100
99 100 98 100 100 100 100 100 100 100 100 100 100 100 100 98 91 92 96 100 100 100 100 100 100 100 100 100 100 100 100 100 100 100 100 100 100 99 98 99 99 99 98
100 96 100 95 98 100 100 100 100 100 100 99 100 100 100 100 99 97 98 100 100 100 100 100 98 99 100 100 100 100 100 100 100 100 100 99 98 98 98 98 97 97 97
100 98 100 100 98 100 99 100 100 100 100 100 100 100 100 100 100 99 99 100 100 100 100 100 100 100 100 100 100 100 100 99 99 98 98 97 97 97 98 100 99 97 93
97 98 98 100 98 100 100 99 99 100 100 100 100 100 100 100 100 100 100 100 100 100 100 100 99 99 100 100 98 98 97 97 97 97 97 96 96 95 93 83 65 30 10
100 100 100 100 99 100 100 100 100 100 100 100 100 100 100 100 99 100 100 100 100 100 99 99 99 97 96 97 97 99 98 96 95 97 97 92 83 54 25 11 9 14 24
96 100 100 100 100 99 100 100 100 100 100 100 100 98 100 100 100 100 100 100 98 98 97 95 98 98 98 97 95 95 95 97 93 76 48 26 20 16 16 18 26 45 61
98 100 99 98 99 100 100 100 100 100 99 98 98 98 99 100 99 97 96 97 100 96 93 100 100 100 100 100 100 100 87 62 40 41 34 23 16 14 35 47 59 79 78
96 100 100 96 96 98 98 98 99 100 100 100 100 100 100 100 100 100 98 96 96 97 100 100 100 100 100 96 78 69 64 48 49 54 54 55 71 70 79 92 97 95 85
98 100 100 99 100 100 100 100 100 100 100 99 98 98 99 99 99 98 97 98 100 100 100 100 100 100 99 93 89 77 61 59 52 50 53 61 73 87 75 43 29 29 56
100 100 100 100 100 100 100 100 100 100 100 100 100 100 100 99 98 96 90 81 86 96 99 99 97 99 88 58 37 32 38 34 40 56 69 96 99 93 69 65 83 99 94
97 96 99 100 100 100 100 100 100 99 96 94 95 97 97 97 99 94 100 100 100 100 100 100 100 96 97 97 96 87 82 77 80 84 80 58 68 86 74 60 82 70 52
97 98 97 97 98 97 98 100 100 98 84 70 67 53 64 94 100 100 93 94 90 92 89 82 79 82 91 90 77 55 45 50 64 52 30 31 68 43 58 64 78 94 100
96 96 96 96 97 99 100 100 100 100 100 100 100 100 100 99 94 89 75 53 29 24 28 24 22 20 20 21 37 59 56 34 24 28 43 56 81 99 65 100 90 76 100
96 97 98 99 100 100 97 70 73 93 100 100 100 100 90 67 51 35 30 23 21 19 18 18 18 18 19 25 25 20 19 19 21 23 26 29 51 61 62 80 94 95 57
100 99 99 100 100 100 100 100 100 100 100 100 100 94 80 67 40 25 20 20 20 20 21 21 21 22 22 22 22 22 22 22 24 25 26 30 34 36 42 44 59 59 94
100 100 100 100 100 100 100 100 100 100 100 100 100 94 88 68 43 26 24 25 25 24 24 25 25 26 26 24 25 25 26 26 28 29 31 33 36 51 94 99 100 100 100

GFSGL_850_rhum_114.txt.gz
RH
86 77 85 76 79 93 93 99 93 93 94 98 89 97 100 87 96 97 91 98 98 99 100 100 99 98 98 94 85 91 86 73 58 65 67 70 71 76 80 79 98 91 84
96 96 83 80 85 93 99 100 94 91 98 99 94 99 99 99 100 100 99 98 99 99 100 100 99 97 97 100 92 93 86 79 68 71 67 76 78 80 80 87 83 74 67
100 100 98 83 89 95 100 100 92 98 98 99 97 98 97 100 100 98 99 97 100 99 99 99 100 99 100 100 98 95 91 80 69 70 76 87 87 87 83 81 82 81 74
100 100 98 96 90 92 100 100 94 96 99 100 100 100 91 90 97 98 98 99 100 100 100 100 100 100 100 99 100 99 92 89 98 87 79 81 76 72 84 81 82 81 87
98 99 99 99 98 100 100 100 100 98 98 98 100 99 86 81 92 98 100 100 100 100 100 100 100 100 100 98 100 99 96 96 93 92 84 87 85 74 84 82 83 94 90
99 99 100 100 99 100 100 99 95 99 99 99 99 91 81 77 81 91 99 100 99 100 100 100 100 100 100 99 100 100 96 89 93 92 92 87 87 84 87 92 94 100 100
100 100 99 98 100 100 100 100 98 99 100 100 100 96 97 84 80 81 84 91 98 95 98 99 100 100 100 100 100 100 100 100 90 89 98 98 96 99 99 96 97 95 100
100 99 100 100 100 100 100 99 97 100 100 99 100 100 99 99 88 86 90 99 100 100 100 99 99 99 99 100 100 100 98 93 96 99 100 100 100 100 100 99 100 100 100
100 100 100 100 100 100 100 99 100 99 99 99 100 100 100 98 90 91 92 99 97 100 100 100 100 100 100 100 100 100 100 100 100 100 99 99 99 100 100 100 100 100 100
98 99 100 100 100 100 100 100 100 100 100 100 98 100 100 99 100 94 93 96 100 99 97 98 100 99 100 100 100 99 100 100 100 100 100 100 100 100 100 100 100 100 100
100 98 100 100 100 100 100 100 100 99 100 100 98 100 99 98 97 97 99 94 98 100 100 100 99 100 100 99 100 100 100 100 100 100 100 100 100 100 100 100 99 99 100
100 99 100 99 100 100 100 100 100 99 100 100 100 100 100 100 99 93 99 100 100 100 100 100 99 100 100 100 100 100 100 100 100 100 100 100 100 100 98 98 98 98 98
100 100 98 98 100 100 100 100 100 100 100 100 100 100 100 100 100 99 100 100 100 100 100 100 100 100 100 100 100 100 100 100 100 100 99 99 98 98 97 97 96 96 97
100 100 99 98 100 100 100 99 99 100 100 100 100 100 100 100 100 98 100 100 100 100 100 100 99 100 100 100 100 100 100 100 99 98 98 97 97 97 96 92 81 58 32
98 100 98 99 98 97 98 98 98 98 98 100 100 100 99 98 99 100 100 100 100 100 100 100 100 100 100 100 99 97 97 97 96 97 97 96 95 87 59 28 14 9 9
96 96 96 98 99 99 100 100 100 100 100 99 100 100 100 100 100 100 100 100 100 100 99 97 98 97 96 96 95 97 98 97 95 92 83 58 31 15 12 19 30 28 25
99 98 96 95 98 98 100 100 99 100 98 97 98 98 99 99 98 97 96 96 97 97 92 100 100 99 99 96 94 92 90 80 61 42 28 22 20 24 31 36 44 44 51
100 99 97 95 96 100 100 98 96 95 94 97 99 98 98 98 99 99 99 97 98 99 100 100 98 97 95 86 71 56 47 39 32 28 24 28 34 36 50 62 66 73 61
100 100 100 100 100 100 100 100 99 98 98 98 98 99 100 98 95 95 95 90 94 96 95 93 91 86 79 63 44 30 27 29 29 26 28 38 52 52 44 35 33 48 57
100 100 100 100 99 97 96 95 94 94 96 99 100 100 98 97 94 90 84 81 79 78 74 66 60 44 29 25 24 22 19 22 26 32 43 48 52 40 37 39 47 71 54
97 96 96 97 96 96 95 95 95 94 92 93 96 100 97 88 81 69 66 73 74 74 68 59 62 60 56 51 52 55 45 39 36 33 35 40 41 43 40 37 42 45 43
98 97 96 96 96 94 94 94 92 86 84 83 79 74 58 47 43 41 45 49 56 58 52 42 45 49 58 55 45 37 37 38 38 38 32 35 37 36 37 44 39 53 86
94 94 96 97 96 96 94 94 93 88 76 69 62 53 45 36 32 28 26 27 26 23 23 23 24 31 33 34 31 26 24 29 32 26 24 33 32 40 43 60 48 49 59
96 95 94 94 93 93 83 85 85 83 80 77 66 55 46 42 37 31 25 21 19 20 20 19 19 20 17 18 19 21 19 18 19 20 24 26 21 28 32 32 51 62 66
100 98 99 99 98 100 100 100 100 100 100 97 96 86 75 51 31 25 23 21 20 20 19 19 19 20 20 20 20 20 20 21 22 22 24 24 24 30 33 37 42 40 52
99 100 100 100 100 100 100 100 100 100 100 100 98 95 85 60 38 28 25 24 23 22 22 22 23 22 22 24 23 23 24 25 26 27 28 28 27 28 30 37 42 45 50

GFSGL_850_rhum_117.txt.gz
RH
61 56 66 71 76 72 92 86 75 97 95 99 89 98 99 98 98 97 99 98 99 100 100 97 99 100 100 100 100 99 94 88 86 80 74 74 73 75 76 79 85 88 84
66 64 82 98 80 74 92 85 78 98 100 98 87 87 99 99 98 98 98 100 100 99 98 99 99 99 100 100 100 99 90 100 89 82 70 78 76 78 82 84 84 80 76
68 70 92 97 100 100 92 80 83 98 100 93 87 94 99 98 99 99 99 99 96 100 98 99 99 98 100 99 99 98 94 94 95 81 81 76 80 79 82 87 73 77 88
74 80 91 99 99 96 96 82 88 98 100 94 92 92 99 99 100 99 100 100 100 100 99 100 100 99 99 98 98 96 90 86 81 84 91 87 86 86 80 88 93 86 85
80 90 94 100 100 98 98 89 98 99 100 92 84 97 99 98 97 99 99 100 99 97 98 100 100 100 100 100 99 100 99 99 95 98 93 100 95 99 99 92 91 95 91
94 100 99 100 100 100 94 95 100 100 96 90 95 99 98 98 100 99 100 100 98 93 98 100 100 100 100 100 100 100 100 99 99 100 98 92 96 95 94 94 100 99 99
98 98 100 100 100 100 99 96 100 100 90 93 95 99 98 100 98 100 100 100 100 99 99 100 100 100 100 100 100 100 100 100 100 100 96 96 92 88 92 99 97 95 96
98 99 100 100 100 100 98 99 100 95 99 92 97 98 98 99 90 95 96 100 98 98 95 100 99 100 100 99 100 100 100 100 100 100 100 94 90 87 95 98 98 100 100
99 100 99 100 100 100 100 100 100 98 98 100 100 98 100 98 99 96 97 99 98 100 99 99 100 99 100 100 100 100 100 100 98 96 93 87 90 100 100 100 100 100 100
99 100 99 100 100 100 100 100 100 100 99 100 100 100 100 100 98 96 99 100 98 98 99 100 100 99 100 99 97 94 98 98 97 98 99 100 100 100 100 100 100 100 100
100 100 100 100 100 100 100 100 100 100 100 100 100 100 99 100 100 100 99 97 100 99 100 99 99 100 100 100 100 100 99 100 100 100 100 100 100 100 99 100 100 100 100
98 99 99 100 98 100 100 100 100 100 100 99 100 100 100 100 100 100 100 100 99 100 100 100 99 100 100 100 100 100 100 100 100 100 100 100 100 100 99 99 99 100 100
98 98 99 100 100 99 100 100 100 100 100 100 100 100 100 99 100 100 100 100 100 100 100 99 100 100 100 100 100 100 100 100 100 100 100 99 99 99 97 97 97 96 95
94 98 98 99 100 100 99 100 99 100 100 100 100 100 100 100 100 100 100 100 100 100 100 100 100 100 100 100 100 100 100 100 100 100 99 98 98 97 97 95 91 89 84
95 96 97 97 98 98 98 99 100 100 99 99 99 99 100 100 99 100 100 100 100 98 98 100 98 100 99 99 100 100 99 98 97 98 97 96 97 95 80 51 32 24 16
95 96 96 96 96 96 96 96 97 97 98 98 99 98 98 100 100 100 100 99 100 96 100 98 99 100 98 99 97 96 96 96 96 96 95 88 74 50 33 16 10 9 8
94 95 96 95 96 96 96 95 95 96 96 95 95 96 100 100 97 97 97 96 98 98 92 93 95 96 96 96 94 94 92 89 83 72 56 36 21 16 15 17 21 20 19
94 94 94 97 98 96 96 96 96 95 95 96 96 95 93 94 93 94 96 95 96 91 90 91 91 93 93 91 90 84 74 57 40 27 19 16 15 16 22 27 34 37 41
90 93 94 95 93 93 92 92 92 94 96 96 96 97 99 97 97 97 91 82 85 88 90 89 87 82 75 66 56 43 33 27 24 20 19 23 27 29 34 48 54 51 44
96 96 92 94 94 94 93 90 91 92 92 95 96 99 98 90 86 84 84 84 84 84 82 71 62 52 40 33 30 26 22 22 24 26 28 29 30 29 23 21 24 33 49
93 94 96 96 95 95 96 95 94 93 92 91 95 97 90 76 68 59 53 45 41 38 34 27 23 21 22 21 21 22 23 25 30 30 28 25 21 21 24 30 32 44 35
97 96 95 94 95 95 95 94 94 93 91 85 78 67 60 51 50 47 44 41 39 39 42 36 34 35 38 35 33 27 25 22 21 23 21 24 24 23 22 29 32 32 30
95 96 96 97 96 95 94 94 86 72 62 54 47 41 35 30 33 35 38 47 52 47 43 39 31 29 28 26 28 28 26 22 23 23 19 20 25 30 26 26 30 35 32
96 94 94 96 96 93 87 74 66 58 52 47 42 38 33 30 26 25 23 23 22 21 22 21 21 23 22 21 22 22 19 18 21 24 22 23 26 25 30 31 29 32 32
97 97 95 94 89 82 80 77 71 65 58 48 42 36 31 27 23 20 18 19 20 19 17 17 18 18 18 18 18 18 19 20 22 23 21 21 21 21 23 24 26 30 35
95 95 95 97 97 96 93 90 87 84 77 74 63 52 41 30 23 20 19 20 19 19 19 19 21 22 22 22 22 22 23 24 24 24 23 25 26 27 27 28 30 32 37

GFSGL_850_rhum_120.txt.gz
RH
39 40 40 38 42 51 58 54 65 80 93 83 78 81 97 89 92 100 99 97 97 92 94 94 98 100 100 99 100 100 100 99 95 91 89 83 72 78 66 75 81 85 87
52 51 50 48 49 64 90 70 65 78 93 87 80 80 100 93 90 96 97 99 86 98 95 98 98 100 99 100 100 100 100 100 94 91 94 81 77 80 79 81 81 84 84
61 58 54 52 57 82 97 91 82 80 88 84 86 86 88 100 97 98 97 95 91 98 99 98 97 100 100 100 99 100 100 98 99 94 91 90 93 79 85 87 84 87 91
70 67 66 71 79 89 97 99 97 96 90 87 84 86 100 95 97 93 91 92 96 97 100 99 98 96 99 99 99 100 100 100 99 96 91 83 85 85 90 88 90 94 96
76 78 76 85 91 95 97 97 96 95 89 91 88 100 97 95 89 93 96 99 96 99 100 98 100 99 100 99 100 100 100 100 100 94 97 92 86 82 90 86 89 98 97
80 82 86 88 100 100 99 97 98 96 93 99 100 88 99 90 93 97 95 92 100 98 100 100 100 100 100 99 99 100 96 100 95 93 92 86 90 91 91 98 100 100 98
82 82 86 88 94 99 100 99 100 98 99 100 100 81 94 86 98 98 95 99 99 98 99 100 100 100 100 100 100 100 100 100 100 90 88 91 94 95 100 100 96 94 95
86 87 87 89 92 99 100 98 100 100 99 99 98 100 89 97 99 99 96 97 99 100 100 100 100 100 100 100 100 100 100 100 100 100 100 100 97 96 96 91 99 97 99
89 93 90 92 94 96 99 99 100 100 99 100 100 95 96 98 99 100 100 99 100 100 99 100 99 100 99 100 100 100 100 99 99 100 100 100 100 100 100 99 98 98 100
98 99 98 98 99 97 99 100 100 100 97 100 99 93 97 97 93 97 99 98 98 98 98 98 100 98 100 100 99 98 100 100 100 100 100 100 100 100 96 96 100 100 100
97 100 100 100 100 100 99 100 100 98 99 100 98 95 100 95 96 94 98 99 98 98 100 100 100 100 99 100 100 100 100 99 95 96 91 95 95 97 98 100 100 100 100
98 99 99 100 99 98 99 100 100 100 99 99 100 98 100 100 100 100 98 100 100 99 100 100 100 100 100 100 100 100 100 100 100 100 100 100 100 100 100 100 100 100 100
96 96 96 100 99 100 99 99 99 100 100 100 99 100 100 100 100 100 100 100 100 100 100 99 99 100 100 100 100 100 100 100 100 100 100 100 100 100 100 99 100 100 99
94 95 97 98 97 97 98 100 98 100 100 100 100 100 100 100 100 100 100 100 100 100 100 100 100 100 100 100 100 100 100 100 100 100 100 100 100 100 99 99 96 95 94
96 95 96 97 96 96 95 97 98 99 99 98 100 99 100 100 100 100 100 100 100 100 100 100 100 100 99 100 100 100 100 100 100 100 100 99 98 98 97 97 92 79 69
91 96 96 95 96 95 96 96 96 96 98 98 99 97 98 99 98 99 98 100 100 100 100 98 100 100 99 100 97 99 99 99 98 98 97 97 97 93 74 35 24 18 13
93 92 94 96 97 96 95 96 95 96 96 96 96 97 99 99 98 98 98 98 99 99 99 99 98 97 99 97 97 97 97 97 97 96 89 78 64 47 26 13 12 10 10
92 94 93 94 96 96 95 95 96 96 96 96 96 96 96 96 97 97 94 96 96 99 100 97 96 96 95 95 95 90 85 78 70 60 46 32 22 15 15 16 16 13 15
90 91 91 92 94 93 94 93 94 94 93 94 95 92 92 90 92 93 95 88 87 84 87 88 89 89 87 84 78 67 55 40 29 23 23 25 27 23 23 24 23 24 25
94 96 93 92 91 91 91 90 91 92 92 93 91 94 96 95 93 93 89 85 82 83 82 79 76 70 61 51 40 32 25 24 23 21 22 23 25 33 34 37 42 40 40
96 95 96 95 95 94 92 91 91 90 89 88 88 88 86 76 72 70 70 69 68 67 64 55 43 35 32 29 28 28 28 28 30 26 26 28 29 26 24 24 27 34 40
97 96 94 94 96 95 95 96 95 91 85 79 73 71 64 51 47 46 45 44 45 44 43 41 39 42 42 38 34 28 23 24 27 26 25 24 25 24 24 27 26 25 26
96 96 96 95 94 95 94 87 73 60 52 47 48 50 50 45 47 49 48 52 57 58 59 58 51 44 44 41 41 37 31 27 26 28 26 25 25 25 23 22 20 21 23
94 95 97 97 95 90 79 67 58 53 48 45 42 39 38 39 43 47 48 50 48 48 49 44 41 41 40 38 36 32 29 22 26 28 23 21 20 19 19 19 20 21 23
95 93 92 93 89 83 75 70 64 59 55 50 42 35 33 34 33 28 25 25 26 30 30 31 28 25 24 22 22 23 20 20 20 20 20 21 22 22 22 23 25 26 27
96 97 97 94 89 88 85 80 79 75 69 66 61 52 40 31 28 27 25 23 23 23 23 23 23 23 22 22 22 23 23 23 22 22 22 23 24 25 26 27 28 30 32

GFSGL_850_rhum_123.txt.gz
RH
31 35 39 38 41 39 36 31 32 43 45 52 74 85 90 76 79 76 88 93 94 99 100 98 84 89 92 93 94 100 100 100 100 100 100 98 93 90 88 78 81 81 84
36 35 40 39 39 37 36 44 47 52 57 56 70 89 94 84 75 90 93 93 96 100 99 96 76 94 90 95 97 99 100 100 100 99 94 98 90 92 93 86 86 84 75
55 55 53 48 47 45 43 48 56 90 94 68 72 92 90 91 73 90 90 88 95 100 99 90 78 90 92 97 94 99 100 99 100 100 98 96 94 85 87 97 76 74 80
62 58 54 50 52 49 50 64 80 99 100 94 87 100 94 85 75 82 90 94 100 98 98 87 90 92 97 98 98 99 99 99 100 100 100 99 100 81 86 91 94 82 85
66 64 65 64 64 66 80 87 88 100 98 94 99 100 94 83 85 91 98 99 100 94 90 89 93 98 95 94 98 99 100 100 100 100 100 100 91 90 90 97 99 98 93
78 78 76 76 77 81 88 98 99 94 100 99 93 94 83 94 95 99 100 99 90 87 88 94 98 100 94 98 100 100 98 100 100 100 100 96 93 91 97 92 86 89 100
83 83 82 80 82 84 86 94 99 100 100 99 95 96 98 99 88 100 99 94 94 91 93 95 100 98 97 100 100 100 100 100 100 98 93 88 90 80 82 89 95 98 93
88 88 89 88 86 91 88 91 99 100 99 100 95 93 96 100 99 98 99 99 94 92 97 99 100 98 99 98 99 100 100 100 100 99 100 94 92 97 92 87 87 100 100
87 88 94 94 93 96 93 89 95 98 98 100 99 96 100 86 97 97 99 98 92 95 100 100 99 98 98 99 100 100 100 100 97 100 100 100 100 99 99 97 100 99 100
90 92 94 93 96 100 99 92 92 96 99 100 100 100 94 100 100 100 97 98 97 100 99 100 100 99 99 100 99 99 100 100 99 99 100 100 100 100 100 100 100 100 100
91 93 93 93 98 100 100 99 96 99 100 100 99 100 100 100 98 100 99 100 98 99 100 96 91 97 100 100 100 100 99 100 100 100 99 100 100 100 100 100 100 100 100
92 93 95 96 98 100 100 99 100 100 100 100 100 100 99 99 100 100 100 100 98 97 98 99 100 100 100 100 100 100 100 100 100 100 100 100 99 98 100 100 100 100 100
89 91 94 96 98 98 96 99 100 100 100 100 100 100 100 100 100 100 100 100 100 98 100 100 100 100 100 100 99 100 100 100 100 100 100 100 100 100 100 100 100 100 100
88 92 94 95 92 93 94 97 98 100 100 98 99 100 100 99 100 100 100 100 100 100 99 100 100 100 100 100 100 100 100 100 100 100 100 100 100 100 100 100 100 100 100
90 90 93 98 95 93 95 95 96 97 98 97 97 99 100 99 100 100 100 100 100 100 100 100 100 100 100 100 100 100 100 100 99 100 100 100 100 99 100 99 99 98 96
91 94 95 98 98 95 95 96 96 96 97 96 96 96 99 97 99 99 100 99 100 100 100 100 100 100 100 100 100 100 100 99 100 99 99 98 98 98 98 97 93 77 64
93 94 94 93 95 96 95 95 95 96 96 96 96 96 96 97 98 99 100 99 99 99 99 100 99 99 98 99 98 97 98 98 98 98 98 97 98 97 88 34 23 17 10
96 96 96 96 95 95 96 96 96 96 95 96 96 96 96 97 97 97 98 98 97 98 98 97 97 98 97 97 97 98 96 96 97 96 90 69 42 30 18 11 11 10 10
95 97 97 97 96 95 94 95 95 96 96 96 96 96 96 96 96 96 97 96 97 96 97 96 97 97 96 95 93 86 78 69 58 46 33 25 21 16 14 17 19 19 15
95 97 98 97 97 96 96 95 94 92 89 89 91 95 97 97 96 97 97 96 93 91 91 89 90 87 79 68 58 49 40 35 31 27 24 25 31 30 24 27 29 25 30
97 96 98 97 96 96 97 96 96 93 88 83 75 70 67 67 79 82 83 81 81 79 74 67 59 50 47 46 43 36 33 33 35 32 33 38 43 39 41 42 37 34 31
96 96 96 95 97 95 91 80 63 54 54 60 73 73 62 48 47 45 44 42 43 42 43 40 40 45 46 41 36 33 32 31 32 32 30 32 31 28 29 30 28 25 23
95 96 95 94 95 95 90 75 57 46 40 38 44 45 44 44 48 49 50 54 53 50 51 48 44 38 35 31 30 30 30 31 31 36 30 26 24 22 21 21 20 20 20
92 94 94 92 86 74 61 54 49 43 39 36 33 31 32 36 39 41 44 44 45 43 44 41 36 34 32 30 30 30 27 25 27 26 23 24 22 20 19 19 19 20 21
93 94 92 89 83 76 69 63 59 54 47 42 36 32 32 30 27 29 30 29 28 29 28 27 27 26 25 25 22 21 20 21 23 19 18 19 20 20 20 21 21 22 23
96 96 95 94 93 90 84 76 70 67 60 53 45 36 33 30 27 27 28 28 27 26 25 24 22 21 21 20 20 21 21 22 22 22 22 23 24 24 24 25 25 26 28

GFSGL_850_rhum_126.txt.gz
RH
43 39 34 31 29 27 29 32 30 29 29 32 36 39 62 79 89 92 91 86 71 71 82 92 95 97 99 100 77 82 93 100 99 100 98 100 98 94 98 93 90 88 87
39 40 35 38 40 39 39 40 39 37 37 40 47 53 43 71 91 97 90 80 76 74 79 90 98 99 100 92 82 81 86 98 100 100 98 99 100 100 100 98 96 98 93
48 51 53 52 51 49 46 44 43 45 45 49 54 67 58 61 95 99 92 79 81 84 86 88 93 98 99 76 82 84 85 96 96 100 99 100 100 100 99 100 100 97 86
60 56 52 50 50 51 50 46 51 56 55 62 92 97 100 99 100 97 91 89 82 92 90 90 97 99 93 78 77 84 90 100 98 100 100 100 99 99 98 99 100 97 89
66 59 58 59 63 61 58 56 60 61 63 78 98 100 100 100 99 98 98 90 96 93 91 90 98 100 82 81 86 91 96 100 98 100 100 100 100 100 97 92 97 92 100
74 69 70 67 66 67 66 68 71 78 92 97 99 99 100 100 93 98 99 94 99 100 97 93 99 94 88 92 96 94 89 96 92 99 99 100 99 98 96 95 93 100 100
70 73 75 68 68 69 69 78 85 85 92 98 100 100 100 92 94 92 92 98 100 98 97 99 92 87 94 100 100 100 98 100 99 96 96 99 100 96 97 92 90 96 97
78 77 76 76 72 72 75 82 89 89 86 97 98 99 99 97 93 89 92 100 100 100 97 90 86 86 98 100 100 100 100 100 99 98 99 100 100 100 91 86 86 99 100
84 83 81 83 82 84 92 96 96 94 93 99 99 100 100 96 85 83 93 100 100 99 92 90 92 94 99 100 100 100 100 100 99 99 100 100 99 100 100 100 100 100 100
87 86 86 86 85 90 100 100 100 100 100 100 100 98 99 97 95 94 99 100 99 99 94 95 99 100 99 97 100 100 100 100 99 100 100 100 100 100 100 100 97 98 100
89 89 86 82 82 89 98 100 100 100 100 100 100 97 99 100 99 100 100 98 94 93 96 99 100 100 100 98 98 99 96 100 100 100 100 100 100 100 100 100 100 100 100
91 90 88 85 83 89 89 96 100 99 99 100 100 100 99 99 100 100 100 94 98 98 99 99 99 100 100 100 100 100 100 100 100 100 100 100 100 100 100 100 100 100 100
91 91 91 89 86 91 86 89 93 96 100 100 100 100 100 100 100 100 100 100 99 100 100 100 100 100 100 100 100 100 100 100 100 100 100 100 100 100 100 100 100 100 100
94 95 96 97 95 89 91 91 92 90 95 97 99 99 99 100 100 100 100 100 99 100 100 100 100 100 100 100 100 100 100 100 100 100 100 100 100 100 100 100 100 100 100
88 90 93 94 96 94 100 99 97 97 96 96 96 98 98 98 98 100 100 100 100 100 100 100 100 100 100 100 100 100 100 100 100 100 100 100 100 100 100 100 100 100 100
90 93 97 95 94 95 95 98 99 96 97 95 96 96 97 97 97 100 100 99 100 100 100 100 100 100 100 100 100 100 100 100 100 100 100 100 100 99 99 99 98 98 98
95 93 91 90 92 92 92 96 96 96 96 95 96 95 96 97 97 97 98 99 99 100 99 99 100 100 100 100 100 100 99 100 100 99 98 98 98 98 98 98 97 96 92
97 95 92 91 90 92 95 96 96 94 94 95 95 96 96 96 97 96 97 98 98 98 97 98 97 97 97 98 97 98 97 97 97 97 97 97 97 97 96 78 34 18 12
92 94 96 95 94 93 92 92 90 94 96 96 96 96 96 96 96 97 98 96 96 96 96 96 96 96 96 96 96 96 96 97 97 96 94 73 35 19 15 15 16 15 17
94 94 96 95 94 92 90 85 80 72 68 71 83 94 96 97 94 96 96 96 96 95 96 96 96 96 96 95 93 87 80 57 42 30 24 23 24 20 17 18 20 19 21
97 95 96 95 93 93 83 62 48 44 50 53 56 56 50 67 87 91 94 94 95 96 95 95 94 90 68 48 32 30 26 27 29 29 31 30 30 28 33 34 32 30 28
95 95 94 94 93 86 76 59 47 42 42 44 48 50 47 41 43 42 45 49 52 56 56 51 46 46 49 46 44 40 34 32 33 33 32 34 37 35 31 27 25 24 21
93 92 90 86 79 65 53 47 43 43 43 45 48 44 41 41 45 48 51 56 55 53 52 46 40 37 38 36 36 35 31 29 30 34 30 29 29 26 25 21 20 19 18
92 91 89 84 73 64 60 53 49 44 40 39 37 39 44 45 44 47 48 50 47 45 44 40 39 39 40 37 34 31 27 26 26 23 24 23 20 19 20 18 17 17 17
90 90 91 91 88 82 72 65 56 51 45 40 36 36 36 33 34 37 40 40 37 32 28 26 26 28 30 27 27 24 22 23 22 18 18 18 17 17 17 17 18 18 20
77 83 86 86 83 82 76 71 67 64 57 50 41 36 35 31 30 30 29 28 26 24 23 22 21 21 20 20 20 21 22 22 20 19 19 19 19 19 20 20 21 21 22